| time (UTC) | temp C | wind direction | speed KPH | gust KPH | rain 1hr cm | rain 24hr cm | rain mn cm | humidity % | barometer mb |
| 20260906053146 | 26 | 184 | 0.0 | 4.8 | 0.00 | 0.00 | 0.00 | 49 | 1012.2 |
| 20260906053046 | 26 | 191 | 0.0 | 4.8 | 0.00 | 0.00 | 0.00 | 49 | 1012.2 |
| 20260906052946 | 26 | 196 | 0.0 | 6.4 | 0.00 | 0.00 | 0.00 | 49 | 1012.2 |
| 20260906052846 | 25 | 192 | 0.0 | 6.4 | 0.00 | 0.00 | 0.00 | 49 | 1012.3 |
| 20260906052746 | 25 | 191 | 0.0 | 6.4 | 0.00 | 0.00 | 0.00 | 50 | 1012.4 |
| 20260906052646 | 25 | 193 | 0.0 | 6.4 | 0.00 | 0.00 | 0.00 | 50 | 1012.3 |
| 20260906052546 | 25 | 196 | 0.0 | 6.4 | 0.00 | 0.00 | 0.00 | 51 | 1012.2 |
| 20260906052446 | 25 | 196 | 1.6 | 6.4 | 0.00 | 0.00 | 0.00 | 52 | 1012.3 |
| 20260906052346 | 25 | 197 | 1.6 | 6.4 | 0.00 | 0.00 | 0.00 | 52 | 1012.1 |
| 20260906052245 | 25 | 202 | 3.2 | 6.4 | 0.00 | 0.00 | 0.00 | 52 | 1012.4 |
| 20260906052146 | 25 | 205 | 3.2 | 6.4 | 0.00 | 0.00 | 0.00 | 52 | 1012.3 |
| 20260906052045 | 25 | 208 | 3.2 | 6.4 | 0.00 | 0.00 | 0.00 | 53 | 1012.4 |
| 20260906051946 | 25 | 207 | 3.2 | 6.4 | 0.00 | 0.00 | 0.00 | 53 | 1012.1 |
| 20260906051845 | 25 | 209 | 4.8 | 6.4 | 0.00 | 0.00 | 0.00 | 53 | 1012.2 |
| 20260906051745 | 25 | 208 | 4.8 | 6.4 | 0.00 | 0.00 | 0.00 | 53 | 1012.2 |
| 20260906051645 | 24 | 205 | 3.2 | 6.4 | 0.00 | 0.00 | 0.00 | 52 | 1012.3 |
| 20260906051545 | 24 | 200 | 3.2 | 6.4 | 0.00 | 0.00 | 0.00 | 53 | 1012.3 |
| 20260906051445 | 24 | 200 | 1.6 | 6.4 | 0.00 | 0.00 | 0.00 | 53 | 1012.3 |
| 20260906051345 | 24 | 203 | 1.6 | 6.4 | 0.00 | 0.00 | 0.00 | 53 | 1012.1 |
| 20260906051245 | 24 | 195 | 3.2 | 4.8 | 0.00 | 0.00 | 0.00 | 54 | 1012.2 |
| 20260906051145 | 24 | 183 | 1.6 | 4.8 | 0.00 | 0.00 | 0.00 | 55 | 1012.1 |
| 20260906051045 | 24 | 167 | 1.6 | 4.8 | 0.00 | 0.00 | 0.00 | 55 | 1012.1 |
| 20260906050945 | 24 | 164 | 1.6 | 4.8 | 0.00 | 0.00 | 0.00 | 55 | 1012.2 |
| 20260906050844 | 24 | 169 | 0.0 | 4.8 | 0.00 | 0.00 | 0.00 | 55 | 1012.2 |
| 20260906050744 | 24 | 180 | 1.6 | 4.8 | 0.00 | 0.00 | 0.00 | 55 | 1012.2 |
| 20260906050644 | 24 | 180 | 1.6 | 4.8 | 0.00 | 0.00 | 0.00 | 55 | 1012.1 |
| 20260906050544 | 24 | 180 | 0.0 | 4.8 | 0.00 | 0.00 | 0.00 | 55 | 1012.1 |
| 20260906050444 | 24 | 360 | 0.0 | 3.2 | 0.00 | 0.00 | 0.00 | 55 | 1012.1 |
| 20260906050344 | 24 | 360 | 0.0 | 3.2 | 0.00 | 0.00 | 0.00 | 55 | 1012.2 |
| 20260906050244 | 24 | 29 | 0.0 | 3.2 | 0.00 | 0.00 | 0.00 | 55 | 1012.1 |
| 20260906050144 | 25 | 47 | 0.0 | 3.2 | 0.00 | 0.00 | 0.00 | 54 | 1012.2 |
| 20260906050044 | 25 | 45 | 0.0 | 4.8 | 0.00 | 0.00 | 0.00 | 54 | 1012.2 |
| 20260906045944 | 25 | 37 | 0.0 | 4.8 | 0.00 | 0.00 | 0.00 | 54 | 1012.2 |
| 20260906045844 | 25 | 35 | 0.0 | 4.8 | 0.00 | 0.00 | 0.00 | 54 | 1012.2 |
| 20260906045744 | 25 | 30 | 0.0 | 4.8 | 0.00 | 0.00 | 0.00 | 54 | 1012.3 |
| 20260906045644 | 25 | 27 | 0.0 | 4.8 | 0.00 | 0.00 | 0.00 | 54 | 1012.3 |
| 20260906045544 | 25 | 31 | 1.6 | 4.8 | 0.00 | 0.00 | 0.00 | 54 | 1011.9 |
| 20260906045444 | 25 | 36 | 1.6 | 4.8 | 0.00 | 0.00 | 0.00 | 54 | 1012.1 |
| 20260906045344 | 25 | 41 | 1.6 | 4.8 | 0.00 | 0.00 | 0.00 | 54 | 1012.1 |
| 20260906045243 | 25 | 38 | 1.6 | 4.8 | 0.00 | 0.00 | 0.00 | 54 | 1012.1 |
| 20260906045144 | 25 | 48 | 1.6 | 6.4 | 0.00 | 0.00 | 0.00 | 53 | 1012.2 |
| 20260906045043 | 25 | 56 | 1.6 | 6.4 | 0.00 | 0.00 | 0.00 | 53 | 1012.2 |
| 20260906044943 | 26 | 89 | 0.0 | 9.7 | 0.00 | 0.00 | 0.00 | 53 | 1012.1 |
| 20260906044843 | 26 | 98 | 0.0 | 9.7 | 0.00 | 0.00 | 0.00 | 53 | 1012.1 |
| 20260906044743 | 26 | 110 | 1.6 | 9.7 | 0.00 | 0.00 | 0.00 | 51 | 1012.1 |
| 20260906044643 | 26 | 120 | 1.6 | 12.9 | 0.00 | 0.00 | 0.00 | 49 | 1012.2 |
| 20260906044543 | 26 | 128 | 0.0 | 12.9 | 0.00 | 0.00 | 0.00 | 49 | 1012.0 |
| 20260906044443 | 26 | 129 | 0.0 | 12.9 | 0.00 | 0.00 | 0.00 | 49 | 1012.0 |
| 20260906044343 | 26 | 130 | 0.0 | 12.9 | 0.00 | 0.00 | 0.00 | 48 | 1012.1 |
| 20260906044243 | 26 | 131 | 3.2 | 12.9 | 0.00 | 0.00 | 0.00 | 48 | 1011.9 |
| 20260906044143 | 26 | 132 | 3.2 | 12.9 | 0.00 | 0.00 | 0.00 | 48 | 1011.9 |
| 20260906044043 | 26 | 134 | 3.2 | 12.9 | 0.00 | 0.00 | 0.00 | 48 | 1011.9 |
| 20260906043943 | 26 | 135 | 6.4 | 12.9 | 0.00 | 0.00 | 0.00 | 47 | 1012.1 |
| 20260906043843 | 25 | 135 | 4.8 | 12.9 | 0.00 | 0.00 | 0.00 | 47 | 1011.9 |
| 20260906043743 | 25 | 135 | 6.4 | 12.9 | 0.00 | 0.00 | 0.00 | 47 | 1011.8 |
| 20260906043643 | 25 | 135 | 6.4 | 12.9 | 0.00 | 0.00 | 0.00 | 47 | 1011.8 |
| 20260906043543 | 25 | 135 | 8.0 | 12.9 | 0.00 | 0.00 | 0.00 | 48 | 1011.7 |
| 20260906043442 | 25 | 135 | 6.4 | 12.9 | 0.00 | 0.00 | 0.00 | 48 | 1011.8 |
| 20260906043343 | 25 | 135 | 6.4 | 12.9 | 0.00 | 0.00 | 0.00 | 48 | 1011.9 |
| 20260906043243 | 25 | 135 | 6.4 | 12.9 | 0.00 | 0.00 | 0.00 | 48 | 1011.9 |
| 20260906043142 | 25 | 135 | 6.4 | 12.9 | 0.00 | 0.00 | 0.00 | 48 | 1011.7 |
| 20260906043042 | 25 | 135 | 6.4 | 12.9 | 0.00 | 0.00 | 0.00 | 49 | 1011.9 |
| 20260906042942 | 25 | 135 | 6.4 | 12.9 | 0.00 | 0.00 | 0.00 | 49 | 1011.7 |
| 20260906042843 | 25 | 135 | 6.4 | 12.9 | 0.00 | 0.00 | 0.00 | 49 | 1011.7 |
| 20260906042743 | 25 | 135 | 8.0 | 12.9 | 0.00 | 0.00 | 0.00 | 49 | 1011.7 |
| 20260906042642 | 25 | 135 | 6.4 | 12.9 | 0.00 | 0.00 | 0.00 | 50 | 1011.7 |
| 20260906042542 | 25 | 135 | 6.4 | 12.9 | 0.00 | 0.00 | 0.00 | 50 | 1011.6 |
| 20260906042442 | 25 | 135 | 6.4 | 12.9 | 0.00 | 0.00 | 0.00 | 50 | 1011.6 |
| 20260906042342 | 25 | 135 | 6.4 | 12.9 | 0.00 | 0.00 | 0.00 | 50 | 1011.6 |
| 20260906042242 | 25 | 139 | 6.4 | 12.9 | 0.00 | 0.00 | 0.00 | 50 | 1011.6 |
| 20260906042142 | 25 | 140 | 6.4 | 12.9 | 0.00 | 0.00 | 0.00 | 50 | 1011.7 |
| 20260906042042 | 25 | 140 | 6.4 | 12.9 | 0.00 | 0.00 | 0.00 | 50 | 1011.8 |
| 20260906041942 | 25 | 140 | 8.0 | 12.9 | 0.00 | 0.00 | 0.00 | 51 | 1011.6 |
| 20260906041842 | 25 | 140 | 6.4 | 12.9 | 0.00 | 0.00 | 0.00 | 51 | 1011.7 |
| 20260906041741 | 25 | 140 | 6.4 | 12.9 | 0.00 | 0.00 | 0.00 | 51 | 1011.6 |
| 20260906041641 | 25 | 141 | 6.4 | 12.9 | 0.00 | 0.00 | 0.00 | 51 | 1011.6 |
| 20260906041541 | 25 | 141 | 6.4 | 12.9 | 0.00 | 0.00 | 0.00 | 52 | 1011.7 |
| 20260906041441 | 25 | 141 | 6.4 | 11.3 | 0.00 | 0.00 | 0.00 | 52 | 1011.6 |
| 20260906041341 | 25 | 142 | 6.4 | 11.3 | 0.00 | 0.00 | 0.00 | 51 | 1011.7 |
| 20260906041240 | 25 | 136 | 6.4 | 11.3 | 0.00 | 0.00 | 0.00 | 52 | 1011.6 |
| 20260906041140 | 25 | 135 | 4.8 | 8.0 | 0.00 | 0.00 | 0.00 | 53 | 1011.7 |
| 20260906041040 | 25 | 137 | 4.8 | 8.0 | 0.00 | 0.00 | 0.00 | 53 | 1011.6 |
| 20260906040940 | 25 | 137 | 6.4 | 8.0 | 0.00 | 0.00 | 0.00 | 53 | 1011.6 |
| 20260906040839 | 25 | 138 | 3.2 | 6.4 | 0.00 | 0.00 | 0.00 | 54 | 1011.6 |
| 20260906040739 | 25 | 138 | 3.2 | 6.4 | 0.00 | 0.00 | 0.00 | 54 | 1011.7 |
| 20260906040639 | 25 | 138 | 4.8 | 6.4 | 0.00 | 0.00 | 0.00 | 54 | 1011.6 |
| 20260906040539 | 25 | 139 | 4.8 | 6.4 | 0.00 | 0.00 | 0.00 | 55 | 1011.9 |
| 20260906040439 | 25 | 140 | 4.8 | 6.4 | 0.00 | 0.00 | 0.00 | 55 | 1011.4 |
| 20260906040338 | 25 | 141 | 3.2 | 4.8 | 0.00 | 0.00 | 0.00 | 56 | 1011.7 |
| 20260906040239 | 25 | 142 | 3.2 | 4.8 | 0.00 | 0.00 | 0.00 | 56 | 1011.7 |
| 20260906040139 | 25 | 146 | 3.2 | 4.8 | 0.00 | 0.00 | 0.00 | 56 | 1011.6 |
| 20260906040039 | 25 | 135 | 3.2 | 4.8 | 0.00 | 0.00 | 0.00 | 56 | 1011.7 |
| 20260906035938 | 24 | 135 | 1.6 | 4.8 | 0.00 | 0.00 | 0.00 | 56 | 1011.6 |
| 20260906035838 | 24 | 135 | 1.6 | 4.8 | 0.00 | 0.00 | 0.00 | 57 | 1011.4 |
| 20260906035738 | 24 | 0 | 0.0 | 0.0 | 0.00 | 0.00 | 0.00 | 57 | 1011.5 |
| 20260906035638 | 24 | 0 | 0.0 | 0.0 | 0.00 | 0.00 | 0.00 | 57 | 1011.7 |
| 20260906035539 | 24 | 135 | 0.0 | 3.2 | 0.00 | 0.00 | 0.00 | 57 | 1011.5 |
| 20260906035438 | 24 | 135 | 0.0 | 3.2 | 0.00 | 0.00 | 0.00 | 55 | 1011.4 |
| 20260906035338 | 24 | 135 | 0.0 | 3.2 | 0.00 | 0.00 | 0.00 | 55 | 1011.5 |
| 20260906035238 | 24 | 135 | 0.0 | 3.2 | 0.00 | 0.00 | 0.00 | 55 | 1011.5 |
| 20260906035138 | 24 | 135 | 0.0 | 3.2 | 0.00 | 0.00 | 0.00 | 53 | 1011.7 |
| 20260906035038 | 24 | 135 | 0.0 | 3.2 | 0.00 | 0.00 | 0.00 | 53 | 1011.4 |
| 20260906034938 | 24 | 135 | 0.0 | 3.2 | 0.00 | 0.00 | 0.00 | 53 | 1011.3 |
| 20260906034838 | 25 | 135 | 0.0 | 3.2 | 0.00 | 0.00 | 0.00 | 51 | 1011.4 |
| 20260906034738 | 25 | 135 | 0.0 | 3.2 | 0.00 | 0.00 | 0.00 | 51 | 1011.5 |
| 20260906034638 | 25 | 135 | 0.0 | 3.2 | 0.00 | 0.00 | 0.00 | 51 | 1011.4 |
| 20260906034538 | 26 | 134 | 1.6 | 3.2 | 0.00 | 0.00 | 0.00 | 54 | 1011.3 |
| 20260906034438 | 26 | 130 | 1.6 | 3.2 | 0.00 | 0.00 | 0.00 | 54 | 1011.6 |
| 20260906034338 | 26 | 120 | 1.6 | 6.4 | 0.00 | 0.00 | 0.00 | 54 | 1011.4 |
| 20260906034238 | 26 | 112 | 1.6 | 6.4 | 0.00 | 0.00 | 0.00 | 54 | 1011.5 |
| 20260906034138 | 26 | 108 | 1.6 | 6.4 | 0.00 | 0.00 | 0.00 | 54 | 1011.6 |
| 20260906034038 | 26 | 106 | 1.6 | 6.4 | 0.00 | 0.00 | 0.00 | 54 | 1011.5 |
| 20260906033938 | 26 | 101 | 1.6 | 9.7 | 0.00 | 0.00 | 0.00 | 54 | 1011.4 |
| 20260906033837 | 26 | 98 | 1.6 | 9.7 | 0.00 | 0.00 | 0.00 | 54 | 1011.4 |
| 20260906033738 | 26 | 100 | 1.6 | 9.7 | 0.00 | 0.00 | 0.00 | 54 | 1011.4 |
| 20260906033638 | 26 | 100 | 1.6 | 11.3 | 0.00 | 0.00 | 0.00 | 54 | 1011.4 |
| 20260906033537 | 26 | 105 | 0.0 | 11.3 | 0.00 | 0.00 | 0.00 | 54 | 1011.4 |
| 20260906033437 | 26 | 108 | 1.6 | 11.3 | 0.00 | 0.00 | 0.00 | 54 | 1011.4 |
| 20260906033338 | 26 | 109 | 3.2 | 11.3 | 0.00 | 0.00 | 0.00 | 54 | 1011.4 |
| 20260906033237 | 26 | 114 | 3.2 | 11.3 | 0.00 | 0.00 | 0.00 | 53 | 1011.4 |
| 20260906033137 | 26 | 117 | 3.2 | 11.3 | 0.00 | 0.00 | 0.00 | 53 | 1011.4 |
| 20260906033037 | 26 | 119 | 3.2 | 11.3 | 0.00 | 0.00 | 0.00 | 53 | 1011.4 |
| 20260906032937 | 26 | 123 | 4.8 | 11.3 | 0.00 | 0.00 | 0.00 | 53 | 1011.3 |
| 20260906032837 | 26 | 126 | 3.2 | 11.3 | 0.00 | 0.00 | 0.00 | 53 | 1011.5 |
| 20260906032737 | 26 | 128 | 4.8 | 14.5 | 0.00 | 0.00 | 0.00 | 52 | 1011.4 |
| 20260906032636 | 26 | 130 | 6.4 | 14.5 | 0.00 | 0.00 | 0.00 | 52 | 1011.3 |
| 20260906032536 | 26 | 130 | 6.4 | 14.5 | 0.00 | 0.00 | 0.00 | 52 | 1011.3 |
| 20260906032437 | 26 | 130 | 6.4 | 14.5 | 0.00 | 0.00 | 0.00 | 51 | 1011.1 |
| 20260906032337 | 26 | 133 | 4.8 | 14.5 | 0.00 | 0.00 | 0.00 | 51 | 1011.3 |
| 20260906032236 | 26 | 133 | 4.8 | 16.1 | 0.00 | 0.00 | 0.00 | 52 | 1011.5 |
| 20260906032136 | 26 | 133 | 4.8 | 17.7 | 0.00 | 0.00 | 0.00 | 52 | 1011.3 |
| 20260906032036 | 26 | 133 | 6.4 | 17.7 | 0.00 | 0.00 | 0.00 | 50 | 1011.4 |
| 20260906031936 | 26 | 134 | 6.4 | 17.7 | 0.00 | 0.00 | 0.00 | 50 | 1011.3 |
| 20260906031836 | 26 | 135 | 6.4 | 17.7 | 0.00 | 0.00 | 0.00 | 49 | 1011.3 |
| 20260906031736 | 26 | 136 | 6.4 | 17.7 | 0.00 | 0.00 | 0.00 | 49 | 1011.3 |
| 20260906031636 | 26 | 137 | 6.4 | 17.7 | 0.00 | 0.00 | 0.00 | 48 | 1011.2 |
| 20260906031536 | 26 | 137 | 8.0 | 17.7 | 0.00 | 0.00 | 0.00 | 48 | 1011.2 |
| 20260906031436 | 26 | 137 | 11.3 | 17.7 | 0.00 | 0.00 | 0.00 | 47 | 1011.2 |
| 20260906031336 | 26 | 137 | 9.7 | 17.7 | 0.00 | 0.00 | 0.00 | 48 | 1011.3 |
| 20260906031236 | 26 | 137 | 11.3 | 17.7 | 0.00 | 0.00 | 0.00 | 48 | 1011.1 |
| 20260906031136 | 26 | 137 | 11.3 | 17.7 | 0.00 | 0.00 | 0.00 | 47 | 1011.3 |
| 20260906031036 | 26 | 137 | 6.4 | 17.7 | 0.00 | 0.00 | 0.00 | 47 | 1011.2 |
| 20260906030936 | 26 | 137 | 11.3 | 17.7 | 0.00 | 0.00 | 0.00 | 47 | 1011.2 |
| 20260906030836 | 26 | 137 | 6.4 | 17.7 | 0.00 | 0.00 | 0.00 | 48 | 1011.1 |
| 20260906030736 | 26 | 136 | 6.4 | 17.7 | 0.00 | 0.00 | 0.00 | 48 | 1011.3 |
| 20260906030636 | 26 | 135 | 9.7 | 17.7 | 0.00 | 0.00 | 0.00 | 48 | 1011.2 |
| 20260906030536 | 26 | 135 | 9.7 | 17.7 | 0.00 | 0.00 | 0.00 | 48 | 1011.2 |
| 20260906030436 | 26 | 135 | 11.3 | 17.7 | 0.00 | 0.00 | 0.00 | 48 | 1011.2 |
| 20260906030336 | 26 | 135 | 12.9 | 17.7 | 0.00 | 0.00 | 0.00 | 47 | 1011.1 |
| 20260906030235 | 26 | 135 | 12.9 | 17.7 | 0.00 | 0.00 | 0.00 | 47 | 1011.4 |
| 20260906030135 | 26 | 135 | 11.3 | 17.7 | 0.00 | 0.00 | 0.00 | 47 | 1011.1 |
| 20260906030036 | 26 | 137 | 12.9 | 17.7 | 0.00 | 0.00 | 0.00 | 47 | 1011.2 |
| 20260906025935 | 26 | 139 | 11.3 | 17.7 | 0.00 | 0.00 | 0.00 | 47 | 1011.4 |
| 20260906025835 | 26 | 141 | 11.3 | 17.7 | 0.00 | 0.00 | 0.00 | 48 | 1011.2 |
| 20260906025735 | 26 | 142 | 11.3 | 16.1 | 0.00 | 0.00 | 0.00 | 48 | 1011.2 |
| 20260906025635 | 26 | 142 | 11.3 | 16.1 | 0.00 | 0.00 | 0.00 | 48 | 1011.2 |
| 20260906025535 | 26 | 142 | 9.7 | 14.5 | 0.00 | 0.00 | 0.00 | 48 | 1011.2 |
| 20260906025435 | 26 | 143 | 9.7 | 14.5 | 0.00 | 0.00 | 0.00 | 48 | 1011.3 |
| 20260906025335 | 26 | 143 | 9.7 | 14.5 | 0.00 | 0.00 | 0.00 | 49 | 1011.4 |
| 20260906025235 | 26 | 143 | 9.7 | 12.9 | 0.00 | 0.00 | 0.00 | 48 | 1011.3 |
| 20260906025135 | 26 | 143 | 9.7 | 12.9 | 0.00 | 0.00 | 0.00 | 48 | 1011.2 |
| 20260906025035 | 26 | 141 | 8.0 | 12.9 | 0.00 | 0.00 | 0.00 | 49 | 1011.3 |
| 20260906024935 | 26 | 139 | 9.7 | 12.9 | 0.00 | 0.00 | 0.00 | 49 | 1011.5 |
| 20260906024835 | 26 | 135 | 8.0 | 12.9 | 0.00 | 0.00 | 0.00 | 49 | 1011.3 |
| 20260906024735 | 26 | 135 | 6.4 | 12.9 | 0.00 | 0.00 | 0.00 | 49 | 1011.3 |
| 20260906024635 | 26 | 135 | 6.4 | 11.3 | 0.00 | 0.00 | 0.00 | 50 | 1011.2 |
| 20260906024535 | 26 | 135 | 6.4 | 11.3 | 0.00 | 0.00 | 0.00 | 50 | 1011.3 |
| 20260906024435 | 26 | 135 | 6.4 | 11.3 | 0.00 | 0.00 | 0.00 | 50 | 1011.2 |
| 20260906024335 | 26 | 135 | 6.4 | 11.3 | 0.00 | 0.00 | 0.00 | 50 | 1011.2 |
| 20260906024235 | 26 | 135 | 6.4 | 11.3 | 0.00 | 0.00 | 0.00 | 50 | 1011.3 |
| 20260906024135 | 26 | 135 | 4.8 | 11.3 | 0.00 | 0.00 | 0.00 | 50 | 1011.4 |
| 20260906024035 | 26 | 135 | 6.4 | 11.3 | 0.00 | 0.00 | 0.00 | 50 | 1011.3 |
| 20260906023935 | 26 | 135 | 6.4 | 9.7 | 0.00 | 0.00 | 0.00 | 50 | 1011.3 |
| 20260906023835 | 26 | 135 | 4.8 | 8.0 | 0.00 | 0.00 | 0.00 | 51 | 1011.4 |
| 20260906023734 | 26 | 135 | 6.4 | 8.0 | 0.00 | 0.00 | 0.00 | 51 | 1011.3 |
| 20260906023635 | 26 | 137 | 4.8 | 8.0 | 0.00 | 0.00 | 0.00 | 51 | 1011.4 |
| 20260906023535 | 26 | 138 | 6.4 | 8.0 | 0.00 | 0.00 | 0.00 | 52 | 1011.4 |
| 20260906023435 | 26 | 139 | 4.8 | 8.0 | 0.00 | 0.00 | 0.00 | 52 | 1011.5 |
| 20260906023334 | 26 | 139 | 4.8 | 8.0 | 0.00 | 0.00 | 0.00 | 52 | 1011.3 |
| 20260906023234 | 26 | 139 | 4.8 | 6.4 | 0.00 | 0.00 | 0.00 | 52 | 1011.3 |
| 20260906023135 | 26 | 139 | 4.8 | 6.4 | 0.00 | 0.00 | 0.00 | 52 | 1011.5 |
| 20260906023035 | 26 | 142 | 4.8 | 6.4 | 0.00 | 0.00 | 0.00 | 52 | 1011.4 |
| 20260906022934 | 26 | 146 | 3.2 | 6.4 | 0.00 | 0.00 | 0.00 | 52 | 1011.3 |
| 20260906022834 | 26 | 150 | 4.8 | 6.4 | 0.00 | 0.00 | 0.00 | 52 | 1011.4 |
| 20260906022734 | 26 | 155 | 3.2 | 6.4 | 0.00 | 0.00 | 0.00 | 52 | 1011.3 |
| 20260906022634 | 26 | 157 | 3.2 | 6.4 | 0.00 | 0.00 | 0.00 | 52 | 1011.2 |
| 20260906022534 | 26 | 158 | 3.2 | 6.4 | 0.00 | 0.00 | 0.00 | 53 | 1011.2 |
| 20260906022434 | 26 | 160 | 3.2 | 6.4 | 0.00 | 0.00 | 0.00 | 53 | 1011.3 |
| 20260906022334 | 26 | 166 | 3.2 | 6.4 | 0.00 | 0.00 | 0.00 | 53 | 1011.2 |
| 20260906022234 | 26 | 168 | 3.2 | 6.4 | 0.00 | 0.00 | 0.00 | 53 | 1011.3 |
| 20260906022134 | 26 | 173 | 1.6 | 6.4 | 0.00 | 0.00 | 0.00 | 53 | 1011.3 |
| 20260906022034 | 26 | 173 | 1.6 | 6.4 | 0.00 | 0.00 | 0.00 | 52 | 1011.4 |
| 20260906021934 | 26 | 173 | 3.2 | 6.4 | 0.00 | 0.00 | 0.00 | 52 | 1011.4 |
| 20260906021834 | 26 | 173 | 3.2 | 6.4 | 0.00 | 0.00 | 0.00 | 52 | 1011.4 |
| 20260906021734 | 26 | 173 | 1.6 | 6.4 | 0.00 | 0.00 | 0.00 | 52 | 1011.3 |
| 20260906021634 | 26 | 172 | 1.6 | 6.4 | 0.00 | 0.00 | 0.00 | 52 | 1011.3 |
| 20260906021534 | 26 | 172 | 3.2 | 6.4 | 0.00 | 0.00 | 0.00 | 52 | 1011.3 |
| 20260906021433 | 26 | 176 | 3.2 | 6.4 | 0.00 | 0.00 | 0.00 | 52 | 1011.5 |
| 20260906021333 | 26 | 176 | 1.6 | 6.4 | 0.00 | 0.00 | 0.00 | 52 | 1011.2 |
| 20260906021233 | 26 | 180 | 1.6 | 6.4 | 0.00 | 0.00 | 0.00 | 52 | 1011.5 |
| 20260906021133 | 26 | 180 | 3.2 | 6.4 | 0.00 | 0.00 | 0.00 | 52 | 1011.5 |
| 20260906021033 | 25 | 180 | 1.6 | 6.4 | 0.00 | 0.00 | 0.00 | 52 | 1011.5 |
| 20260906020933 | 25 | 180 | 3.2 | 6.4 | 0.00 | 0.00 | 0.00 | 52 | 1011.6 |
| 20260906020833 | 25 | 180 | 1.6 | 3.2 | 0.00 | 0.00 | 0.00 | 52 | 1011.5 |
| 20260906020733 | 25 | 360 | 0.0 | 3.2 | 0.00 | 0.00 | 0.00 | 52 | 1011.6 |
| 20260906020632 | 25 | 360 | 0.0 | 3.2 | 0.00 | 0.00 | 0.00 | 53 | 1011.5 |
| 20260906020533 | 26 | 360 | 0.0 | 3.2 | 0.00 | 0.00 | 0.00 | 53 | 1011.5 |
| 20260906020432 | 26 | 360 | 0.0 | 3.2 | 0.00 | 0.00 | 0.00 | 53 | 1011.3 |
| 20260906020332 | 26 | 360 | 0.0 | 3.2 | 0.00 | 0.00 | 0.00 | 53 | 1011.3 |
| 20260906020232 | 26 | 360 | 0.0 | 3.2 | 0.00 | 0.00 | 0.00 | 52 | 1011.3 |
| 20260906020132 | 26 | 360 | 0.0 | 3.2 | 0.00 | 0.00 | 0.00 | 52 | 1011.2 |
| 20260906020032 | 26 | 360 | 0.0 | 4.8 | 0.00 | 0.00 | 0.00 | 52 | 1011.5 |
| 20260906015932 | 26 | 356 | 0.0 | 4.8 | 0.00 | 0.00 | 0.00 | 52 | 1011.2 |
| 20260906015831 | 26 | 348 | 0.0 | 4.8 | 0.00 | 0.00 | 0.00 | 52 | 1011.4 |
| 20260906015731 | 26 | 346 | 0.0 | 4.8 | 0.00 | 0.00 | 0.00 | 52 | 1011.4 |
| 20260906015631 | 26 | 345 | 0.0 | 4.8 | 0.00 | 0.00 | 0.00 | 52 | 1011.5 |
| 20260906015531 | 26 | 334 | 0.0 | 4.8 | 0.00 | 0.00 | 0.00 | 52 | 1011.5 |
| 20260906015431 | 26 | 329 | 0.0 | 4.8 | 0.00 | 0.00 | 0.00 | 52 | 1011.5 |
| 20260906015331 | 26 | 324 | 1.6 | 4.8 | 0.00 | 0.00 | 0.00 | 51 | 1011.3 |
| 20260906015231 | 26 | 335 | 0.0 | 4.8 | 0.00 | 0.00 | 0.00 | 51 | 1011.3 |
| 20260906015131 | 26 | 342 | 0.0 | 4.8 | 0.00 | 0.00 | 0.00 | 51 | 1011.4 |
| 20260906015031 | 26 | 336 | 1.6 | 4.8 | 0.00 | 0.00 | 0.00 | 51 | 1011.4 |
| 20260906014931 | 26 | 333 | 0.0 | 4.8 | 0.00 | 0.00 | 0.00 | 51 | 1011.6 |
| 20260906014831 | 26 | 343 | 0.0 | 4.8 | 0.00 | 0.00 | 0.00 | 51 | 1011.5 |
| 20260906014731 | 26 | 337 | 0.0 | 6.4 | 0.00 | 0.00 | 0.00 | 51 | 1011.3 |
| 20260906014630 | 26 | 332 | 0.0 | 6.4 | 0.00 | 0.00 | 0.00 | 50 | 1011.6 |
| 20260906014531 | 26 | 335 | 0.0 | 6.4 | 0.00 | 0.00 | 0.00 | 50 | 1011.4 |
| 20260906014431 | 26 | 333 | 0.0 | 6.4 | 0.00 | 0.00 | 0.00 | 50 | 1011.4 |
| 20260906014330 | 26 | 333 | 1.6 | 6.4 | 0.00 | 0.00 | 0.00 | 50 | 1011.4 |
| 20260906014230 | 26 | 330 | 1.6 | 6.4 | 0.00 | 0.00 | 0.00 | 51 | 1011.4 |
| 20260906014130 | 26 | 326 | 1.6 | 6.4 | 0.00 | 0.00 | 0.00 | 51 | 1011.5 |
| 20260906014030 | 26 | 319 | 1.6 | 6.4 | 0.00 | 0.00 | 0.00 | 50 | 1011.4 |
| 20260906013930 | 26 | 318 | 1.6 | 6.4 | 0.00 | 0.00 | 0.00 | 50 | 1011.5 |
| 20260906013830 | 26 | 314 | 1.6 | 6.4 | 0.00 | 0.00 | 0.00 | 50 | 1011.4 |
| 20260906013730 | 26 | 311 | 3.2 | 6.4 | 0.00 | 0.00 | 0.00 | 50 | 1011.5 |
| 20260906013630 | 26 | 315 | 1.6 | 6.4 | 0.00 | 0.00 | 0.00 | 51 | 1011.5 |
| 20260906013530 | 26 | 328 | 0.0 | 6.4 | 0.00 | 0.00 | 0.00 | 50 | 1011.6 |
| 20260906013430 | 26 | 344 | 0.0 | 6.4 | 0.00 | 0.00 | 0.00 | 50 | 1011.4 |
| 20260906013330 | 26 | 348 | 0.0 | 6.4 | 0.00 | 0.00 | 0.00 | 50 | 1011.5 |
| 20260906013230 | 26 | 349 | 0.0 | 6.4 | 0.00 | 0.00 | 0.00 | 50 | 1011.4 |
| 20260906013130 | 26 | 351 | 1.6 | 6.4 | 0.00 | 0.00 | 0.00 | 50 | 1011.6 |
| 20260906013030 | 26 | 3 | 3.2 | 6.4 | 0.00 | 0.00 | 0.00 | 51 | 1011.5 |
| 20260906012930 | 26 | 20 | 1.6 | 3.2 | 0.00 | 0.00 | 0.00 | 51 | 1011.2 |
| 20260906012829 | 26 | 15 | 0.0 | 3.2 | 0.00 | 0.00 | 0.00 | 51 | 1011.4 |
| 20260906012730 | 26 | 11 | 0.0 | 3.2 | 0.00 | 0.00 | 0.00 | 51 | 1011.5 |
| 20260906012630 | 26 | 353 | 0.0 | 3.2 | 0.00 | 0.00 | 0.00 | 51 | 1011.4 |
| 20260906012529 | 26 | 348 | 0.0 | 3.2 | 0.00 | 0.00 | 0.00 | 51 | 1011.5 |
| 20260906012430 | 26 | 346 | 0.0 | 3.2 | 0.00 | 0.00 | 0.00 | 51 | 1011.4 |
| 20260906012329 | 26 | 343 | 0.0 | 3.2 | 0.00 | 0.00 | 0.00 | 51 | 1011.5 |
| 20260906012229 | 26 | 341 | 0.0 | 3.2 | 0.00 | 0.00 | 0.00 | 51 | 1011.3 |
| 20260906012130 | 26 | 333 | 0.0 | 3.2 | 0.00 | 0.00 | 0.00 | 51 | 1011.5 |
| 20260906012029 | 26 | 346 | 1.6 | 3.2 | 0.00 | 0.00 | 0.00 | 51 | 1011.5 |
| 20260906011929 | 26 | 339 | 0.0 | 3.2 | 0.00 | 0.00 | 0.00 | 51 | 1011.6 |
| 20260906011829 | 26 | 303 | 0.0 | 3.2 | 0.00 | 0.00 | 0.00 | 51 | 1011.5 |
| 20260906011729 | 26 | 178 | 0.0 | 3.2 | 0.00 | 0.00 | 0.00 | 51 | 1011.6 |
| 20260906011629 | 26 | 134 | 0.0 | 6.4 | 0.00 | 0.00 | 0.00 | 50 | 1011.6 |
| 20260906011529 | 26 | 134 | 0.0 | 6.4 | 0.00 | 0.00 | 0.00 | 50 | 1011.3 |
| 20260906011429 | 26 | 137 | 0.0 | 6.4 | 0.00 | 0.00 | 0.00 | 50 | 1011.3 |
| 20260906011329 | 26 | 144 | 0.0 | 6.4 | 0.00 | 0.00 | 0.00 | 49 | 1011.5 |
| 20260906011229 | 25 | 148 | 0.0 | 6.4 | 0.00 | 0.00 | 0.00 | 49 | 1011.5 |
| 20260906011129 | 25 | 151 | 0.0 | 6.4 | 0.00 | 0.00 | 0.00 | 49 | 1011.4 |
| 20260906011029 | 25 | 151 | 0.0 | 6.4 | 0.00 | 0.00 | 0.00 | 49 | 1011.5 |
| 20260906010928 | 25 | 149 | 1.6 | 6.4 | 0.00 | 0.00 | 0.00 | 49 | 1011.6 |
| 20260906010828 | 25 | 146 | 1.6 | 6.4 | 0.00 | 0.00 | 0.00 | 50 | 1011.5 |
| 20260906010728 | 25 | 145 | 1.6 | 6.4 | 0.00 | 0.00 | 0.00 | 50 | 1011.4 |
| 20260906010628 | 25 | 156 | 3.2 | 6.4 | 0.00 | 0.00 | 0.00 | 52 | 1011.4 |
| 20260906010528 | 25 | 165 | 3.2 | 6.4 | 0.00 | 0.00 | 0.00 | 52 | 1011.5 |
| 20260906010428 | 25 | 180 | 3.2 | 4.8 | 0.00 | 0.00 | 0.00 | 52 | 1011.5 |
| 20260906010328 | 25 | 180 | 3.2 | 3.2 | 0.00 | 0.00 | 0.00 | 53 | 1011.7 |
| 20260906010228 | 25 | 180 | 1.6 | 3.2 | 0.00 | 0.00 | 0.00 | 54 | 1011.6 |
| 20260906010128 | 25 | 0 | 0.0 | 0.0 | 0.00 | 0.00 | 0.00 | 54 | 1011.5 |
| 20260906010028 | 25 | 90 | 0.0 | 3.2 | 0.00 | 0.00 | 0.00 | 54 | 1011.6 |
| 20260906005927 | 25 | 90 | 0.0 | 3.2 | 0.00 | 0.00 | 0.00 | 54 | 1011.8 |
| 20260906005828 | 25 | 86 | 0.0 | 6.4 | 0.00 | 0.00 | 0.00 | 53 | 1011.6 |
| 20260906005728 | 25 | 79 | 0.0 | 6.4 | 0.00 | 0.00 | 0.00 | 53 | 1011.6 |
| 20260906005627 | 25 | 71 | 0.0 | 6.4 | 0.00 | 0.00 | 0.00 | 52 | 1011.5 |
| 20260906005527 | 25 | 55 | 0.0 | 6.4 | 0.00 | 0.00 | 0.00 | 51 | 1011.5 |
| 20260906005427 | 25 | 59 | 0.0 | 6.4 | 0.00 | 0.00 | 0.00 | 51 | 1011.6 |
| 20260906005327 | 25 | 64 | 0.0 | 6.4 | 0.00 | 0.00 | 0.00 | 52 | 1011.5 |
| 20260906005227 | 26 | 67 | 0.0 | 6.4 | 0.00 | 0.00 | 0.00 | 52 | 1011.7 |
| 20260906005127 | 26 | 70 | 0.0 | 6.4 | 0.00 | 0.00 | 0.00 | 52 | 1011.5 |
| 20260906005027 | 26 | 68 | 0.0 | 6.4 | 0.00 | 0.00 | 0.00 | 52 | 1011.5 |
| 20260906004927 | 26 | 69 | 1.6 | 6.4 | 0.00 | 0.00 | 0.00 | 52 | 1011.5 |
| 20260906004827 | 26 | 70 | 3.2 | 6.4 | 0.00 | 0.00 | 0.00 | 52 | 1011.4 |
| 20260906004727 | 26 | 74 | 3.2 | 6.4 | 0.00 | 0.00 | 0.00 | 52 | 1011.5 |
| 20260906004627 | 26 | 79 | 1.6 | 6.4 | 0.00 | 0.00 | 0.00 | 52 | 1011.5 |
| 20260906004527 | 26 | 88 | 1.6 | 6.4 | 0.00 | 0.00 | 0.00 | 52 | 1011.5 |
| 20260906004426 | 26 | 88 | 3.2 | 6.4 | 0.00 | 0.00 | 0.00 | 52 | 1011.5 |
| 20260906004327 | 26 | 88 | 3.2 | 6.4 | 0.00 | 0.00 | 0.00 | 52 | 1011.5 |
| 20260906004226 | 26 | 87 | 1.6 | 6.4 | 0.00 | 0.00 | 0.00 | 52 | 1011.6 |
| 20260906004127 | 26 | 86 | 3.2 | 6.4 | 0.00 | 0.00 | 0.00 | 51 | 1011.5 |
| 20260906004027 | 26 | 85 | 3.2 | 6.4 | 0.00 | 0.00 | 0.00 | 51 | 1011.4 |
| 20260906003926 | 26 | 85 | 3.2 | 6.4 | 0.00 | 0.00 | 0.00 | 50 | 1011.4 |
| 20260906003826 | 26 | 85 | 3.2 | 6.4 | 0.00 | 0.00 | 0.00 | 50 | 1011.5 |
| 20260906003726 | 26 | 83 | 3.2 | 6.4 | 0.00 | 0.00 | 0.00 | 50 | 1011.5 |
| 20260906003626 | 26 | 78 | 3.2 | 6.4 | 0.00 | 0.00 | 0.00 | 50 | 1011.5 |
| 20260906003526 | 26 | 77 | 1.6 | 6.4 | 0.00 | 0.00 | 0.00 | 49 | 1011.5 |
| 20260906003426 | 26 | 77 | 1.6 | 6.4 | 0.00 | 0.00 | 0.00 | 49 | 1011.5 |
| 20260906003326 | 26 | 77 | 1.6 | 6.4 | 0.00 | 0.00 | 0.00 | 49 | 1011.5 |
| 20260906003226 | 26 | 77 | 1.6 | 6.4 | 0.00 | 0.00 | 0.00 | 49 | 1011.5 |
| 20260906003126 | 26 | 78 | 3.2 | 6.4 | 0.00 | 0.00 | 0.00 | 50 | 1011.5 |
| 20260906003026 | 26 | 81 | 3.2 | 6.4 | 0.00 | 0.00 | 0.00 | 50 | 1011.4 |
| 20260906002926 | 26 | 81 | 3.2 | 6.4 | 0.00 | 0.00 | 0.00 | 50 | 1011.5 |
| 20260906002825 | 26 | 79 | 3.2 | 6.4 | 0.00 | 0.00 | 0.00 | 50 | 1011.3 |
| 20260906002725 | 26 | 81 | 3.2 | 4.8 | 0.00 | 0.00 | 0.00 | 51 | 1011.3 |
| 20260906002626 | 26 | 89 | 3.2 | 4.8 | 0.00 | 0.00 | 0.00 | 51 | 1011.5 |
| 20260906002526 | 26 | 90 | 1.6 | 6.4 | 0.00 | 0.00 | 0.00 | 51 | 1011.2 |
| 20260906002426 | 26 | 90 | 3.2 | 6.4 | 0.00 | 0.00 | 0.00 | 51 | 1011.5 |
| 20260906002325 | 26 | 90 | 0.0 | 6.4 | 0.00 | 0.00 | 0.00 | 51 | 1011.1 |
| 20260906002225 | 26 | 90 | 0.0 | 6.4 | 0.00 | 0.00 | 0.00 | 51 | 1011.3 |
| 20260906002125 | 26 | 90 | 0.0 | 6.4 | 0.00 | 0.00 | 0.00 | 51 | 1011.3 |
| 20260906002025 | 26 | 90 | 0.0 | 6.4 | 0.00 | 0.00 | 0.00 | 52 | 1011.3 |
| 20260906001925 | 26 | 90 | 0.0 | 6.4 | 0.00 | 0.00 | 0.00 | 52 | 1011.4 |
| 20260906001825 | 26 | 90 | 0.0 | 6.4 | 0.00 | 0.00 | 0.00 | 52 | 1011.2 |
| 20260906001725 | 25 | 90 | 1.6 | 6.4 | 0.00 | 0.00 | 0.00 | 52 | 1011.1 |
| 20260906001625 | 25 | 90 | 1.6 | 6.4 | 0.00 | 0.00 | 0.00 | 53 | 1011.4 |
| 20260906001525 | 25 | 90 | 1.6 | 6.4 | 0.00 | 0.00 | 0.00 | 52 | 1011.4 |
| 20260906001425 | 25 | 90 | 1.6 | 3.2 | 0.00 | 0.00 | 0.00 | 52 | 1011.3 |
| 20260906001325 | 25 | 0 | 0.0 | 0.0 | 0.00 | 0.00 | 0.00 | 52 | 1011.2 |
| 20260906001225 | 25 | 0 | 0.0 | 0.0 | 0.00 | 0.00 | 0.00 | 52 | 1011.3 |
| 20260906001125 | 25 | 0 | 0.0 | 0.0 | 0.00 | 0.00 | 0.00 | 52 | 1011.4 |
| 20260906001024 | 25 | 0 | 0.0 | 0.0 | 0.00 | 0.00 | 0.00 | 52 | 1011.2 |
| 20260906000924 | 25 | 0 | 0.0 | 0.0 | 0.00 | 0.00 | 0.00 | 52 | 1011.4 |
| 20260906000824 | 25 | 0 | 0.0 | 0.0 | 0.00 | 0.00 | 0.00 | 51 | 1011.2 |
| 20260906000725 | 25 | 0 | 0.0 | 0.0 | 0.00 | 0.00 | 0.00 | 51 | 1011.3 |
| 20260906000624 | 25 | 0 | 0.0 | 0.0 | 0.00 | 0.00 | 0.00 | 51 | 1011.3 |
| 20260906000524 | 25 | 0 | 0.0 | 0.0 | 0.00 | 0.00 | 0.00 | 51 | 1011.4 |
| 20260906000425 | 25 | 0 | 0.0 | 0.0 | 0.00 | 0.00 | 0.00 | 51 | 1011.5 |
| 20260906000326 | 25 | 0 | 0.0 | 0.0 | 0.00 | 0.00 | 0.00 | 51 | 1011.3 |
| 20260906000226 | 25 | 0 | 0.0 | 0.0 | 0.00 | 0.00 | 0.00 | 51 | 1011.2 |
| 20260906000124 | 25 | 0 | 0.0 | 0.0 | 0.00 | 0.00 | 0.00 | 51 | 1011.3 |
| 20260906000024 | 25 | 0 | 0.0 | 0.0 | 0.00 | 0.00 | 0.00 | 51 | 1011.3 |
| 20260905235924 | 25 | 0 | 0.0 | 0.0 | 0.00 | 0.00 | 0.00 | 50 | 1011.3 |
| 20260905235824 | 25 | 0 | 0.0 | 0.0 | 0.00 | 0.00 | 0.00 | 51 | 1011.3 |
| 20260905235724 | 25 | 0 | 0.0 | 0.0 | 0.00 | 0.00 | 0.00 | 51 | 1011.5 |
| 20260905235624 | 25 | 0 | 0.0 | 0.0 | 0.00 | 0.00 | 0.00 | 52 | 1011.3 |
| 20260905235524 | 25 | 0 | 0.0 | 0.0 | 0.00 | 0.00 | 0.00 | 52 | 1011.4 |
| 20260905235424 | 25 | 0 | 0.0 | 0.0 | 0.00 | 0.00 | 0.00 | 52 | 1011.2 |
| 20260905235324 | 25 | 0 | 0.0 | 0.0 | 0.00 | 0.00 | 0.00 | 53 | 1011.5 |
| 20260905235242 | 25 | 0 | 0.0 | 0.0 | 0.00 | 0.00 | 0.00 | 53 | 1011.4 |
| 20260905235124 | 25 | 0 | 0.0 | 0.0 | 0.00 | 0.00 | 0.00 | 53 | 1011.3 |
| 20260905235023 | 25 | 0 | 0.0 | 0.0 | 0.00 | 0.00 | 0.00 | 53 | 1011.3 |
| 20260905234923 | 25 | 0 | 0.0 | 0.0 | 0.00 | 0.00 | 0.00 | 52 | 1011.5 |
| 20260905234824 | 25 | 0 | 0.0 | 0.0 | 0.00 | 0.00 | 0.00 | 52 | 1011.1 |
| 20260905234723 | 25 | 0 | 0.0 | 0.0 | 0.00 | 0.00 | 0.00 | 52 | 1011.4 |
| 20260905234623 | 25 | 0 | 0.0 | 0.0 | 0.00 | 0.00 | 0.00 | 52 | 1011.3 |
| 20260905234523 | 25 | 135 | 0.0 | 1.6 | 0.00 | 0.00 | 0.00 | 52 | 1011.3 |
| 20260905234423 | 25 | 135 | 0.0 | 1.6 | 0.00 | 0.00 | 0.00 | 52 | 1011.6 |
| 20260905234323 | 25 | 135 | 0.0 | 3.2 | 0.00 | 0.00 | 0.00 | 53 | 1011.4 |
| 20260905234223 | 25 | 135 | 0.0 | 3.2 | 0.00 | 0.00 | 0.00 | 53 | 1011.5 |
| 20260905234123 | 25 | 135 | 0.0 | 3.2 | 0.00 | 0.00 | 0.00 | 53 | 1011.4 |
| 20260905234023 | 25 | 132 | 0.0 | 3.2 | 0.00 | 0.00 | 0.00 | 53 | 1011.5 |
| 20260905233923 | 25 | 132 | 0.0 | 3.2 | 0.00 | 0.00 | 0.00 | 52 | 1011.3 |
| 20260905233823 | 25 | 132 | 0.0 | 3.2 | 0.00 | 0.00 | 0.00 | 52 | 1011.4 |
| 20260905233723 | 25 | 132 | 0.0 | 3.2 | 0.00 | 0.00 | 0.00 | 52 | 1011.6 |
| 20260905233623 | 25 | 132 | 0.0 | 3.2 | 0.00 | 0.00 | 0.00 | 52 | 1011.4 |
| 20260905233522 | 25 | 132 | 0.0 | 3.2 | 0.00 | 0.00 | 0.00 | 53 | 1011.4 |
| 20260905233422 | 25 | 131 | 0.0 | 3.2 | 0.00 | 0.00 | 0.00 | 53 | 1011.4 |
| 20260905233323 | 25 | 130 | 1.6 | 3.2 | 0.00 | 0.00 | 0.00 | 55 | 1011.2 |
| 20260905233223 | 25 | 127 | 1.6 | 3.2 | 0.00 | 0.00 | 0.00 | 55 | 1011.3 |
| 20260905233122 | 25 | 106 | 1.6 | 3.2 | 0.00 | 0.00 | 0.00 | 55 | 1011.2 |
| 20260905233023 | 25 | 90 | 0.0 | 1.6 | 0.00 | 0.00 | 0.00 | 55 | 1011.4 |
| 20260905232922 | 25 | 90 | 0.0 | 1.6 | 0.00 | 0.00 | 0.00 | 58 | 1011.2 |
| 20260905232822 | 25 | 90 | 0.0 | 3.2 | 0.00 | 0.00 | 0.00 | 58 | 1011.3 |
| 20260905232722 | 25 | 90 | 0.0 | 4.8 | 0.00 | 0.00 | 0.00 | 58 | 1011.3 |
| 20260905232622 | 25 | 90 | 0.0 | 4.8 | 0.00 | 0.00 | 0.00 | 58 | 1011.5 |
| 20260905232522 | 25 | 90 | 0.0 | 6.4 | 0.00 | 0.00 | 0.00 | 57 | 1011.4 |
| 20260905232422 | 25 | 90 | 0.0 | 6.4 | 0.00 | 0.00 | 0.00 | 57 | 1011.3 |
| 20260905232322 | 25 | 90 | 0.0 | 6.4 | 0.00 | 0.00 | 0.00 | 57 | 1011.4 |
| 20260905232222 | 25 | 90 | 0.0 | 6.4 | 0.00 | 0.00 | 0.00 | 56 | 1011.6 |
| 20260905232122 | 25 | 90 | 0.0 | 6.4 | 0.00 | 0.00 | 0.00 | 56 | 1011.4 |
| 20260905232022 | 25 | 90 | 0.0 | 6.4 | 0.00 | 0.00 | 0.00 | 56 | 1011.3 |
| 20260905231922 | 25 | 90 | 0.0 | 6.4 | 0.00 | 0.00 | 0.00 | 56 | 1011.2 |
| 20260905231822 | 25 | 90 | 1.6 | 6.4 | 0.00 | 0.00 | 0.00 | 55 | 1011.4 |
| 20260905231722 | 25 | 90 | 1.6 | 6.4 | 0.00 | 0.00 | 0.00 | 55 | 1011.4 |
| 20260905231622 | 25 | 90 | 1.6 | 6.4 | 0.00 | 0.00 | 0.00 | 55 | 1011.5 |
| 20260905231522 | 25 | 90 | 3.2 | 6.4 | 0.00 | 0.00 | 0.00 | 56 | 1011.4 |
| 20260905231422 | 25 | 90 | 3.2 | 6.4 | 0.00 | 0.00 | 0.00 | 56 | 1011.4 |
| 20260905231322 | 25 | 90 | 3.2 | 6.4 | 0.00 | 0.00 | 0.00 | 57 | 1011.5 |
| 20260905231221 | 25 | 90 | 1.6 | 6.4 | 0.00 | 0.00 | 0.00 | 57 | 1011.4 |
| 20260905231121 | 25 | 90 | 0.0 | 6.4 | 0.00 | 0.00 | 0.00 | 57 | 1011.4 |
| 20260905231021 | 25 | 90 | 0.0 | 6.4 | 0.00 | 0.00 | 0.00 | 57 | 1011.2 |
| 20260905230921 | 25 | 90 | 0.0 | 6.4 | 0.00 | 0.00 | 0.00 | 57 | 1011.5 |
| 20260905230821 | 25 | 90 | 1.6 | 6.4 | 0.00 | 0.00 | 0.00 | 57 | 1011.4 |
| 20260905230721 | 25 | 90 | 1.6 | 6.4 | 0.00 | 0.00 | 0.00 | 57 | 1011.5 |
| 20260905230621 | 25 | 88 | 1.6 | 6.4 | 0.00 | 0.00 | 0.00 | 57 | 1011.5 |
| 20260905230521 | 25 | 83 | 3.2 | 6.4 | 0.00 | 0.00 | 0.00 | 58 | 1011.5 |
| 20260905230421 | 25 | 79 | 1.6 | 6.4 | 0.00 | 0.00 | 0.00 | 58 | 1011.3 |
| 20260905230321 | 25 | 78 | 3.2 | 6.4 | 0.00 | 0.00 | 0.00 | 58 | 1011.5 |
| 20260905230221 | 25 | 76 | 3.2 | 6.4 | 0.00 | 0.00 | 0.00 | 58 | 1011.3 |
| 20260905230121 | 25 | 75 | 1.6 | 6.4 | 0.00 | 0.00 | 0.00 | 58 | 1011.3 |
| 20260905230021 | 25 | 75 | 1.6 | 6.4 | 0.00 | 0.00 | 0.00 | 58 | 1011.2 |
| 20260905225921 | 25 | 73 | 3.2 | 6.4 | 0.00 | 0.00 | 0.00 | 58 | 1011.3 |
| 20260905225821 | 25 | 71 | 3.2 | 6.4 | 0.00 | 0.00 | 0.00 | 58 | 1011.1 |
| 20260905225721 | 25 | 68 | 3.2 | 6.4 | 0.00 | 0.00 | 0.00 | 58 | 1011.4 |
| 20260905225621 | 25 | 67 | 3.2 | 6.4 | 0.00 | 0.00 | 0.00 | 57 | 1011.4 |
| 20260905225521 | 25 | 73 | 3.2 | 6.4 | 0.00 | 0.00 | 0.00 | 56 | 1011.5 |
| 20260905225421 | 25 | 80 | 3.2 | 4.8 | 0.00 | 0.00 | 0.00 | 55 | 1011.4 |
| 20260905225321 | 25 | 79 | 3.2 | 4.8 | 0.00 | 0.00 | 0.00 | 52 | 1011.2 |
| 20260905225221 | 25 | 90 | 3.2 | 4.8 | 0.00 | 0.00 | 0.00 | 52 | 1011.4 |
| 20260905225120 | 25 | 90 | 3.2 | 3.2 | 0.00 | 0.00 | 0.00 | 51 | 1011.4 |
| 20260905225020 | 25 | 90 | 0.0 | 3.2 | 0.00 | 0.00 | 0.00 | 52 | 1011.3 |
| 20260905224920 | 25 | 0 | 0.0 | 0.0 | 0.00 | 0.00 | 0.00 | 53 | 1011.3 |
| 20260905224820 | 25 | 0 | 0.0 | 0.0 | 0.00 | 0.00 | 0.00 | 52 | 1011.3 |
| 20260905224720 | 25 | 0 | 0.0 | 0.0 | 0.00 | 0.00 | 0.00 | 52 | 1011.4 |
| 20260905224620 | 25 | 0 | 0.0 | 0.0 | 0.00 | 0.00 | 0.00 | 52 | 1011.4 |
| 20260905224520 | 25 | 0 | 0.0 | 0.0 | 0.00 | 0.00 | 0.00 | 51 | 1011.5 |
| 20260905224420 | 25 | 0 | 0.0 | 0.0 | 0.00 | 0.00 | 0.00 | 51 | 1011.5 |
| 20260905224320 | 25 | 360 | 0.0 | 1.6 | 0.00 | 0.00 | 0.00 | 52 | 1011.3 |
| 20260905224220 | 25 | 360 | 0.0 | 1.6 | 0.00 | 0.00 | 0.00 | 52 | 1011.3 |
| 20260905224120 | 25 | 360 | 0.0 | 3.2 | 0.00 | 0.00 | 0.00 | 52 | 1011.3 |
| 20260905224020 | 25 | 360 | 0.0 | 3.2 | 0.00 | 0.00 | 0.00 | 50 | 1011.4 |
| 20260905223920 | 25 | 360 | 0.0 | 3.2 | 0.00 | 0.00 | 0.00 | 51 | 1011.3 |
| 20260905223820 | 25 | 360 | 0.0 | 3.2 | 0.00 | 0.00 | 0.00 | 52 | 1011.4 |
| 20260905223720 | 25 | 360 | 0.0 | 3.2 | 0.00 | 0.00 | 0.00 | 56 | 1011.4 |
| 20260905223620 | 25 | 360 | 0.0 | 4.8 | 0.00 | 0.00 | 0.00 | 56 | 1011.3 |
| 20260905223520 | 25 | 360 | 0.0 | 6.4 | 0.00 | 0.00 | 0.00 | 56 | 1011.3 |
| 20260905223420 | 25 | 360 | 0.0 | 6.4 | 0.00 | 0.00 | 0.00 | 56 | 1011.4 |
| 20260905223320 | 25 | 360 | 0.0 | 6.4 | 0.00 | 0.00 | 0.00 | 56 | 1011.5 |
| 20260905223220 | 25 | 360 | 0.0 | 6.4 | 0.00 | 0.00 | 0.00 | 56 | 1011.3 |
| 20260905223120 | 25 | 1 | 1.6 | 6.4 | 0.00 | 0.00 | 0.00 | 56 | 1011.5 |
| 20260905223020 | 25 | 7 | 0.0 | 6.4 | 0.00 | 0.00 | 0.00 | 56 | 1011.3 |
| 20260905222919 | 25 | 15 | 0.0 | 6.4 | 0.00 | 0.00 | 0.00 | 56 | 1011.1 |
| 20260905222820 | 26 | 24 | 0.0 | 6.4 | 0.00 | 0.00 | 0.00 | 56 | 1011.4 |
| 20260905222720 | 26 | 21 | 0.0 | 6.4 | 0.00 | 0.00 | 0.00 | 55 | 1011.3 |
| 20260905222620 | 26 | 22 | 1.6 | 6.4 | 0.00 | 0.00 | 0.00 | 55 | 1011.3 |
| 20260905222520 | 26 | 28 | 3.2 | 6.4 | 0.00 | 0.00 | 0.00 | 55 | 1011.2 |
| 20260905222419 | 26 | 29 | 3.2 | 6.4 | 0.00 | 0.00 | 0.00 | 55 | 1011.3 |
| 20260905222319 | 26 | 34 | 3.2 | 6.4 | 0.00 | 0.00 | 0.00 | 54 | 1011.4 |
| 20260905222219 | 26 | 40 | 3.2 | 6.4 | 0.00 | 0.00 | 0.00 | 54 | 1011.4 |
| 20260905222119 | 26 | 47 | 3.2 | 6.4 | 0.00 | 0.00 | 0.00 | 52 | 1011.2 |
| 20260905222019 | 26 | 44 | 3.2 | 6.4 | 0.00 | 0.00 | 0.00 | 52 | 1011.4 |
| 20260905221919 | 26 | 39 | 3.2 | 6.4 | 0.00 | 0.00 | 0.00 | 52 | 1011.3 |
| 20260905221819 | 26 | 33 | 3.2 | 6.4 | 0.00 | 0.00 | 0.00 | 55 | 1011.4 |
| 20260905221719 | 26 | 44 | 3.2 | 6.4 | 0.00 | 0.00 | 0.00 | 55 | 1011.4 |
| 20260905221619 | 26 | 51 | 3.2 | 6.4 | 0.00 | 0.00 | 0.00 | 53 | 1011.3 |
| 20260905221519 | 27 | 54 | 3.2 | 6.4 | 0.00 | 0.00 | 0.00 | 52 | 1011.4 |
| 20260905221419 | 27 | 67 | 3.2 | 6.4 | 0.00 | 0.00 | 0.00 | 52 | 1011.3 |
| 20260905221319 | 27 | 77 | 4.8 | 6.4 | 0.00 | 0.00 | 0.00 | 51 | 1011.3 |
| 20260905221219 | 27 | 90 | 1.6 | 3.2 | 0.00 | 0.00 | 0.00 | 48 | 1011.3 |
| 20260905221119 | 27 | 90 | 0.0 | 3.2 | 0.00 | 0.00 | 0.00 | 47 | 1011.3 |
| 20260905221018 | 27 | 90 | 0.0 | 3.2 | 0.00 | 0.00 | 0.00 | 47 | 1011.2 |
| 20260905220919 | 27 | 90 | 0.0 | 3.2 | 0.00 | 0.00 | 0.00 | 46 | 1011.4 |
| 20260905220818 | 27 | 90 | 1.6 | 3.2 | 0.00 | 0.00 | 0.00 | 47 | 1011.3 |
| 20260905220718 | 27 | 104 | 0.0 | 3.2 | 0.00 | 0.00 | 0.00 | 46 | 1011.3 |
| 20260905220618 | 27 | 100 | 0.0 | 4.8 | 0.00 | 0.00 | 0.00 | 45 | 1011.2 |
| 20260905220518 | 27 | 102 | 0.0 | 4.8 | 0.00 | 0.00 | 0.00 | 45 | 1011.2 |
| 20260905220418 | 27 | 110 | 0.0 | 4.8 | 0.00 | 0.00 | 0.00 | 44 | 1011.1 |
| 20260905220318 | 27 | 106 | 0.0 | 4.8 | 0.00 | 0.00 | 0.00 | 44 | 1011.3 |
| 20260905220218 | 28 | 107 | 0.0 | 4.8 | 0.00 | 0.00 | 0.00 | 44 | 1011.1 |
| 20260905220118 | 28 | 114 | 0.0 | 4.8 | 0.00 | 0.00 | 0.00 | 43 | 1011.2 |
| 20260905220021 | 28 | 111 | 0.0 | 4.8 | 0.00 | 0.00 | 0.00 | 43 | 1011.2 |
| 20260905215918 | 28 | 116 | 0.0 | 6.4 | 0.00 | 0.00 | 0.00 | 42 | 1011.1 |
| 20260905215818 | 28 | 121 | 1.6 | 6.4 | 0.00 | 0.00 | 0.00 | 42 | 1011.2 |
| 20260905215718 | 28 | 123 | 1.6 | 6.4 | 0.00 | 0.00 | 0.00 | 42 | 1010.9 |
| 20260905215618 | 27 | 127 | 1.6 | 6.4 | 0.00 | 0.00 | 0.00 | 42 | 1011.1 |
| 20260905215518 | 27 | 134 | 1.6 | 8.0 | 0.00 | 0.00 | 0.00 | 42 | 1011.2 |
| 20260905215418 | 27 | 134 | 1.6 | 8.0 | 0.00 | 0.00 | 0.00 | 42 | 1011.2 |
| 20260905215318 | 27 | 137 | 1.6 | 14.5 | 0.00 | 0.00 | 0.00 | 42 | 1011.2 |
| 20260905215218 | 27 | 137 | 3.2 | 14.5 | 0.00 | 0.00 | 0.00 | 42 | 1011.1 |
| 20260905215118 | 27 | 136 | 1.6 | 14.5 | 0.00 | 0.00 | 0.00 | 43 | 1011.1 |
| 20260905215018 | 27 | 140 | 3.2 | 14.5 | 0.00 | 0.00 | 0.00 | 43 | 1011.1 |
| 20260905214918 | 27 | 144 | 3.2 | 14.5 | 0.00 | 0.00 | 0.00 | 43 | 1011.2 |
| 20260905214818 | 27 | 143 | 3.2 | 14.5 | 0.00 | 0.00 | 0.00 | 43 | 1010.9 |
| 20260905214718 | 27 | 143 | 3.2 | 14.5 | 0.00 | 0.00 | 0.00 | 44 | 1011.1 |
| 20260905214618 | 27 | 148 | 4.8 | 14.5 | 0.00 | 0.00 | 0.00 | 43 | 1011.2 |
| 20260905214518 | 27 | 147 | 4.8 | 14.5 | 0.00 | 0.00 | 0.00 | 43 | 1011.3 |
| 20260905214418 | 27 | 146 | 4.8 | 14.5 | 0.00 | 0.00 | 0.00 | 44 | 1011.1 |
| 20260905214317 | 27 | 146 | 8.0 | 14.5 | 0.00 | 0.00 | 0.00 | 44 | 1011.1 |
| 20260905214218 | 27 | 146 | 8.0 | 14.5 | 0.00 | 0.00 | 0.00 | 44 | 1011.1 |
| 20260905214117 | 27 | 150 | 6.4 | 14.5 | 0.00 | 0.00 | 0.00 | 44 | 1011.1 |
| 20260905214018 | 27 | 148 | 6.4 | 17.7 | 0.00 | 0.00 | 0.00 | 45 | 1011.1 |
| 20260905213918 | 27 | 145 | 8.0 | 17.7 | 0.00 | 0.00 | 0.00 | 45 | 1011.2 |
| 20260905213817 | 27 | 145 | 9.7 | 17.7 | 0.00 | 0.00 | 0.00 | 45 | 1011.0 |
| 20260905213718 | 27 | 150 | 8.0 | 17.7 | 0.00 | 0.00 | 0.00 | 45 | 1011.1 |
| 20260905213617 | 27 | 149 | 9.7 | 17.7 | 0.00 | 0.00 | 0.00 | 45 | 1011.1 |
| 20260905213517 | 27 | 148 | 9.7 | 17.7 | 0.00 | 0.00 | 0.00 | 46 | 1011.1 |
| 20260905213417 | 27 | 148 | 8.0 | 17.7 | 0.00 | 0.00 | 0.00 | 45 | 1011.1 |
| 20260905213317 | 27 | 150 | 8.0 | 17.7 | 0.00 | 0.00 | 0.00 | 46 | 1011.1 |
| 20260905213218 | 27 | 152 | 9.7 | 17.7 | 0.00 | 0.00 | 0.00 | 46 | 1011.2 |
| 20260905213118 | 27 | 150 | 8.0 | 17.7 | 0.00 | 0.00 | 0.00 | 45 | 1010.9 |
| 20260905213018 | 27 | 152 | 9.7 | 17.7 | 0.00 | 0.00 | 0.00 | 46 | 1011.0 |
| 20260905212917 | 27 | 152 | 8.0 | 17.7 | 0.00 | 0.00 | 0.00 | 45 | 1010.9 |
| 20260905212818 | 27 | 151 | 6.4 | 17.7 | 0.00 | 0.00 | 0.00 | 45 | 1011.0 |
| 20260905212718 | 27 | 147 | 6.4 | 17.7 | 0.00 | 0.00 | 0.00 | 44 | 1011.0 |
| 20260905212618 | 27 | 149 | 9.7 | 17.7 | 0.00 | 0.00 | 0.00 | 45 | 1011.0 |
| 20260905212517 | 27 | 150 | 11.3 | 17.7 | 0.00 | 0.00 | 0.00 | 45 | 1010.9 |
| 20260905212417 | 27 | 154 | 8.0 | 17.7 | 0.00 | 0.00 | 0.00 | 45 | 1011.1 |
| 20260905212317 | 27 | 153 | 9.7 | 17.7 | 0.00 | 0.00 | 0.00 | 45 | 1010.9 |
| 20260905212217 | 27 | 151 | 9.7 | 17.7 | 0.00 | 0.00 | 0.00 | 45 | 1010.9 |
| 20260905212117 | 27 | 150 | 11.3 | 17.7 | 0.00 | 0.00 | 0.00 | 46 | 1011.0 |
| 20260905212017 | 27 | 147 | 11.3 | 17.7 | 0.00 | 0.00 | 0.00 | 45 | 1011.0 |
| 20260905211917 | 27 | 148 | 11.3 | 17.7 | 0.00 | 0.00 | 0.00 | 45 | 1011.0 |
| 20260905211818 | 27 | 148 | 9.7 | 17.7 | 0.00 | 0.00 | 0.00 | 46 | 1010.9 |
| 20260905211717 | 27 | 147 | 11.3 | 16.1 | 0.00 | 0.00 | 0.00 | 45 | 1011.1 |
| 20260905211617 | 27 | 142 | 11.3 | 14.5 | 0.00 | 0.00 | 0.00 | 45 | 1010.8 |
| 20260905211517 | 27 | 139 | 8.0 | 14.5 | 0.00 | 0.00 | 0.00 | 44 | 1010.8 |
| 20260905211417 | 27 | 136 | 8.0 | 14.5 | 0.00 | 0.00 | 0.00 | 44 | 1010.8 |
| 20260905211317 | 27 | 137 | 8.0 | 14.5 | 0.00 | 0.00 | 0.00 | 44 | 1011.1 |
| 20260905211217 | 27 | 138 | 8.0 | 14.5 | 0.00 | 0.00 | 0.00 | 45 | 1010.9 |
| 20260905211117 | 27 | 138 | 8.0 | 14.5 | 0.00 | 0.00 | 0.00 | 45 | 1011.0 |
| 20260905211017 | 27 | 138 | 8.0 | 14.5 | 0.00 | 0.00 | 0.00 | 46 | 1010.9 |
| 20260905210917 | 27 | 139 | 8.0 | 14.5 | 0.00 | 0.00 | 0.00 | 46 | 1011.0 |
| 20260905210817 | 27 | 141 | 9.7 | 14.5 | 0.00 | 0.00 | 0.00 | 46 | 1011.0 |
| 20260905210717 | 27 | 144 | 8.0 | 14.5 | 0.00 | 0.00 | 0.00 | 45 | 1010.9 |
| 20260905210617 | 28 | 147 | 8.0 | 14.5 | 0.00 | 0.00 | 0.00 | 44 | 1011.0 |
| 20260905210517 | 28 | 150 | 9.7 | 14.5 | 0.00 | 0.00 | 0.00 | 45 | 1011.0 |
| 20260905210417 | 28 | 154 | 9.7 | 12.9 | 0.00 | 0.00 | 0.00 | 44 | 1011.2 |
| 20260905210317 | 28 | 155 | 8.0 | 12.9 | 0.00 | 0.00 | 0.00 | 44 | 1011.2 |
| 20260905210217 | 28 | 159 | 8.0 | 12.9 | 0.00 | 0.00 | 0.00 | 44 | 1010.9 |
| 20260905210117 | 28 | 166 | 6.4 | 11.3 | 0.00 | 0.00 | 0.00 | 43 | 1011.1 |
| 20260905210017 | 27 | 175 | 6.4 | 11.3 | 0.00 | 0.00 | 0.00 | 43 | 1011.0 |
| 20260905205917 | 27 | 180 | 4.8 | 6.4 | 0.00 | 0.00 | 0.00 | 43 | 1011.1 |
| 20260905205817 | 27 | 180 | 3.2 | 6.4 | 0.00 | 0.00 | 0.00 | 44 | 1011.1 |
| 20260905205717 | 27 | 180 | 3.2 | 6.4 | 0.00 | 0.00 | 0.00 | 44 | 1011.2 |
| 20260905205617 | 27 | 180 | 1.6 | 3.2 | 0.00 | 0.00 | 0.00 | 44 | 1010.9 |
| 20260905205517 | 27 | 180 | 1.6 | 3.2 | 0.00 | 0.00 | 0.00 | 44 | 1011.0 |
| 20260905205417 | 27 | 180 | 1.6 | 3.2 | 0.00 | 0.00 | 0.00 | 45 | 1011.0 |
| 20260905205317 | 27 | 180 | 1.6 | 3.2 | 0.00 | 0.00 | 0.00 | 45 | 1010.9 |
| 20260905205217 | 27 | 180 | 1.6 | 3.2 | 0.00 | 0.00 | 0.00 | 46 | 1011.0 |
| 20260905205117 | 27 | 176 | 0.0 | 3.2 | 0.00 | 0.00 | 0.00 | 47 | 1010.9 |
| 20260905205017 | 27 | 142 | 0.0 | 3.2 | 0.00 | 0.00 | 0.00 | 47 | 1011.3 |
| 20260905204917 | 27 | 90 | 0.0 | 3.2 | 0.00 | 0.00 | 0.00 | 47 | 1011.1 |
| 20260905204817 | 27 | 90 | 0.0 | 3.2 | 0.00 | 0.00 | 0.00 | 47 | 1011.0 |
| 20260905204717 | 27 | 90 | 0.0 | 3.2 | 0.00 | 0.00 | 0.00 | 48 | 1011.1 |
| 20260905204617 | 27 | 90 | 0.0 | 3.2 | 0.00 | 0.00 | 0.00 | 49 | 1010.9 |
| 20260905204517 | 27 | 90 | 0.0 | 3.2 | 0.00 | 0.00 | 0.00 | 48 | 1011.0 |
| 20260905204417 | 27 | 90 | 0.0 | 3.2 | 0.00 | 0.00 | 0.00 | 50 | 1011.1 |
| 20260905204317 | 27 | 90 | 0.0 | 3.2 | 0.00 | 0.00 | 0.00 | 49 | 1011.1 |
| 20260905204217 | 27 | 90 | 0.0 | 3.2 | 0.00 | 0.00 | 0.00 | 52 | 1011.0 |
| 20260905204117 | 27 | 90 | 0.0 | 3.2 | 0.00 | 0.00 | 0.00 | 53 | 1011.0 |
| 20260905204017 | 27 | 90 | 1.6 | 4.8 | 0.00 | 0.00 | 0.00 | 54 | 1010.9 |
| 20260905203917 | 27 | 71 | 0.0 | 6.4 | 0.00 | 0.00 | 0.00 | 55 | 1011.0 |
| 20260905203817 | 27 | 65 | 0.0 | 6.4 | 0.00 | 0.00 | 0.00 | 55 | 1011.1 |
| 20260905203717 | 27 | 66 | 0.0 | 6.4 | 0.00 | 0.00 | 0.00 | 55 | 1011.1 |
| 20260905203617 | 27 | 69 | 0.0 | 6.4 | 0.00 | 0.00 | 0.00 | 55 | 1011.2 |
| 20260905203517 | 27 | 72 | 0.0 | 6.4 | 0.00 | 0.00 | 0.00 | 54 | 1011.0 |
| 20260905203417 | 27 | 75 | 0.0 | 6.4 | 0.00 | 0.00 | 0.00 | 55 | 1011.1 |
| 20260905203317 | 27 | 76 | 0.0 | 6.4 | 0.00 | 0.00 | 0.00 | 54 | 1011.2 |
| 20260905203217 | 27 | 78 | 1.6 | 6.4 | 0.00 | 0.00 | 0.00 | 55 | 1011.0 |
| 20260905203117 | 27 | 78 | 1.6 | 6.4 | 0.00 | 0.00 | 0.00 | 55 | 1011.0 |
| 20260905203017 | 27 | 76 | 3.2 | 6.4 | 0.00 | 0.00 | 0.00 | 55 | 1011.1 |
| 20260905202917 | 27 | 85 | 0.0 | 4.8 | 0.00 | 0.00 | 0.00 | 55 | 1011.1 |
| 20260905202817 | 27 | 90 | 0.0 | 4.8 | 0.00 | 0.00 | 0.00 | 54 | 1011.1 |
| 20260905202717 | 27 | 90 | 0.0 | 4.8 | 0.00 | 0.00 | 0.00 | 54 | 1011.0 |
| 20260905202617 | 27 | 92 | 1.6 | 4.8 | 0.00 | 0.00 | 0.00 | 53 | 1011.1 |
| 20260905202517 | 27 | 103 | 3.2 | 6.4 | 0.00 | 0.00 | 0.00 | 52 | 1011.0 |
| 20260905202417 | 27 | 120 | 1.6 | 6.4 | 0.00 | 0.00 | 0.00 | 51 | 1010.9 |
| 20260905202317 | 28 | 129 | 1.6 | 6.4 | 0.00 | 0.00 | 0.00 | 50 | 1011.2 |
| 20260905202217 | 28 | 134 | 0.0 | 6.4 | 0.00 | 0.00 | 0.00 | 47 | 1011.0 |
| 20260905202117 | 28 | 137 | 0.0 | 6.4 | 0.00 | 0.00 | 0.00 | 46 | 1011.0 |
| 20260905202017 | 28 | 147 | 0.0 | 9.7 | 0.00 | 0.00 | 0.00 | 46 | 1011.2 |
| 20260905201917 | 28 | 145 | 0.0 | 11.3 | 0.00 | 0.00 | 0.00 | 46 | 1011.1 |
| 20260905201817 | 28 | 146 | 1.6 | 11.3 | 0.00 | 0.00 | 0.00 | 45 | 1011.1 |
| 20260905201717 | 28 | 150 | 1.6 | 11.3 | 0.00 | 0.00 | 0.00 | 45 | 1011.1 |
| 20260905201617 | 28 | 149 | 1.6 | 12.9 | 0.00 | 0.00 | 0.00 | 44 | 1011.2 |
| 20260905201517 | 28 | 145 | 3.2 | 12.9 | 0.00 | 0.00 | 0.00 | 44 | 1011.1 |
| 20260905201417 | 27 | 142 | 3.2 | 12.9 | 0.00 | 0.00 | 0.00 | 44 | 1011.2 |
| 20260905201317 | 27 | 143 | 4.8 | 12.9 | 0.00 | 0.00 | 0.00 | 44 | 1011.2 |
| 20260905201217 | 27 | 142 | 4.8 | 12.9 | 0.00 | 0.00 | 0.00 | 45 | 1011.1 |
| 20260905201117 | 27 | 143 | 4.8 | 12.9 | 0.00 | 0.00 | 0.00 | 45 | 1011.0 |
| 20260905201017 | 27 | 139 | 6.4 | 12.9 | 0.00 | 0.00 | 0.00 | 45 | 1010.9 |
| 20260905200917 | 27 | 139 | 6.4 | 12.9 | 0.00 | 0.00 | 0.00 | 45 | 1011.0 |
| 20260905200817 | 27 | 139 | 6.4 | 12.9 | 0.00 | 0.00 | 0.00 | 45 | 1011.1 |
| 20260905200717 | 27 | 135 | 6.4 | 12.9 | 0.00 | 0.00 | 0.00 | 45 | 1011.1 |
| 20260905200617 | 27 | 135 | 6.4 | 9.7 | 0.00 | 0.00 | 0.00 | 45 | 1010.9 |
| 20260905200517 | 27 | 135 | 6.4 | 9.7 | 0.00 | 0.00 | 0.00 | 45 | 1011.1 |
| 20260905200417 | 27 | 135 | 4.8 | 8.0 | 0.00 | 0.00 | 0.00 | 46 | 1011.1 |
| 20260905200317 | 27 | 135 | 4.8 | 8.0 | 0.00 | 0.00 | 0.00 | 46 | 1011.2 |
| 20260905200216 | 27 | 135 | 3.2 | 3.2 | 0.00 | 0.00 | 0.00 | 48 | 1011.1 |
| 20260905200117 | 27 | 135 | 1.6 | 3.2 | 0.00 | 0.00 | 0.00 | 48 | 1011.0 |
| 20260905200017 | 27 | 0 | 0.0 | 0.0 | 0.00 | 0.00 | 0.00 | 49 | 1011.1 |
| 20260905195917 | 27 | 0 | 0.0 | 0.0 | 0.00 | 0.00 | 0.00 | 49 | 1011.2 |
| 20260905195816 | 27 | 0 | 0.0 | 0.0 | 0.00 | 0.00 | 0.00 | 50 | 1011.1 |
| 20260905195717 | 27 | 0 | 0.0 | 0.0 | 0.00 | 0.00 | 0.00 | 50 | 1011.0 |
| 20260905195616 | 27 | 0 | 0.0 | 0.0 | 0.00 | 0.00 | 0.00 | 49 | 1011.1 |
| 20260905195516 | 27 | 0 | 0.0 | 0.0 | 0.00 | 0.00 | 0.00 | 49 | 1011.2 |
| 20260905195417 | 27 | 0 | 0.0 | 0.0 | 0.00 | 0.00 | 0.00 | 50 | 1011.1 |
| 20260905195316 | 27 | 0 | 0.0 | 0.0 | 0.00 | 0.00 | 0.00 | 50 | 1011.0 |
| 20260905195216 | 27 | 0 | 0.0 | 0.0 | 0.00 | 0.00 | 0.00 | 51 | 1011.0 |
| 20260905195116 | 27 | 0 | 0.0 | 0.0 | 0.00 | 0.00 | 0.00 | 52 | 1010.9 |
| 20260905195016 | 27 | 0 | 0.0 | 0.0 | 0.00 | 0.00 | 0.00 | 53 | 1011.0 |
| 20260905194916 | 27 | 0 | 0.0 | 0.0 | 0.00 | 0.00 | 0.00 | 52 | 1010.9 |
| 20260905194816 | 27 | 0 | 0.0 | 0.0 | 0.00 | 0.00 | 0.00 | 52 | 1010.8 |
| 20260905194716 | 27 | 180 | 0.0 | 3.2 | 0.00 | 0.00 | 0.00 | 53 | 1011.0 |
| 20260905194618 | 27 | 180 | 0.0 | 3.2 | 0.00 | 0.00 | 0.00 | 53 | 1011.0 |
| 20260905194520 | 27 | 180 | 0.0 | 3.2 | 0.00 | 0.00 | 0.00 | 53 | 1011.0 |
| 20260905194420 | 27 | 171 | 0.0 | 3.2 | 0.00 | 0.00 | 0.00 | 53 | 1011.0 |
| 20260905194320 | 27 | 159 | 0.0 | 4.8 | 0.00 | 0.00 | 0.00 | 53 | 1011.1 |
| 20260905194220 | 27 | 159 | 0.0 | 4.8 | 0.00 | 0.00 | 0.00 | 53 | 1011.2 |
| 20260905194120 | 27 | 162 | 0.0 | 4.8 | 0.00 | 0.00 | 0.00 | 52 | 1011.1 |
| 20260905194020 | 27 | 164 | 0.0 | 4.8 | 0.00 | 0.00 | 0.00 | 51 | 1011.0 |
| 20260905193920 | 27 | 166 | 0.0 | 4.8 | 0.00 | 0.00 | 0.00 | 51 | 1011.1 |
| 20260905193820 | 27 | 165 | 0.0 | 4.8 | 0.00 | 0.00 | 0.00 | 52 | 1011.1 |
| 20260905193720 | 27 | 164 | 0.0 | 4.8 | 0.00 | 0.00 | 0.00 | 53 | 1011.1 |
| 20260905193620 | 27 | 163 | 1.6 | 4.8 | 0.00 | 0.00 | 0.00 | 53 | 1011.2 |
| 20260905193520 | 27 | 159 | 1.6 | 4.8 | 0.00 | 0.00 | 0.00 | 53 | 1011.0 |
| 20260905193420 | 27 | 161 | 1.6 | 4.8 | 0.00 | 0.00 | 0.00 | 54 | 1011.1 |
| 20260905193320 | 27 | 180 | 3.2 | 4.8 | 0.00 | 0.00 | 0.00 | 54 | 1011.2 |
| 20260905193220 | 27 | 199 | 1.6 | 4.8 | 0.00 | 0.00 | 0.00 | 54 | 1011.0 |
| 20260905193120 | 27 | 216 | 1.6 | 3.2 | 0.00 | 0.00 | 0.00 | 54 | 1011.1 |
| 20260905193020 | 27 | 38 | 1.6 | 3.2 | 0.00 | 0.00 | 0.00 | 54 | 1011.2 |
| 20260905192919 | 27 | 41 | 0.0 | 3.2 | 0.00 | 0.00 | 0.00 | 54 | 1011.2 |
| 20260905192820 | 27 | 66 | 0.0 | 4.8 | 0.00 | 0.00 | 0.00 | 53 | 1011.2 |
| 20260905192720 | 27 | 71 | 0.0 | 4.8 | 0.00 | 0.00 | 0.00 | 53 | 1011.4 |
| 20260905192619 | 27 | 63 | 0.0 | 4.8 | 0.00 | 0.00 | 0.00 | 53 | 1011.2 |
| 20260905192519 | 27 | 64 | 0.0 | 4.8 | 0.00 | 0.00 | 0.00 | 53 | 1011.1 |
| 20260905192419 | 27 | 60 | 0.0 | 4.8 | 0.00 | 0.00 | 0.00 | 52 | 1011.2 |
| 20260905192319 | 27 | 63 | 0.0 | 4.8 | 0.00 | 0.00 | 0.00 | 52 | 1011.1 |
| 20260905192220 | 27 | 60 | 0.0 | 4.8 | 0.00 | 0.00 | 0.00 | 53 | 1011.0 |
| 20260905192119 | 27 | 58 | 0.0 | 4.8 | 0.00 | 0.00 | 0.00 | 53 | 1011.1 |
| 20260905192019 | 27 | 53 | 1.6 | 4.8 | 0.00 | 0.00 | 0.00 | 53 | 1010.9 |
| 20260905191919 | 27 | 47 | 0.0 | 4.8 | 0.00 | 0.00 | 0.00 | 52 | 1011.0 |
| 20260905191819 | 27 | 32 | 1.6 | 4.8 | 0.00 | 0.00 | 0.00 | 52 | 1011.1 |
| 20260905191718 | 27 | 10 | 0.0 | 3.2 | 0.00 | 0.00 | 0.00 | 52 | 1011.1 |
| 20260905191618 | 27 | 13 | 0.0 | 3.2 | 0.00 | 0.00 | 0.00 | 52 | 1011.1 |
| 20260905191517 | 27 | 14 | 1.6 | 3.2 | 0.00 | 0.00 | 0.00 | 52 | 1011.3 |
| 20260905191418 | 27 | 23 | 0.0 | 3.2 | 0.00 | 0.00 | 0.00 | 52 | 1011.1 |
| 20260905191317 | 27 | 34 | 0.0 | 3.2 | 0.00 | 0.00 | 0.00 | 52 | 1011.1 |
| 20260905191217 | 27 | 69 | 0.0 | 3.2 | 0.00 | 0.00 | 0.00 | 53 | 1011.2 |
| 20260905191117 | 27 | 90 | 0.0 | 1.6 | 0.00 | 0.00 | 0.00 | 53 | 1011.1 |
| 20260905191016 | 27 | 90 | 0.0 | 1.6 | 0.00 | 0.00 | 0.00 | 54 | 1010.9 |
| 20260905190916 | 27 | 90 | 0.0 | 1.6 | 0.00 | 0.00 | 0.00 | 54 | 1010.9 |
| 20260905190815 | 27 | 90 | 0.0 | 1.6 | 0.00 | 0.00 | 0.00 | 55 | 1011.0 |
| 20260905190715 | 27 | 180 | 0.0 | 1.6 | 0.00 | 0.00 | 0.00 | 55 | 1010.9 |
| 20260905190615 | 27 | 180 | 0.0 | 1.6 | 0.00 | 0.00 | 0.00 | 56 | 1011.1 |
| 20260905190514 | 27 | 180 | 0.0 | 1.6 | 0.00 | 0.00 | 0.00 | 55 | 1011.1 |
| 20260905190414 | 27 | 180 | 0.0 | 1.6 | 0.00 | 0.00 | 0.00 | 55 | 1011.0 |
| 20260905190314 | 27 | 180 | 0.0 | 1.6 | 0.00 | 0.00 | 0.00 | 55 | 1011.3 |
| 20260905190214 | 27 | 220 | 0.0 | 3.2 | 0.00 | 0.00 | 0.00 | 57 | 1011.1 |
| 20260905190114 | 27 | 249 | 0.0 | 3.2 | 0.00 | 0.00 | 0.00 | 57 | 1010.9 |
| 20260905190014 | 27 | 246 | 0.0 | 3.2 | 0.00 | 0.00 | 0.00 | 58 | 1011.1 |
| 20260905185914 | 27 | 246 | 0.0 | 3.2 | 0.00 | 0.00 | 0.00 | 58 | 1011.1 |
| 20260905185814 | 27 | 246 | 0.0 | 3.2 | 0.00 | 0.00 | 0.00 | 60 | 1011.0 |
| 20260905185714 | 26 | 257 | 0.0 | 3.2 | 0.00 | 0.00 | 0.00 | 61 | 1011.2 |
| 20260905185614 | 26 | 257 | 0.0 | 3.2 | 0.00 | 0.00 | 0.00 | 61 | 1011.1 |
| 20260905185514 | 26 | 257 | 0.0 | 3.2 | 0.00 | 0.00 | 0.00 | 61 | 1010.9 |
| 20260905185414 | 26 | 257 | 0.0 | 3.2 | 0.00 | 0.00 | 0.00 | 61 | 1011.1 |
| 20260905185314 | 26 | 260 | 0.0 | 3.2 | 0.00 | 0.00 | 0.00 | 60 | 1010.9 |
| 20260905185214 | 26 | 270 | 1.6 | 3.2 | 0.00 | 0.00 | 0.00 | 60 | 1011.0 |
| 20260905185114 | 26 | 90 | 0.0 | 3.2 | 0.00 | 0.00 | 0.00 | 60 | 1011.0 |
| 20260905185014 | 27 | 0 | 0.0 | 0.0 | 0.00 | 0.00 | 0.00 | 59 | 1011.1 |
| 20260905184914 | 27 | 0 | 0.0 | 0.0 | 0.00 | 0.00 | 0.00 | 59 | 1011.0 |
| 20260905184814 | 27 | 0 | 0.0 | 0.0 | 0.00 | 0.00 | 0.00 | 59 | 1010.8 |
| 20260905184714 | 27 | 0 | 0.0 | 0.0 | 0.00 | 0.00 | 0.00 | 59 | 1010.8 |
| 20260905184614 | 27 | 0 | 0.0 | 0.0 | 0.00 | 0.00 | 0.00 | 60 | 1011.1 |
| 20260905184514 | 27 | 0 | 0.0 | 0.0 | 0.00 | 0.00 | 0.00 | 60 | 1011.0 |
| 20260905184414 | 27 | 0 | 0.0 | 0.0 | 0.00 | 0.00 | 0.00 | 60 | 1011.2 |
| 20260905184314 | 27 | 270 | 0.0 | 3.2 | 0.00 | 0.00 | 0.00 | 61 | 1010.9 |
| 20260905184214 | 27 | 270 | 0.0 | 3.2 | 0.00 | 0.00 | 0.00 | 61 | 1010.8 |
| 20260905184114 | 27 | 242 | 0.0 | 3.2 | 0.00 | 0.00 | 0.00 | 61 | 1010.9 |
| 20260905184014 | 27 | 226 | 0.0 | 3.2 | 0.00 | 0.00 | 0.00 | 60 | 1011.0 |
| 20260905183914 | 27 | 226 | 0.0 | 3.2 | 0.00 | 0.00 | 0.00 | 60 | 1010.8 |
| 20260905183814 | 27 | 226 | 0.0 | 3.2 | 0.00 | 0.00 | 0.00 | 60 | 1011.0 |
| 20260905183714 | 27 | 226 | 0.0 | 3.2 | 0.00 | 0.00 | 0.00 | 60 | 1010.9 |
| 20260905183614 | 27 | 233 | 0.0 | 3.2 | 0.00 | 0.00 | 0.00 | 60 | 1010.8 |
| 20260905183514 | 27 | 238 | 0.0 | 3.2 | 0.00 | 0.00 | 0.00 | 60 | 1010.8 |
| 20260905183414 | 27 | 238 | 0.0 | 3.2 | 0.00 | 0.00 | 0.00 | 59 | 1010.8 |
| 20260905183314 | 27 | 228 | 0.0 | 3.2 | 0.00 | 0.00 | 0.00 | 59 | 1010.7 |
| 20260905183214 | 27 | 203 | 0.0 | 3.2 | 0.00 | 0.00 | 0.00 | 59 | 1010.7 |
| 20260905183114 | 27 | 194 | 0.0 | 4.8 | 0.00 | 0.00 | 0.00 | 59 | 1010.7 |
| 20260905183014 | 27 | 193 | 0.0 | 4.8 | 0.00 | 0.00 | 0.00 | 60 | 1010.8 |
| 20260905182914 | 27 | 190 | 0.0 | 4.8 | 0.00 | 0.00 | 0.00 | 60 | 1010.9 |
| 20260905182814 | 27 | 188 | 0.0 | 4.8 | 0.00 | 0.00 | 0.00 | 61 | 1010.7 |
| 20260905182714 | 27 | 187 | 0.0 | 4.8 | 0.00 | 0.00 | 0.00 | 61 | 1010.8 |
| 20260905182614 | 27 | 183 | 0.0 | 4.8 | 0.00 | 0.00 | 0.00 | 60 | 1010.8 |
| 20260905182514 | 27 | 180 | 0.0 | 4.8 | 0.00 | 0.00 | 0.00 | 60 | 1010.7 |
| 20260905182414 | 27 | 180 | 0.0 | 4.8 | 0.00 | 0.00 | 0.00 | 60 | 1010.7 |
| 20260905182314 | 27 | 180 | 0.0 | 4.8 | 0.00 | 0.00 | 0.00 | 60 | 1010.7 |
| 20260905182214 | 27 | 180 | 1.6 | 4.8 | 0.00 | 0.00 | 0.00 | 60 | 1010.8 |
| 20260905182114 | 27 | 180 | 1.6 | 3.2 | 0.00 | 0.00 | 0.00 | 60 | 1010.7 |
| 20260905182014 | 27 | 180 | 1.6 | 3.2 | 0.00 | 0.00 | 0.00 | 60 | 1010.8 |
| 20260905181914 | 27 | 180 | 1.6 | 3.2 | 0.00 | 0.00 | 0.00 | 61 | 1010.6 |
| 20260905181814 | 27 | 180 | 1.6 | 3.2 | 0.00 | 0.00 | 0.00 | 61 | 1010.6 |
| 20260905181714 | 27 | 180 | 0.0 | 3.2 | 0.00 | 0.00 | 0.00 | 62 | 1010.9 |
| 20260905181614 | 27 | 180 | 1.6 | 3.2 | 0.00 | 0.00 | 0.00 | 62 | 1010.7 |
| 20260905181514 | 27 | 180 | 1.6 | 3.2 | 0.00 | 0.00 | 0.00 | 63 | 1010.7 |
| 20260905181414 | 27 | 180 | 0.0 | 3.2 | 0.00 | 0.00 | 0.00 | 63 | 1010.8 |
| 20260905181314 | 27 | 180 | 0.0 | 3.2 | 0.00 | 0.00 | 0.00 | 63 | 1010.8 |
| 20260905181214 | 27 | 180 | 0.0 | 3.2 | 0.00 | 0.00 | 0.00 | 64 | 1010.7 |
| 20260905181114 | 27 | 180 | 0.0 | 3.2 | 0.00 | 0.00 | 0.00 | 64 | 1010.6 |
| 20260905181014 | 27 | 180 | 0.0 | 3.2 | 0.00 | 0.00 | 0.00 | 65 | 1010.6 |
| 20260905180914 | 27 | 180 | 0.0 | 3.2 | 0.00 | 0.00 | 0.00 | 65 | 1010.6 |
| 20260905180814 | 27 | 185 | 0.0 | 3.2 | 0.00 | 0.00 | 0.00 | 65 | 1010.8 |
| 20260905180714 | 27 | 186 | 1.6 | 3.2 | 0.00 | 0.00 | 0.00 | 65 | 1010.8 |
| 20260905180614 | 26 | 186 | 3.2 | 3.2 | 0.00 | 0.00 | 0.00 | 66 | 1010.4 |
| 20260905180514 | 26 | 193 | 3.2 | 3.2 | 0.00 | 0.00 | 0.00 | 66 | 1010.6 |
| 20260905180414 | 26 | 209 | 1.6 | 3.2 | 0.00 | 0.00 | 0.00 | 67 | 1010.5 |
| 20260905180314 | 26 | 208 | 1.6 | 4.8 | 0.00 | 0.00 | 0.00 | 67 | 1010.6 |
| 20260905180214 | 26 | 209 | 0.0 | 4.8 | 0.00 | 0.00 | 0.00 | 68 | 1010.6 |
| 20260905180114 | 26 | 211 | 0.0 | 4.8 | 0.00 | 0.00 | 0.00 | 68 | 1010.7 |
| 20260905180014 | 26 | 214 | 0.0 | 4.8 | 0.00 | 0.00 | 0.00 | 68 | 1010.6 |
| 20260905175914 | 26 | 207 | 0.0 | 6.4 | 0.00 | 0.00 | 0.00 | 68 | 1010.6 |
| 20260905175814 | 26 | 201 | 0.0 | 6.4 | 0.00 | 0.00 | 0.00 | 68 | 1010.6 |
| 20260905175714 | 26 | 216 | 0.0 | 6.4 | 0.00 | 0.00 | 0.00 | 68 | 1010.6 |
| 20260905175614 | 26 | 229 | 1.6 | 6.4 | 0.00 | 0.00 | 0.00 | 68 | 1010.5 |
| 20260905175514 | 26 | 232 | 1.6 | 6.4 | 0.00 | 0.00 | 0.00 | 68 | 1010.4 |
| 20260905175414 | 26 | 232 | 3.2 | 6.4 | 0.00 | 0.00 | 0.00 | 68 | 1010.5 |
| 20260905175314 | 26 | 247 | 3.2 | 6.4 | 0.00 | 0.00 | 0.00 | 68 | 1010.4 |
| 20260905175214 | 26 | 257 | 3.2 | 6.4 | 0.00 | 0.00 | 0.00 | 68 | 1010.5 |
| 20260905175114 | 26 | 266 | 1.6 | 6.4 | 0.00 | 0.00 | 0.00 | 68 | 1010.6 |
| 20260905175014 | 26 | 270 | 1.6 | 6.4 | 0.00 | 0.00 | 0.00 | 68 | 1010.5 |
| 20260905174914 | 26 | 270 | 1.6 | 6.4 | 0.00 | 0.00 | 0.00 | 68 | 1010.3 |
| 20260905174814 | 26 | 270 | 3.2 | 6.4 | 0.00 | 0.00 | 0.00 | 68 | 1010.3 |
| 20260905174714 | 26 | 270 | 3.2 | 6.4 | 0.00 | 0.00 | 0.00 | 68 | 1010.4 |
| 20260905174614 | 26 | 270 | 1.6 | 6.4 | 0.00 | 0.00 | 0.00 | 67 | 1010.3 |
| 20260905174514 | 26 | 270 | 1.6 | 6.4 | 0.00 | 0.00 | 0.00 | 67 | 1010.5 |
| 20260905174414 | 26 | 270 | 3.2 | 6.4 | 0.00 | 0.00 | 0.00 | 68 | 1010.5 |
| 20260905174314 | 26 | 270 | 0.0 | 6.4 | 0.00 | 0.00 | 0.00 | 68 | 1010.5 |
| 20260905174214 | 26 | 270 | 3.2 | 6.4 | 0.00 | 0.00 | 0.00 | 68 | 1010.4 |
| 20260905174114 | 26 | 268 | 1.6 | 6.4 | 0.00 | 0.00 | 0.00 | 68 | 1010.4 |
| 20260905174014 | 26 | 264 | 3.2 | 6.4 | 0.00 | 0.00 | 0.00 | 69 | 1010.3 |
| 20260905173914 | 26 | 258 | 1.6 | 6.4 | 0.00 | 0.00 | 0.00 | 69 | 1010.4 |
| 20260905173814 | 26 | 258 | 3.2 | 6.4 | 0.00 | 0.00 | 0.00 | 69 | 1010.4 |
| 20260905173714 | 27 | 257 | 3.2 | 6.4 | 0.00 | 0.00 | 0.00 | 69 | 1010.5 |
| 20260905173614 | 27 | 257 | 3.2 | 6.4 | 0.00 | 0.00 | 0.00 | 69 | 1010.2 |
| 20260905173514 | 27 | 256 | 3.2 | 6.4 | 0.00 | 0.00 | 0.00 | 69 | 1010.5 |
| 20260905173414 | 27 | 258 | 3.2 | 6.4 | 0.00 | 0.00 | 0.00 | 68 | 1010.5 |
| 20260905173314 | 27 | 259 | 3.2 | 6.4 | 0.00 | 0.00 | 0.00 | 68 | 1010.4 |
| 20260905173214 | 27 | 257 | 3.2 | 6.4 | 0.00 | 0.00 | 0.00 | 68 | 1010.2 |
| 20260905173114 | 27 | 265 | 1.6 | 4.8 | 0.00 | 0.00 | 0.00 | 68 | 1010.2 |
| 20260905173014 | 27 | 314 | 1.6 | 4.8 | 0.00 | 0.00 | 0.00 | 68 | 1010.4 |
| 20260905172914 | 27 | 345 | 0.0 | 4.8 | 0.00 | 0.00 | 0.00 | 68 | 1010.3 |
| 20260905172814 | 27 | 355 | 0.0 | 4.8 | 0.00 | 0.00 | 0.00 | 68 | 1010.3 |
| 20260905172714 | 27 | 357 | 0.0 | 4.8 | 0.00 | 0.00 | 0.00 | 68 | 1010.2 |
| 20260905172614 | 27 | 357 | 0.0 | 4.8 | 0.00 | 0.00 | 0.00 | 68 | 1010.4 |
| 20260905172514 | 27 | 357 | 0.0 | 4.8 | 0.00 | 0.00 | 0.00 | 68 | 1010.5 |
| 20260905172414 | 27 | 358 | 1.6 | 4.8 | 0.00 | 0.00 | 0.00 | 67 | 1010.1 |
| 20260905172314 | 27 | 359 | 0.0 | 4.8 | 0.00 | 0.00 | 0.00 | 67 | 1010.0 |
| 20260905172214 | 27 | 360 | 0.0 | 4.8 | 0.00 | 0.00 | 0.00 | 66 | 1010.2 |
| 20260905172114 | 27 | 360 | 0.0 | 4.8 | 0.00 | 0.00 | 0.00 | 66 | 1010.1 |
| 20260905172013 | 28 | 360 | 3.2 | 4.8 | 0.00 | 0.00 | 0.00 | 65 | 1010.3 |
| 20260905171914 | 28 | 359 | 3.2 | 8.0 | 0.00 | 0.00 | 0.00 | 65 | 1010.3 |
| 20260905171814 | 28 | 353 | 3.2 | 8.0 | 0.00 | 0.00 | 0.00 | 65 | 1010.3 |
| 20260905171714 | 28 | 348 | 3.2 | 8.0 | 0.00 | 0.00 | 0.00 | 65 | 1010.2 |
| 20260905171614 | 28 | 347 | 3.2 | 8.0 | 0.00 | 0.00 | 0.00 | 65 | 1010.3 |
| 20260905171514 | 28 | 349 | 3.2 | 11.3 | 0.00 | 0.00 | 0.00 | 65 | 1010.4 |
| 20260905171414 | 28 | 349 | 3.2 | 11.3 | 0.00 | 0.00 | 0.00 | 65 | 1010.1 |
| 20260905171314 | 28 | 344 | 3.2 | 11.3 | 0.00 | 0.00 | 0.00 | 65 | 1010.2 |
| 20260905171214 | 28 | 335 | 3.2 | 11.3 | 0.00 | 0.00 | 0.00 | 65 | 1010.1 |
| 20260905171114 | 28 | 332 | 3.2 | 12.9 | 0.00 | 0.00 | 0.00 | 65 | 1010.3 |
| 20260905171014 | 28 | 334 | 3.2 | 12.9 | 0.00 | 0.00 | 0.00 | 65 | 1010.1 |
| 20260905170914 | 28 | 334 | 3.2 | 12.9 | 0.00 | 0.00 | 0.00 | 65 | 1010.1 |
| 20260905170814 | 28 | 343 | 3.2 | 12.9 | 0.00 | 0.00 | 0.00 | 64 | 1010.1 |
| 20260905170714 | 28 | 333 | 3.2 | 20.9 | 0.00 | 0.00 | 0.00 | 64 | 1010.1 |
| 20260905170614 | 28 | 329 | 6.4 | 20.9 | 0.00 | 0.00 | 0.00 | 63 | 1010.2 |
| 20260905170513 | 28 | 318 | 3.2 | 20.9 | 0.00 | 0.00 | 0.00 | 63 | 1010.1 |
| 20260905170414 | 28 | 321 | 3.2 | 20.9 | 0.00 | 0.00 | 0.00 | 63 | 1010.2 |
| 20260905170314 | 28 | 326 | 6.4 | 20.9 | 0.00 | 0.00 | 0.00 | 63 | 1010.2 |
| 20260905170213 | 28 | 337 | 6.4 | 20.9 | 0.00 | 0.00 | 0.00 | 63 | 1010.2 |
| 20260905170114 | 28 | 346 | 6.4 | 20.9 | 0.00 | 0.00 | 0.00 | 62 | 1010.1 |
| 20260905170014 | 28 | 347 | 4.8 | 20.9 | 0.00 | 0.00 | 0.00 | 62 | 1010.0 |
| 20260905165914 | 28 | 343 | 4.8 | 20.9 | 0.00 | 0.00 | 0.00 | 62 | 1010.1 |
| 20260905165813 | 29 | 328 | 6.4 | 20.9 | 0.00 | 0.00 | 0.00 | 62 | 1010.2 |
| 20260905165714 | 29 | 343 | 6.4 | 19.3 | 0.00 | 0.00 | 0.00 | 61 | 1010.0 |
| 20260905165614 | 30 | 348 | 6.4 | 19.3 | 0.00 | 0.00 | 0.00 | 61 | 1010.0 |
| 20260905165513 | 30 | 356 | 6.4 | 19.3 | 0.00 | 0.00 | 0.00 | 61 | 1010.0 |
| 20260905165414 | 30 | 357 | 4.8 | 19.3 | 0.00 | 0.00 | 0.00 | 60 | 1010.0 |
| 20260905165314 | 30 | 354 | 3.2 | 19.3 | 0.00 | 0.00 | 0.00 | 60 | 1010.1 |
| 20260905165214 | 30 | 344 | 6.4 | 19.3 | 0.00 | 0.00 | 0.00 | 59 | 1010.1 |
| 20260905165114 | 30 | 337 | 3.2 | 19.3 | 0.00 | 0.00 | 0.00 | 59 | 1010.0 |
| 20260905165014 | 30 | 333 | 3.2 | 19.3 | 0.00 | 0.00 | 0.00 | 58 | 1009.8 |
| 20260905164914 | 30 | 335 | 8.0 | 19.3 | 0.00 | 0.00 | 0.00 | 58 | 1009.9 |
| 20260905164814 | 30 | 346 | 3.2 | 9.7 | 0.00 | 0.00 | 0.00 | 57 | 1009.9 |
| 20260905164714 | 30 | 336 | 3.2 | 11.3 | 0.00 | 0.00 | 0.00 | 57 | 1009.9 |
| 20260905164614 | 31 | 335 | 3.2 | 11.3 | 0.00 | 0.00 | 0.00 | 57 | 1009.8 |
| 20260905164514 | 31 | 336 | 3.2 | 11.3 | 0.00 | 0.00 | 0.00 | 57 | 1009.9 |
| 20260905164414 | 31 | 336 | 3.2 | 11.3 | 0.00 | 0.00 | 0.00 | 57 | 1009.7 |
| 20260905164314 | 31 | 340 | 3.2 | 11.3 | 0.00 | 0.00 | 0.00 | 56 | 1009.7 |
| 20260905164213 | 31 | 348 | 3.2 | 11.3 | 0.00 | 0.00 | 0.00 | 55 | 1009.7 |
| 20260905164114 | 31 | 354 | 3.2 | 11.3 | 0.00 | 0.00 | 0.00 | 52 | 1009.9 |
| 20260905164014 | 31 | 353 | 1.6 | 11.3 | 0.00 | 0.00 | 0.00 | 47 | 1009.9 |
| 20260905163914 | 31 | 349 | 1.6 | 11.3 | 0.00 | 0.00 | 0.00 | 39 | 1009.6 |
| 20260905163813 | 31 | 350 | 3.2 | 11.3 | 0.00 | 0.00 | 0.00 | 39 | 1009.8 |
| 20260905163714 | 31 | 358 | 1.6 | 9.7 | 0.00 | 0.00 | 0.00 | 39 | 1009.8 |
| 20260905163614 | 31 | 355 | 1.6 | 9.7 | 0.00 | 0.00 | 0.00 | 39 | 1009.9 |
| 20260905163513 | 31 | 352 | 3.2 | 9.7 | 0.00 | 0.00 | 0.00 | 39 | 1009.8 |
| 20260905163414 | 31 | 344 | 3.2 | 9.7 | 0.00 | 0.00 | 0.00 | 39 | 1009.7 |
| 20260905163313 | 31 | 335 | 3.2 | 9.7 | 0.00 | 0.00 | 0.00 | 39 | 1009.7 |
| 20260905163220 | 31 | 322 | 3.2 | 9.7 | 0.00 | 0.00 | 0.00 | 39 | 1009.6 |
| 20260905163114 | 31 | 307 | 3.2 | 9.7 | 0.00 | 0.00 | 0.00 | 40 | 1009.7 |
| 20260905163014 | 31 | 310 | 3.2 | 6.4 | 0.00 | 0.00 | 0.00 | 41 | 1009.6 |
| 20260905162913 | 31 | 302 | 3.2 | 6.4 | 0.00 | 0.00 | 0.00 | 45 | 1009.6 |
| 20260905162813 | 31 | 296 | 1.6 | 6.4 | 0.00 | 0.00 | 0.00 | 42 | 1009.6 |
| 20260905162714 | 31 | 299 | 0.0 | 6.4 | 0.00 | 0.00 | 0.00 | 52 | 1009.6 |
| 20260905162614 | 31 | 299 | 1.6 | 6.4 | 0.00 | 0.00 | 0.00 | 51 | 1009.7 |
| 20260905162514 | 32 | 310 | 1.6 | 6.4 | 0.00 | 0.00 | 0.00 | 50 | 1009.6 |
| 20260905162413 | 32 | 327 | 1.6 | 6.4 | 0.00 | 0.00 | 0.00 | 52 | 1009.5 |
| 20260905162314 | 32 | 341 | 3.2 | 6.4 | 0.00 | 0.00 | 0.00 | 52 | 1009.8 |
| 20260905162213 | 32 | 354 | 1.6 | 6.4 | 0.00 | 0.00 | 0.00 | 50 | 1009.7 |
| 20260905162113 | 32 | 349 | 0.0 | 6.4 | 0.00 | 0.00 | 0.00 | 51 | 1009.7 |
| 20260905162013 | 32 | 350 | 0.0 | 6.4 | 0.00 | 0.00 | 0.00 | 52 | 1009.5 |
| 20260905161914 | 32 | 9 | 1.6 | 8.0 | 0.00 | 0.00 | 0.00 | 52 | 1009.7 |
| 20260905161813 | 31 | 12 | 0.0 | 8.0 | 0.00 | 0.00 | 0.00 | 52 | 1009.5 |
| 20260905161713 | 31 | 15 | 0.0 | 8.0 | 0.00 | 0.00 | 0.00 | 52 | 1009.7 |
| 20260905161614 | 31 | 21 | 0.0 | 14.5 | 0.00 | 0.00 | 0.00 | 52 | 1009.5 |
| 20260905161514 | 31 | 7 | 3.2 | 14.5 | 0.00 | 0.00 | 0.00 | 50 | 1009.7 |
| 20260905161413 | 31 | 6 | 3.2 | 14.5 | 0.00 | 0.00 | 0.00 | 52 | 1009.7 |
| 20260905161313 | 31 | 6 | 0.0 | 14.5 | 0.00 | 0.00 | 0.00 | 51 | 1009.6 |
| 20260905161213 | 31 | 14 | 1.6 | 14.5 | 0.00 | 0.00 | 0.00 | 50 | 1009.5 |
| 20260905161113 | 32 | 16 | 1.6 | 16.1 | 0.00 | 0.00 | 0.00 | 51 | 1009.6 |
| 20260905161013 | 32 | 13 | 4.8 | 16.1 | 0.00 | 0.00 | 0.00 | 52 | 1009.5 |
| 20260905160913 | 32 | 11 | 1.6 | 16.1 | 0.00 | 0.00 | 0.00 | 49 | 1009.7 |
| 20260905160814 | 32 | 13 | 1.6 | 16.1 | 0.00 | 0.00 | 0.00 | 49 | 1009.6 |
| 20260905160713 | 32 | 19 | 3.2 | 17.7 | 0.00 | 0.00 | 0.00 | 49 | 1009.7 |
| 20260905160614 | 32 | 21 | 3.2 | 17.7 | 0.00 | 0.00 | 0.00 | 48 | 1009.7 |
| 20260905160513 | 32 | 27 | 6.4 | 17.7 | 0.00 | 0.00 | 0.00 | 48 | 1009.6 |
| 20260905160413 | 32 | 33 | 4.8 | 17.7 | 0.00 | 0.00 | 0.00 | 48 | 1009.6 |
| 20260905160313 | 32 | 34 | 3.2 | 19.3 | 0.00 | 0.00 | 0.00 | 48 | 1009.5 |
| 20260905160213 | 33 | 32 | 9.7 | 19.3 | 0.00 | 0.00 | 0.00 | 47 | 1009.6 |
| 20260905160113 | 33 | 32 | 3.2 | 19.3 | 0.00 | 0.00 | 0.00 | 41 | 1009.6 |
| 20260905160014 | 33 | 34 | 6.4 | 19.3 | 0.00 | 0.00 | 0.00 | 38 | 1009.7 |
| 20260905155913 | 33 | 32 | 6.4 | 19.3 | 0.00 | 0.00 | 0.00 | 36 | 1009.6 |
| 20260905155813 | 33 | 32 | 11.3 | 19.3 | 0.00 | 0.00 | 0.00 | 38 | 1009.6 |
| 20260905155713 | 33 | 29 | 6.4 | 19.3 | 0.00 | 0.00 | 0.00 | 36 | 1009.6 |
| 20260905155613 | 33 | 23 | 3.2 | 19.3 | 0.00 | 0.00 | 0.00 | 35 | 1009.5 |
| 20260905155513 | 33 | 22 | 3.2 | 19.3 | 0.00 | 0.00 | 0.00 | 35 | 1009.5 |
| 20260905155414 | 33 | 19 | 3.2 | 19.3 | 0.00 | 0.00 | 0.00 | 34 | 1009.6 |
| 20260905155313 | 33 | 24 | 11.3 | 19.3 | 0.00 | 0.00 | 0.00 | 34 | 1009.6 |
| 20260905155213 | 33 | 30 | 6.4 | 14.5 | 0.00 | 0.00 | 0.00 | 34 | 1009.5 |
| 20260905155113 | 33 | 44 | 6.4 | 14.5 | 0.00 | 0.00 | 0.00 | 34 | 1009.5 |
| 20260905155013 | 33 | 53 | 1.6 | 14.5 | 0.00 | 0.00 | 0.00 | 34 | 1009.5 |
| 20260905154913 | 33 | 59 | 3.2 | 14.5 | 0.00 | 0.00 | 0.00 | 34 | 1009.4 |
| 20260905154814 | 33 | 61 | 3.2 | 16.1 | 0.00 | 0.00 | 0.00 | 34 | 1009.5 |
| 20260905154713 | 33 | 57 | 3.2 | 16.1 | 0.00 | 0.00 | 0.00 | 33 | 1009.6 |
| 20260905154613 | 33 | 62 | 0.0 | 16.1 | 0.00 | 0.00 | 0.00 | 33 | 1009.4 |
| 20260905154513 | 33 | 75 | 0.0 | 16.1 | 0.00 | 0.00 | 0.00 | 33 | 1009.5 |
| 20260905154414 | 33 | 76 | 3.2 | 16.1 | 0.00 | 0.00 | 0.00 | 33 | 1009.4 |
| 20260905154313 | 33 | 87 | 6.4 | 16.1 | 0.00 | 0.00 | 0.00 | 33 | 1009.5 |
| 20260905154214 | 33 | 101 | 6.4 | 16.1 | 0.00 | 0.00 | 0.00 | 32 | 1009.6 |
| 20260905154113 | 33 | 99 | 4.8 | 16.1 | 0.00 | 0.00 | 0.00 | 32 | 1009.6 |
| 20260905154013 | 33 | 94 | 4.8 | 16.1 | 0.00 | 0.00 | 0.00 | 32 | 1009.5 |
| 20260905153913 | 33 | 85 | 6.4 | 16.1 | 0.00 | 0.00 | 0.00 | 33 | 1009.4 |
| 20260905153813 | 33 | 86 | 3.2 | 14.5 | 0.00 | 0.00 | 0.00 | 33 | 1009.2 |
| 20260905153713 | 33 | 87 | 1.6 | 14.5 | 0.00 | 0.00 | 0.00 | 33 | 1009.4 |
| 20260905153613 | 33 | 84 | 8.0 | 14.5 | 0.00 | 0.00 | 0.00 | 33 | 1009.3 |
| 20260905153513 | 33 | 72 | 8.0 | 14.5 | 0.00 | 0.00 | 0.00 | 33 | 1009.4 |
| 20260905153413 | 33 | 76 | 6.4 | 16.1 | 0.00 | 0.00 | 0.00 | 32 | 1009.2 |
| 20260905153313 | 33 | 71 | 6.4 | 16.1 | 0.00 | 0.00 | 0.00 | 32 | 1009.4 |
| 20260905153213 | 33 | 65 | 6.4 | 19.3 | 0.00 | 0.00 | 0.00 | 32 | 1009.3 |
| 20260905153113 | 33 | 68 | 4.8 | 19.3 | 0.00 | 0.00 | 0.00 | 32 | 1009.4 |
| 20260905153014 | 33 | 73 | 3.2 | 19.3 | 0.00 | 0.00 | 0.00 | 32 | 1009.2 |
| 20260905152913 | 33 | 74 | 6.4 | 19.3 | 0.00 | 0.00 | 0.00 | 32 | 1009.2 |
| 20260905152813 | 33 | 79 | 3.2 | 19.3 | 0.00 | 0.00 | 0.00 | 32 | 1009.2 |
| 20260905152713 | 33 | 87 | 6.4 | 19.3 | 0.00 | 0.00 | 0.00 | 32 | 1009.3 |
| 20260905152613 | 33 | 88 | 6.4 | 19.3 | 0.00 | 0.00 | 0.00 | 32 | 1009.2 |
| 20260905152513 | 33 | 92 | 6.4 | 19.3 | 0.00 | 0.00 | 0.00 | 32 | 1009.2 |
| 20260905152413 | 33 | 83 | 8.0 | 22.5 | 0.00 | 0.00 | 0.00 | 32 | 1009.4 |
| 20260905152313 | 33 | 83 | 8.0 | 22.5 | 0.00 | 0.00 | 0.00 | 32 | 1009.1 |
| 20260905152213 | 33 | 81 | 9.7 | 22.5 | 0.00 | 0.00 | 0.00 | 32 | 1009.2 |
| 20260905152113 | 33 | 86 | 6.4 | 22.5 | 0.00 | 0.00 | 0.00 | 32 | 1009.3 |
| 20260905152013 | 33 | 80 | 6.4 | 22.5 | 0.00 | 0.00 | 0.00 | 31 | 1009.3 |
| 20260905151913 | 33 | 95 | 6.4 | 22.5 | 0.00 | 0.00 | 0.00 | 31 | 1009.3 |
| 20260905151813 | 33 | 100 | 4.8 | 22.5 | 0.00 | 0.00 | 0.00 | 33 | 1009.1 |
| 20260905151713 | 33 | 93 | 9.7 | 22.5 | 0.00 | 0.00 | 0.00 | 33 | 1009.3 |
| 20260905151613 | 33 | 98 | 6.4 | 22.5 | 0.00 | 0.00 | 0.00 | 33 | 1009.2 |
| 20260905151513 | 33 | 108 | 6.4 | 22.5 | 0.00 | 0.00 | 0.00 | 33 | 1009.2 |
| 20260905151413 | 33 | 115 | 6.4 | 19.3 | 0.00 | 0.00 | 0.00 | 33 | 1009.1 |
| 20260905151312 | 33 | 115 | 6.4 | 19.3 | 0.00 | 0.00 | 0.00 | 33 | 1009.0 |
| 20260905151212 | 33 | 125 | 6.4 | 19.3 | 0.00 | 0.00 | 0.00 | 33 | 1009.3 |
| 20260905151112 | 33 | 129 | 3.2 | 19.3 | 0.00 | 0.00 | 0.00 | 33 | 1009.2 |
| 20260905151012 | 33 | 127 | 8.0 | 19.3 | 0.00 | 0.00 | 0.00 | 34 | 1009.1 |
| 20260905150912 | 33 | 125 | 8.0 | 19.3 | 0.00 | 0.00 | 0.00 | 34 | 1009.1 |
| 20260905150812 | 33 | 118 | 6.4 | 20.9 | 0.00 | 0.00 | 0.00 | 34 | 1009.0 |
| 20260905150711 | 33 | 123 | 6.4 | 20.9 | 0.00 | 0.00 | 0.00 | 34 | 1009.0 |
| 20260905150610 | 33 | 121 | 6.4 | 20.9 | 0.00 | 0.00 | 0.00 | 34 | 1009.0 |
| 20260905150509 | 34 | 100 | 6.4 | 20.9 | 0.00 | 0.00 | 0.00 | 34 | 1008.8 |
| 20260905150410 | 34 | 98 | 11.3 | 20.9 | 0.00 | 0.00 | 0.00 | 34 | 1009.0 |
| 20260905150310 | 34 | 90 | 6.4 | 20.9 | 0.00 | 0.00 | 0.00 | 34 | 1009.0 |
| 20260905150209 | 34 | 87 | 6.4 | 20.9 | 0.00 | 0.00 | 0.00 | 34 | 1009.1 |
| 20260905150109 | 34 | 81 | 3.2 | 20.9 | 0.00 | 0.00 | 0.00 | 34 | 1008.9 |
| 20260905150009 | 34 | 95 | 6.4 | 20.9 | 0.00 | 0.00 | 0.00 | 34 | 1009.1 |
| 20260905145908 | 34 | 98 | 6.4 | 20.9 | 0.00 | 0.00 | 0.00 | 34 | 1009.0 |
| 20260905145808 | 34 | 101 | 1.6 | 17.7 | 0.00 | 0.00 | 0.00 | 33 | 1009.0 |
| 20260905145707 | 34 | 104 | 3.2 | 17.7 | 0.00 | 0.00 | 0.00 | 34 | 1009.1 |
| 20260905145606 | 34 | 108 | 6.4 | 17.7 | 0.00 | 0.00 | 0.00 | 34 | 1009.2 |
| 20260905145506 | 34 | 119 | 9.7 | 17.7 | 0.00 | 0.00 | 0.00 | 34 | 1009.1 |
| 20260905145405 | 34 | 130 | 9.7 | 17.7 | 0.00 | 0.00 | 0.00 | 33 | 1009.2 |
| 20260905145306 | 34 | 133 | 6.4 | 17.7 | 0.00 | 0.00 | 0.00 | 33 | 1009.1 |
| 20260905145203 | 34 | 138 | 4.8 | 19.3 | 0.00 | 0.00 | 0.00 | 34 | 1009.0 |
| 20260905145102 | 34 | 141 | 4.8 | 19.3 | 0.00 | 0.00 | 0.00 | 34 | 1009.0 |
| 20260905145002 | 34 | 133 | 4.8 | 19.3 | 0.00 | 0.00 | 0.00 | 33 | 1009.2 |
| 20260905144901 | 34 | 133 | 4.8 | 22.5 | 0.00 | 0.00 | 0.00 | 33 | 1009.1 |
| 20260905144800 | 34 | 140 | 3.2 | 22.5 | 0.00 | 0.00 | 0.00 | 33 | 1009.2 |
| 20260905144659 | 34 | 137 | 4.8 | 22.5 | 0.00 | 0.00 | 0.00 | 33 | 1009.1 |
| 20260905144559 | 34 | 135 | 4.8 | 22.5 | 0.00 | 0.00 | 0.00 | 33 | 1009.2 |
| 20260905144458 | 34 | 132 | 6.4 | 22.5 | 0.00 | 0.00 | 0.00 | 34 | 1009.2 |
| 20260905144357 | 34 | 127 | 6.4 | 22.5 | 0.00 | 0.00 | 0.00 | 33 | 1009.0 |
| 20260905144257 | 34 | 130 | 9.7 | 22.5 | 0.00 | 0.00 | 0.00 | 34 | 1009.1 |
| 20260905144157 | 34 | 126 | 6.4 | 22.5 | 0.00 | 0.00 | 0.00 | 34 | 1009.0 |
| 20260905144056 | 34 | 126 | 8.0 | 22.5 | 0.00 | 0.00 | 0.00 | 34 | 1009.1 |
| 20260905143954 | 34 | 127 | 8.0 | 22.5 | 0.00 | 0.00 | 0.00 | 34 | 1009.1 |
| 20260905143854 | 34 | 125 | 11.3 | 27.4 | 0.00 | 0.00 | 0.00 | 34 | 1009.2 |
| 20260905143753 | 35 | 120 | 9.7 | 27.4 | 0.00 | 0.00 | 0.00 | 34 | 1009.2 |
| 20260905143653 | 35 | 122 | 9.7 | 27.4 | 0.00 | 0.00 | 0.00 | 34 | 1009.0 |
| 20260905143553 | 35 | 117 | 6.4 | 27.4 | 0.00 | 0.00 | 0.00 | 34 | 1009.1 |
| 20260905143453 | 35 | 113 | 8.0 | 27.4 | 0.00 | 0.00 | 0.00 | 34 | 1009.2 |
| 20260905143352 | 35 | 111 | 8.0 | 27.4 | 0.00 | 0.00 | 0.00 | 33 | 1009.0 |
| 20260905143251 | 35 | 110 | 8.0 | 27.4 | 0.00 | 0.00 | 0.00 | 33 | 1008.9 |
| 20260905143151 | 35 | 108 | 6.4 | 27.4 | 0.00 | 0.00 | 0.00 | 33 | 1009.2 |
| 20260905143051 | 35 | 103 | 9.7 | 27.4 | 0.00 | 0.00 | 0.00 | 33 | 1009.0 |
| 20260905142950 | 35 | 103 | 6.4 | 27.4 | 0.00 | 0.00 | 0.00 | 33 | 1009.0 |
| 20260905142850 | 35 | 98 | 12.9 | 27.4 | 0.00 | 0.00 | 0.00 | 33 | 1009.1 |
| 20260905142750 | 36 | 95 | 3.2 | 17.7 | 0.00 | 0.00 | 0.00 | 32 | 1009.0 |
| 20260905142650 | 36 | 92 | 4.8 | 17.7 | 0.00 | 0.00 | 0.00 | 32 | 1009.0 |
| 20260905142549 | 36 | 96 | 6.4 | 17.7 | 0.00 | 0.00 | 0.00 | 32 | 1008.9 |
| 20260905142449 | 36 | 97 | 6.4 | 24.1 | 0.00 | 0.00 | 0.00 | 31 | 1009.2 |
| 20260905142348 | 36 | 84 | 4.8 | 24.1 | 0.00 | 0.00 | 0.00 | 31 | 1009.1 |
| 20260905142249 | 36 | 81 | 3.2 | 24.1 | 0.00 | 0.00 | 0.00 | 31 | 1009.0 |
| 20260905142148 | 36 | 80 | 1.6 | 24.1 | 0.00 | 0.00 | 0.00 | 31 | 1008.9 |
| 20260905142048 | 36 | 91 | 6.4 | 24.1 | 0.00 | 0.00 | 0.00 | 31 | 1009.0 |
| 20260905141948 | 36 | 96 | 6.4 | 24.1 | 0.00 | 0.00 | 0.00 | 30 | 1009.0 |
| 20260905141848 | 36 | 96 | 8.0 | 24.1 | 0.00 | 0.00 | 0.00 | 30 | 1009.0 |
| 20260905141748 | 36 | 86 | 4.8 | 24.1 | 0.00 | 0.00 | 0.00 | 30 | 1008.9 |
| 20260905141648 | 36 | 86 | 4.8 | 24.1 | 0.00 | 0.00 | 0.00 | 29 | 1008.9 |
| 20260905141548 | 36 | 86 | 3.2 | 24.1 | 0.00 | 0.00 | 0.00 | 29 | 1008.8 |
| 20260905141447 | 36 | 90 | 3.2 | 24.1 | 0.00 | 0.00 | 0.00 | 29 | 1009.2 |
| 20260905141347 | 35 | 103 | 4.8 | 20.9 | 0.00 | 0.00 | 0.00 | 29 | 1009.1 |
| 20260905141247 | 35 | 99 | 6.4 | 20.9 | 0.00 | 0.00 | 0.00 | 29 | 1008.7 |
| 20260905141147 | 35 | 94 | 8.0 | 20.9 | 0.00 | 0.00 | 0.00 | 30 | 1009.1 |
| 20260905141046 | 35 | 87 | 8.0 | 20.9 | 0.00 | 0.00 | 0.00 | 30 | 1008.9 |
| 20260905140945 | 35 | 83 | 8.0 | 20.9 | 0.00 | 0.00 | 0.00 | 30 | 1008.9 |
| 20260905140845 | 35 | 76 | 9.7 | 20.9 | 0.00 | 0.00 | 0.00 | 30 | 1009.0 |
| 20260905140745 | 35 | 81 | 6.4 | 16.1 | 0.00 | 0.00 | 0.00 | 30 | 1008.9 |
| 20260905140645 | 35 | 91 | 6.4 | 20.9 | 0.00 | 0.00 | 0.00 | 29 | 1009.1 |
| 20260905140544 | 35 | 87 | 3.2 | 20.9 | 0.00 | 0.00 | 0.00 | 30 | 1009.0 |
| 20260905140444 | 35 | 83 | 4.8 | 20.9 | 0.00 | 0.00 | 0.00 | 30 | 1009.0 |
| 20260905140344 | 35 | 82 | 6.4 | 20.9 | 0.00 | 0.00 | 0.00 | 30 | 1008.9 |
| 20260905140242 | 35 | 82 | 8.0 | 20.9 | 0.00 | 0.00 | 0.00 | 30 | 1009.0 |
| 20260905140141 | 35 | 84 | 6.4 | 20.9 | 0.00 | 0.00 | 0.00 | 30 | 1009.1 |
| 20260905140041 | 35 | 86 | 6.4 | 20.9 | 0.00 | 0.00 | 0.00 | 30 | 1009.0 |
| 20260905135940 | 35 | 87 | 6.4 | 20.9 | 0.00 | 0.00 | 0.00 | 30 | 1009.0 |
| 20260905135840 | 35 | 92 | 4.8 | 20.9 | 0.00 | 0.00 | 0.00 | 30 | 1009.1 |
| 20260905135740 | 35 | 98 | 8.0 | 22.5 | 0.00 | 0.00 | 0.00 | 30 | 1009.0 |
| 20260905135640 | 35 | 98 | 3.2 | 22.5 | 0.00 | 0.00 | 0.00 | 30 | 1009.0 |
| 20260905135539 | 35 | 106 | 4.8 | 22.5 | 0.00 | 0.00 | 0.00 | 30 | 1009.1 |
| 20260905135439 | 35 | 112 | 8.0 | 22.5 | 0.00 | 0.00 | 0.00 | 30 | 1009.1 |
| 20260905135339 | 35 | 116 | 8.0 | 22.5 | 0.00 | 0.00 | 0.00 | 30 | 1009.2 |
| 20260905135238 | 35 | 123 | 6.4 | 22.5 | 0.00 | 0.00 | 0.00 | 29 | 1009.1 |
| 20260905135138 | 35 | 131 | 8.0 | 22.5 | 0.00 | 0.00 | 0.00 | 30 | 1009.1 |
| 20260905135038 | 35 | 138 | 4.8 | 22.5 | 0.00 | 0.00 | 0.00 | 30 | 1009.1 |
| 20260905134937 | 35 | 138 | 6.4 | 22.5 | 0.00 | 0.00 | 0.00 | 30 | 1009.3 |
| 20260905134836 | 36 | 143 | 11.3 | 22.5 | 0.00 | 0.00 | 0.00 | 30 | 1009.2 |
| 20260905134736 | 36 | 150 | 9.7 | 20.9 | 0.00 | 0.00 | 0.00 | 30 | 1009.3 |
| 20260905134636 | 36 | 143 | 8.0 | 20.9 | 0.00 | 0.00 | 0.00 | 29 | 1009.2 |
| 20260905134535 | 36 | 139 | 9.7 | 20.9 | 0.00 | 0.00 | 0.00 | 30 | 1009.3 |
| 20260905134434 | 36 | 133 | 4.8 | 20.9 | 0.00 | 0.00 | 0.00 | 29 | 1009.2 |
| 20260905134334 | 35 | 125 | 6.4 | 20.9 | 0.00 | 0.00 | 0.00 | 29 | 1009.2 |
| 20260905134233 | 35 | 126 | 9.7 | 19.3 | 0.00 | 0.00 | 0.00 | 29 | 1009.1 |
| 20260905134132 | 35 | 120 | 1.6 | 19.3 | 0.00 | 0.00 | 0.00 | 29 | 1009.1 |
| 20260905134032 | 35 | 113 | 4.8 | 19.3 | 0.00 | 0.00 | 0.00 | 30 | 1009.2 |
| 20260905133931 | 35 | 114 | 8.0 | 19.3 | 0.00 | 0.00 | 0.00 | 29 | 1009.1 |
| 20260905133830 | 35 | 114 | 11.3 | 19.3 | 0.00 | 0.00 | 0.00 | 30 | 1009.0 |
| 20260905133729 | 35 | 107 | 8.0 | 19.3 | 0.00 | 0.00 | 0.00 | 29 | 1009.3 |
| 20260905133629 | 35 | 107 | 12.9 | 19.3 | 0.00 | 0.00 | 0.00 | 29 | 1009.2 |
| 20260905133528 | 35 | 101 | 11.3 | 19.3 | 0.00 | 0.00 | 0.00 | 29 | 1009.2 |
| 20260905133427 | 35 | 104 | 4.8 | 19.3 | 0.00 | 0.00 | 0.00 | 28 | 1009.0 |
| 20260905133327 | 35 | 106 | 6.4 | 19.3 | 0.00 | 0.00 | 0.00 | 29 | 1009.4 |
| 20260905133226 | 35 | 102 | 6.4 | 19.3 | 0.00 | 0.00 | 0.00 | 29 | 1009.0 |
| 20260905133125 | 35 | 106 | 8.0 | 19.3 | 0.00 | 0.00 | 0.00 | 29 | 1009.1 |
| 20260905133025 | 35 | 111 | 6.4 | 19.3 | 0.00 | 0.00 | 0.00 | 29 | 1009.1 |
| 20260905132924 | 35 | 113 | 8.0 | 19.3 | 0.00 | 0.00 | 0.00 | 29 | 1009.2 |
| 20260905132823 | 35 | 110 | 8.0 | 19.3 | 0.00 | 0.00 | 0.00 | 29 | 1009.1 |
| 20260905132723 | 35 | 109 | 12.9 | 19.3 | 0.00 | 0.00 | 0.00 | 29 | 1009.3 |
| 20260905132622 | 35 | 112 | 9.7 | 19.3 | 0.00 | 0.00 | 0.00 | 29 | 1009.3 |
| 20260905132521 | 36 | 115 | 6.4 | 19.3 | 0.00 | 0.00 | 0.00 | 29 | 1009.4 |
| 20260905132421 | 36 | 117 | 6.4 | 19.3 | 0.00 | 0.00 | 0.00 | 29 | 1009.2 |
| 20260905132321 | 36 | 120 | 8.0 | 19.3 | 0.00 | 0.00 | 0.00 | 29 | 1009.3 |
| 20260905132220 | 36 | 125 | 11.3 | 19.3 | 0.00 | 0.00 | 0.00 | 29 | 1009.2 |
| 20260905132119 | 36 | 120 | 6.4 | 17.7 | 0.00 | 0.00 | 0.00 | 28 | 1009.3 |
| 20260905132019 | 36 | 124 | 6.4 | 16.1 | 0.00 | 0.00 | 0.00 | 28 | 1009.3 |
| 20260905131918 | 36 | 125 | 3.2 | 20.9 | 0.00 | 0.00 | 0.00 | 27 | 1009.4 |
| 20260905131818 | 36 | 124 | 3.2 | 20.9 | 0.00 | 0.00 | 0.00 | 27 | 1009.3 |
| 20260905131717 | 35 | 118 | 3.2 | 20.9 | 0.00 | 0.00 | 0.00 | 28 | 1009.1 |
| 20260905131617 | 35 | 114 | 3.2 | 20.9 | 0.00 | 0.00 | 0.00 | 28 | 1009.4 |
| 20260905131516 | 36 | 112 | 8.0 | 20.9 | 0.00 | 0.00 | 0.00 | 28 | 1009.3 |
| 20260905131416 | 36 | 109 | 8.0 | 20.9 | 0.00 | 0.00 | 0.00 | 28 | 1009.2 |
| 20260905131316 | 36 | 103 | 3.2 | 20.9 | 0.00 | 0.00 | 0.00 | 28 | 1009.3 |
| 20260905131215 | 36 | 99 | 3.2 | 20.9 | 0.00 | 0.00 | 0.00 | 28 | 1009.4 |
| 20260905131116 | 36 | 98 | 4.8 | 20.9 | 0.00 | 0.00 | 0.00 | 29 | 1009.3 |
| 20260905131016 | 36 | 97 | 8.0 | 20.9 | 0.00 | 0.00 | 0.00 | 28 | 1009.5 |
| 20260905130916 | 36 | 91 | 12.9 | 20.9 | 0.00 | 0.00 | 0.00 | 29 | 1009.4 |
| 20260905130816 | 36 | 75 | 6.4 | 17.7 | 0.00 | 0.00 | 0.00 | 28 | 1009.3 |
| 20260905130716 | 36 | 89 | 9.7 | 17.7 | 0.00 | 0.00 | 0.00 | 28 | 1009.3 |
| 20260905130616 | 36 | 102 | 4.8 | 17.7 | 0.00 | 0.00 | 0.00 | 28 | 1009.6 |
| 20260905130516 | 36 | 98 | 6.4 | 17.7 | 0.00 | 0.00 | 0.00 | 28 | 1009.5 |
| 20260905130416 | 36 | 107 | 6.4 | 17.7 | 0.00 | 0.00 | 0.00 | 28 | 1009.2 |
| 20260905130315 | 36 | 105 | 6.4 | 24.1 | 0.00 | 0.00 | 0.00 | 28 | 1009.3 |
| 20260905130216 | 36 | 91 | 6.4 | 24.1 | 0.00 | 0.00 | 0.00 | 27 | 1009.2 |
| 20260905130115 | 36 | 86 | 3.2 | 24.1 | 0.00 | 0.00 | 0.00 | 27 | 1009.5 |
| 20260905130015 | 36 | 75 | 3.2 | 24.1 | 0.00 | 0.00 | 0.00 | 27 | 1009.2 |
| 20260905125915 | 36 | 69 | 3.2 | 24.1 | 0.00 | 0.00 | 0.00 | 28 | 1009.2 |
| 20260905125815 | 36 | 68 | 8.0 | 24.1 | 0.00 | 0.00 | 0.00 | 28 | 1009.5 |
| 20260905125715 | 36 | 62 | 6.4 | 24.1 | 0.00 | 0.00 | 0.00 | 28 | 1009.3 |
| 20260905125615 | 36 | 63 | 8.0 | 24.1 | 0.00 | 0.00 | 0.00 | 28 | 1009.3 |
| 20260905125516 | 36 | 62 | 6.4 | 24.1 | 0.00 | 0.00 | 0.00 | 28 | 1009.5 |
| 20260905125415 | 36 | 57 | 6.4 | 24.1 | 0.00 | 0.00 | 0.00 | 28 | 1009.5 |
| 20260905125315 | 36 | 54 | 12.9 | 24.1 | 0.00 | 0.00 | 0.00 | 28 | 1009.3 |
| 20260905125215 | 36 | 53 | 8.0 | 24.1 | 0.00 | 0.00 | 0.00 | 28 | 1009.4 |
| 20260905125116 | 36 | 53 | 8.0 | 24.1 | 0.00 | 0.00 | 0.00 | 28 | 1009.5 |
| 20260905125046 | 36 | 53 | 11.3 | 24.1 | 0.00 | 0.00 | 0.00 | 28 | 1009.5 |
| 20260905124916 | 36 | 59 | 11.3 | 24.1 | 0.00 | 0.00 | 0.00 | 28 | 1009.3 |
| 20260905124816 | 36 | 78 | 8.0 | 24.1 | 0.00 | 0.00 | 0.00 | 28 | 1009.5 |
| 20260905124715 | 35 | 92 | 8.0 | 24.1 | 0.00 | 0.00 | 0.00 | 28 | 1009.5 |
| 20260905124615 | 35 | 85 | 3.2 | 24.1 | 0.00 | 0.00 | 0.00 | 28 | 1009.6 |
| 20260905124513 | 35 | 85 | 4.8 | 24.1 | 0.00 | 0.00 | 0.00 | 28 | 1009.6 |
| 20260905124418 | 35 | 87 | 6.4 | 24.1 | 0.00 | 0.00 | 0.00 | 28 | 1009.6 |
| 20260905124318 | 35 | 97 | 12.9 | 24.1 | 0.00 | 0.00 | 0.00 | 28 | 1009.6 |
| 20260905124218 | 35 | 103 | 6.4 | 24.1 | 0.00 | 0.00 | 0.00 | 28 | 1009.4 |
| 20260905124118 | 35 | 108 | 6.4 | 24.1 | 0.00 | 0.00 | 0.00 | 28 | 1009.4 |
| 20260905124019 | 35 | 107 | 9.7 | 24.1 | 0.00 | 0.00 | 0.00 | 28 | 1009.7 |
| 20260905123918 | 35 | 98 | 9.7 | 24.1 | 0.00 | 0.00 | 0.00 | 28 | 1009.5 |
| 20260905123818 | 35 | 95 | 11.3 | 22.5 | 0.00 | 0.00 | 0.00 | 28 | 1009.5 |
| 20260905123718 | 36 | 100 | 3.2 | 19.3 | 0.00 | 0.00 | 0.00 | 28 | 1009.8 |
| 20260905123618 | 36 | 103 | 6.4 | 19.3 | 0.00 | 0.00 | 0.00 | 28 | 1009.4 |
| 20260905123518 | 36 | 103 | 3.2 | 19.3 | 0.00 | 0.00 | 0.00 | 28 | 1009.6 |
| 20260905123418 | 36 | 103 | 8.0 | 19.3 | 0.00 | 0.00 | 0.00 | 28 | 1009.6 |
| 20260905123318 | 36 | 94 | 6.4 | 19.3 | 0.00 | 0.00 | 0.00 | 28 | 1009.7 |
| 20260905123218 | 36 | 93 | 6.4 | 22.5 | 0.00 | 0.00 | 0.00 | 28 | 1009.6 |
| 20260905123118 | 36 | 84 | 6.4 | 22.5 | 0.00 | 0.00 | 0.00 | 28 | 1009.7 |
| 20260905123018 | 36 | 62 | 11.3 | 22.5 | 0.00 | 0.00 | 0.00 | 28 | 1009.6 |
| 20260905122918 | 36 | 62 | 9.7 | 22.5 | 0.00 | 0.00 | 0.00 | 27 | 1009.8 |
| 20260905122818 | 36 | 52 | 6.4 | 22.5 | 0.00 | 0.00 | 0.00 | 27 | 1009.6 |
| 20260905122718 | 36 | 48 | 4.8 | 22.5 | 0.00 | 0.00 | 0.00 | 27 | 1009.8 |
| 20260905122617 | 36 | 36 | 3.2 | 22.5 | 0.00 | 0.00 | 0.00 | 27 | 1009.5 |
| 20260905122518 | 36 | 37 | 3.2 | 22.5 | 0.00 | 0.00 | 0.00 | 27 | 1009.5 |
| 20260905122417 | 36 | 39 | 4.8 | 22.5 | 0.00 | 0.00 | 0.00 | 27 | 1009.6 |
| 20260905122317 | 36 | 50 | 6.4 | 22.5 | 0.00 | 0.00 | 0.00 | 28 | 1009.8 |
| 20260905122217 | 36 | 68 | 3.2 | 22.5 | 0.00 | 0.00 | 0.00 | 28 | 1009.6 |
| 20260905122118 | 36 | 71 | 6.4 | 22.5 | 0.00 | 0.00 | 0.00 | 28 | 1010.0 |
| 20260905122017 | 36 | 74 | 4.8 | 22.5 | 0.00 | 0.00 | 0.00 | 28 | 1009.7 |
| 20260905121917 | 35 | 78 | 6.4 | 22.5 | 0.00 | 0.00 | 0.00 | 27 | 1009.6 |
| 20260905121817 | 35 | 79 | 6.4 | 22.5 | 0.00 | 0.00 | 0.00 | 28 | 1009.7 |
| 20260905121717 | 35 | 85 | 12.9 | 22.5 | 0.00 | 0.00 | 0.00 | 28 | 1009.6 |
| 20260905121617 | 35 | 95 | 6.4 | 19.3 | 0.00 | 0.00 | 0.00 | 28 | 1009.7 |
| 20260905121517 | 35 | 97 | 9.7 | 19.3 | 0.00 | 0.00 | 0.00 | 28 | 1009.6 |
| 20260905121417 | 35 | 95 | 6.4 | 19.3 | 0.00 | 0.00 | 0.00 | 28 | 1009.8 |
| 20260905121317 | 35 | 93 | 3.2 | 19.3 | 0.00 | 0.00 | 0.00 | 28 | 1009.8 |
| 20260905121217 | 35 | 92 | 3.2 | 19.3 | 0.00 | 0.00 | 0.00 | 29 | 1009.9 |
| 20260905121117 | 35 | 96 | 6.4 | 19.3 | 0.00 | 0.00 | 0.00 | 29 | 1009.7 |
| 20260905121017 | 35 | 95 | 9.7 | 19.3 | 0.00 | 0.00 | 0.00 | 29 | 1009.6 |
| 20260905120917 | 35 | 102 | 6.4 | 25.7 | 0.00 | 0.00 | 0.00 | 29 | 1009.7 |
| 20260905120817 | 35 | 110 | 12.9 | 25.7 | 0.00 | 0.00 | 0.00 | 29 | 1009.6 |
| 20260905120717 | 35 | 107 | 9.7 | 25.7 | 0.00 | 0.00 | 0.00 | 29 | 1009.7 |
| 20260905120616 | 35 | 108 | 1.6 | 25.7 | 0.00 | 0.00 | 0.00 | 29 | 1009.8 |
| 20260905120516 | 35 | 107 | 6.4 | 25.7 | 0.00 | 0.00 | 0.00 | 29 | 1009.6 |
| 20260905120416 | 35 | 109 | 8.0 | 25.7 | 0.00 | 0.00 | 0.00 | 30 | 1009.8 |
| 20260905120316 | 35 | 111 | 6.4 | 25.7 | 0.00 | 0.00 | 0.00 | 29 | 1009.6 |
| 20260905120216 | 35 | 109 | 11.3 | 25.7 | 0.00 | 0.00 | 0.00 | 29 | 1009.8 |
| 20260905120116 | 36 | 107 | 8.0 | 25.7 | 0.00 | 0.00 | 0.00 | 29 | 1009.8 |
| 20260905120015 | 36 | 110 | 6.4 | 25.7 | 0.00 | 0.00 | 0.00 | 29 | 1009.7 |
| 20260905115915 | 36 | 105 | 8.0 | 25.7 | 0.00 | 0.00 | 0.00 | 29 | 1009.8 |
| 20260905115814 | 36 | 98 | 12.9 | 25.7 | 0.00 | 0.00 | 0.00 | 29 | 1009.8 |
| 20260905115714 | 36 | 97 | 9.7 | 20.9 | 0.00 | 0.00 | 0.00 | 29 | 1009.8 |
| 20260905115614 | 36 | 91 | 3.2 | 20.9 | 0.00 | 0.00 | 0.00 | 29 | 1009.7 |
| 20260905115514 | 36 | 89 | 6.4 | 20.9 | 0.00 | 0.00 | 0.00 | 29 | 1009.9 |
| 20260905115414 | 36 | 92 | 4.8 | 20.9 | 0.00 | 0.00 | 0.00 | 28 | 1009.7 |
| 20260905115314 | 36 | 97 | 3.2 | 20.9 | 0.00 | 0.00 | 0.00 | 28 | 1010.0 |
| 20260905115214 | 36 | 100 | 3.2 | 20.9 | 0.00 | 0.00 | 0.00 | 29 | 1009.8 |
| 20260905115114 | 36 | 106 | 6.4 | 20.9 | 0.00 | 0.00 | 0.00 | 29 | 1009.9 |
| 20260905115014 | 36 | 114 | 6.4 | 14.5 | 0.00 | 0.00 | 0.00 | 29 | 1009.9 |
| 20260905114914 | 36 | 122 | 6.4 | 14.5 | 0.00 | 0.00 | 0.00 | 29 | 1009.8 |
| 20260905114814 | 36 | 117 | 3.2 | 17.7 | 0.00 | 0.00 | 0.00 | 29 | 1009.8 |
| 20260905114714 | 36 | 106 | 3.2 | 17.7 | 0.00 | 0.00 | 0.00 | 29 | 1009.9 |
| 20260905114614 | 36 | 104 | 4.8 | 17.7 | 0.00 | 0.00 | 0.00 | 29 | 1010.1 |
| 20260905114514 | 36 | 100 | 3.2 | 17.7 | 0.00 | 0.00 | 0.00 | 29 | 1009.8 |
| 20260905114414 | 36 | 92 | 4.8 | 17.7 | 0.00 | 0.00 | 0.00 | 29 | 1009.9 |
| 20260905114314 | 36 | 79 | 6.4 | 17.7 | 0.00 | 0.00 | 0.00 | 29 | 1009.9 |
| 20260905114214 | 36 | 76 | 6.4 | 17.7 | 0.00 | 0.00 | 0.00 | 29 | 1009.9 |
| 20260905114114 | 36 | 65 | 4.8 | 17.7 | 0.00 | 0.00 | 0.00 | 29 | 1009.8 |
| 20260905114014 | 36 | 59 | 3.2 | 17.7 | 0.00 | 0.00 | 0.00 | 28 | 1010.0 |
| 20260905113914 | 36 | 68 | 6.4 | 17.7 | 0.00 | 0.00 | 0.00 | 29 | 1009.6 |
| 20260905113814 | 35 | 76 | 11.3 | 17.7 | 0.00 | 0.00 | 0.00 | 29 | 1010.0 |
| 20260905113714 | 35 | 79 | 8.0 | 16.1 | 0.00 | 0.00 | 0.00 | 29 | 1010.0 |
| 20260905113614 | 35 | 76 | 4.8 | 12.9 | 0.00 | 0.00 | 0.00 | 29 | 1009.9 |
| 20260905113514 | 35 | 72 | 3.2 | 12.9 | 0.00 | 0.00 | 0.00 | 29 | 1009.9 |
| 20260905113414 | 35 | 75 | 3.2 | 12.9 | 0.00 | 0.00 | 0.00 | 29 | 1009.9 |
| 20260905113314 | 35 | 80 | 3.2 | 12.9 | 0.00 | 0.00 | 0.00 | 29 | 1010.0 |
| 20260905113214 | 35 | 78 | 4.8 | 12.9 | 0.00 | 0.00 | 0.00 | 29 | 1009.8 |
| 20260905113114 | 35 | 81 | 3.2 | 16.1 | 0.00 | 0.00 | 0.00 | 29 | 1009.8 |
| 20260905113014 | 35 | 84 | 6.4 | 17.7 | 0.00 | 0.00 | 0.00 | 30 | 1009.9 |
| 20260905112914 | 35 | 84 | 6.4 | 20.9 | 0.00 | 0.00 | 0.00 | 30 | 1009.9 |
| 20260905112814 | 35 | 83 | 6.4 | 20.9 | 0.00 | 0.00 | 0.00 | 30 | 1009.9 |
| 20260905112714 | 35 | 82 | 4.8 | 20.9 | 0.00 | 0.00 | 0.00 | 29 | 1010.0 |
| 20260905112614 | 35 | 80 | 6.4 | 20.9 | 0.00 | 0.00 | 0.00 | 30 | 1010.0 |
| 20260905112514 | 35 | 80 | 6.4 | 20.9 | 0.00 | 0.00 | 0.00 | 30 | 1010.1 |
| 20260905112414 | 35 | 82 | 8.0 | 20.9 | 0.00 | 0.00 | 0.00 | 30 | 1010.0 |
| 20260905112314 | 35 | 81 | 8.0 | 20.9 | 0.00 | 0.00 | 0.00 | 30 | 1010.0 |
| 20260905112214 | 35 | 75 | 6.4 | 20.9 | 0.00 | 0.00 | 0.00 | 30 | 1010.2 |
| 20260905112114 | 35 | 73 | 9.7 | 20.9 | 0.00 | 0.00 | 0.00 | 30 | 1010.0 |
| 20260905112014 | 35 | 71 | 8.0 | 20.9 | 0.00 | 0.00 | 0.00 | 30 | 1010.1 |
| 20260905111914 | 35 | 68 | 4.8 | 20.9 | 0.00 | 0.00 | 0.00 | 30 | 1010.1 |
| 20260905111814 | 35 | 64 | 8.0 | 20.9 | 0.00 | 0.00 | 0.00 | 30 | 1010.1 |
| 20260905111714 | 35 | 65 | 4.8 | 20.9 | 0.00 | 0.00 | 0.00 | 30 | 1010.1 |
| 20260905111614 | 35 | 63 | 3.2 | 20.9 | 0.00 | 0.00 | 0.00 | 30 | 1010.4 |
| 20260905111514 | 35 | 63 | 4.8 | 20.9 | 0.00 | 0.00 | 0.00 | 30 | 1010.3 |
| 20260905111414 | 35 | 61 | 4.8 | 20.9 | 0.00 | 0.00 | 0.00 | 30 | 1010.3 |
| 20260905111314 | 35 | 59 | 3.2 | 20.9 | 0.00 | 0.00 | 0.00 | 31 | 1010.3 |
| 20260905111214 | 35 | 65 | 9.7 | 20.9 | 0.00 | 0.00 | 0.00 | 30 | 1010.2 |
| 20260905111114 | 35 | 60 | 9.7 | 20.9 | 0.00 | 0.00 | 0.00 | 30 | 1010.2 |
| 20260905111014 | 35 | 52 | 9.7 | 20.9 | 0.00 | 0.00 | 0.00 | 29 | 1010.2 |
| 20260905110913 | 35 | 47 | 11.3 | 20.9 | 0.00 | 0.00 | 0.00 | 30 | 1010.2 |
| 20260905110814 | 35 | 48 | 3.2 | 24.1 | 0.00 | 0.00 | 0.00 | 29 | 1010.2 |
| 20260905110714 | 35 | 50 | 3.2 | 24.1 | 0.00 | 0.00 | 0.00 | 30 | 1010.1 |
| 20260905110614 | 35 | 53 | 6.4 | 24.1 | 0.00 | 0.00 | 0.00 | 30 | 1010.2 |
| 20260905110513 | 35 | 53 | 3.2 | 24.1 | 0.00 | 0.00 | 0.00 | 30 | 1010.2 |
| 20260905110413 | 35 | 57 | 1.6 | 24.1 | 0.00 | 0.00 | 0.00 | 30 | 1010.2 |
| 20260905110313 | 35 | 53 | 3.2 | 24.1 | 0.00 | 0.00 | 0.00 | 30 | 1010.3 |
| 20260905110213 | 35 | 55 | 9.7 | 24.1 | 0.00 | 0.00 | 0.00 | 30 | 1010.0 |
| 20260905110114 | 35 | 57 | 6.4 | 24.1 | 0.00 | 0.00 | 0.00 | 30 | 1010.4 |
| 20260905110014 | 35 | 58 | 4.8 | 24.1 | 0.00 | 0.00 | 0.00 | 30 | 1010.1 |
| 20260905105914 | 35 | 53 | 8.0 | 24.1 | 0.00 | 0.00 | 0.00 | 30 | 1010.1 |
| 20260905105813 | 35 | 46 | 12.9 | 24.1 | 0.00 | 0.00 | 0.00 | 30 | 1010.4 |
| 20260905105714 | 35 | 42 | 12.9 | 24.1 | 0.00 | 0.00 | 0.00 | 30 | 1010.2 |
| 20260905105614 | 35 | 43 | 9.7 | 20.9 | 0.00 | 0.00 | 0.00 | 30 | 1010.2 |
| 20260905105514 | 35 | 41 | 6.4 | 27.4 | 0.00 | 0.00 | 0.00 | 30 | 1010.0 |
| 20260905105413 | 35 | 33 | 6.4 | 27.4 | 0.00 | 0.00 | 0.00 | 30 | 1010.3 |
| 20260905105314 | 34 | 36 | 6.4 | 27.4 | 0.00 | 0.00 | 0.00 | 30 | 1010.2 |
| 20260905105214 | 34 | 28 | 6.4 | 27.4 | 0.00 | 0.00 | 0.00 | 30 | 1010.4 |
| 20260905105113 | 34 | 28 | 11.3 | 27.4 | 0.00 | 0.00 | 0.00 | 30 | 1010.3 |
| 20260905105014 | 35 | 31 | 8.0 | 27.4 | 0.00 | 0.00 | 0.00 | 30 | 1010.1 |
| 20260905104913 | 35 | 38 | 14.5 | 27.4 | 0.00 | 0.00 | 0.00 | 30 | 1010.1 |
| 20260905104813 | 35 | 54 | 8.0 | 27.4 | 0.00 | 0.00 | 0.00 | 30 | 1010.3 |
| 20260905104713 | 35 | 68 | 6.4 | 27.4 | 0.00 | 0.00 | 0.00 | 30 | 1010.1 |
| 20260905104614 | 35 | 64 | 6.4 | 27.4 | 0.00 | 0.00 | 0.00 | 30 | 1010.1 |
| 20260905104513 | 35 | 63 | 14.5 | 27.4 | 0.00 | 0.00 | 0.00 | 31 | 1010.3 |
| 20260905104413 | 35 | 71 | 16.1 | 27.4 | 0.00 | 0.00 | 0.00 | 30 | 1010.4 |
| 20260905104314 | 35 | 81 | 6.4 | 20.9 | 0.00 | 0.00 | 0.00 | 30 | 1010.3 |
| 20260905104213 | 35 | 92 | 6.4 | 20.9 | 0.00 | 0.00 | 0.00 | 29 | 1010.4 |
| 20260905104114 | 35 | 77 | 3.2 | 20.9 | 0.00 | 0.00 | 0.00 | 29 | 1010.1 |
| 20260905104014 | 35 | 62 | 4.8 | 20.9 | 0.00 | 0.00 | 0.00 | 29 | 1010.2 |
| 20260905103913 | 35 | 57 | 1.6 | 20.9 | 0.00 | 0.00 | 0.00 | 29 | 1010.4 |
| 20260905103813 | 35 | 52 | 8.0 | 20.9 | 0.00 | 0.00 | 0.00 | 29 | 1010.3 |
| 20260905103713 | 35 | 45 | 4.8 | 20.9 | 0.00 | 0.00 | 0.00 | 29 | 1010.2 |
| 20260905103613 | 35 | 49 | 3.2 | 20.9 | 0.00 | 0.00 | 0.00 | 29 | 1010.2 |
| 20260905103513 | 35 | 57 | 3.2 | 22.5 | 0.00 | 0.00 | 0.00 | 30 | 1010.3 |
| 20260905103413 | 35 | 61 | 3.2 | 22.5 | 0.00 | 0.00 | 0.00 | 30 | 1010.4 |
| 20260905103313 | 35 | 42 | 11.3 | 22.5 | 0.00 | 0.00 | 0.00 | 30 | 1010.3 |
| 20260905103214 | 35 | 34 | 6.4 | 22.5 | 0.00 | 0.00 | 0.00 | 30 | 1010.4 |
| 20260905103113 | 35 | 28 | 3.2 | 22.5 | 0.00 | 0.00 | 0.00 | 30 | 1010.3 |
| 20260905103013 | 35 | 29 | 11.3 | 22.5 | 0.00 | 0.00 | 0.00 | 30 | 1010.4 |
| 20260905102914 | 35 | 20 | 6.4 | 22.5 | 0.00 | 0.00 | 0.00 | 30 | 1010.4 |
| 20260905102813 | 35 | 7 | 3.2 | 22.5 | 0.00 | 0.00 | 0.00 | 30 | 1010.4 |
| 20260905102713 | 35 | 5 | 1.6 | 22.5 | 0.00 | 0.00 | 0.00 | 30 | 1010.3 |
| 20260905102613 | 35 | 11 | 3.2 | 22.5 | 0.00 | 0.00 | 0.00 | 30 | 1010.2 |
| 20260905102513 | 35 | 18 | 6.4 | 27.4 | 0.00 | 0.00 | 0.00 | 30 | 1010.6 |
| 20260905102413 | 35 | 27 | 12.9 | 27.4 | 0.00 | 0.00 | 0.00 | 30 | 1010.4 |
| 20260905102313 | 35 | 30 | 8.0 | 27.4 | 0.00 | 0.00 | 0.00 | 30 | 1010.5 |
| 20260905102213 | 35 | 24 | 4.8 | 27.4 | 0.00 | 0.00 | 0.00 | 30 | 1010.5 |
| 20260905102113 | 35 | 23 | 3.2 | 27.4 | 0.00 | 0.00 | 0.00 | 30 | 1010.4 |
| 20260905102013 | 35 | 25 | 3.2 | 27.4 | 0.00 | 0.00 | 0.00 | 30 | 1010.5 |
| 20260905101913 | 35 | 30 | 3.2 | 27.4 | 0.00 | 0.00 | 0.00 | 30 | 1010.4 |
| 20260905101813 | 35 | 38 | 4.8 | 27.4 | 0.00 | 0.00 | 0.00 | 30 | 1010.5 |
| 20260905101713 | 35 | 40 | 8.0 | 27.4 | 0.00 | 0.00 | 0.00 | 30 | 1010.5 |
| 20260905101614 | 35 | 36 | 8.0 | 27.4 | 0.00 | 0.00 | 0.00 | 30 | 1010.5 |
| 20260905101513 | 35 | 41 | 12.9 | 24.1 | 0.00 | 0.00 | 0.00 | 30 | 1010.5 |
| 20260905101413 | 35 | 27 | 4.8 | 16.1 | 0.00 | 0.00 | 0.00 | 30 | 1010.5 |
| 20260905101314 | 35 | 35 | 3.2 | 16.1 | 0.00 | 0.00 | 0.00 | 30 | 1010.5 |
| 20260905101214 | 35 | 41 | 6.4 | 22.5 | 0.00 | 0.00 | 0.00 | 30 | 1010.4 |
| 20260905101113 | 35 | 40 | 6.4 | 22.5 | 0.00 | 0.00 | 0.00 | 30 | 1010.3 |
| 20260905101013 | 34 | 48 | 6.4 | 22.5 | 0.00 | 0.00 | 0.00 | 31 | 1010.4 |
| 20260905100913 | 34 | 42 | 3.2 | 22.5 | 0.00 | 0.00 | 0.00 | 31 | 1010.4 |
| 20260905100813 | 34 | 37 | 3.2 | 22.5 | 0.00 | 0.00 | 0.00 | 30 | 1010.5 |
| 20260905100713 | 34 | 35 | 1.6 | 22.5 | 0.00 | 0.00 | 0.00 | 31 | 1010.2 |
| 20260905100613 | 35 | 35 | 6.4 | 22.5 | 0.00 | 0.00 | 0.00 | 31 | 1010.7 |
| 20260905100513 | 35 | 22 | 6.4 | 22.5 | 0.00 | 0.00 | 0.00 | 31 | 1010.4 |
| 20260905100413 | 35 | 14 | 6.4 | 22.5 | 0.00 | 0.00 | 0.00 | 31 | 1010.6 |
| 20260905100313 | 35 | 14 | 9.7 | 22.5 | 0.00 | 0.00 | 0.00 | 31 | 1010.5 |
| 20260905100213 | 35 | 12 | 11.3 | 20.9 | 0.00 | 0.00 | 0.00 | 30 | 1010.7 |
| 20260905100113 | 35 | 23 | 6.4 | 19.3 | 0.00 | 0.00 | 0.00 | 30 | 1010.6 |
| 20260905100013 | 34 | 19 | 6.4 | 19.3 | 0.00 | 0.00 | 0.00 | 30 | 1010.6 |
| 20260905095913 | 34 | 26 | 6.4 | 19.3 | 0.00 | 0.00 | 0.00 | 30 | 1010.6 |
| 20260905095813 | 33 | 43 | 0.0 | 19.3 | 0.00 | 0.00 | 0.00 | 30 | 1010.3 |
| 20260905095713 | 33 | 47 | 0.0 | 19.3 | 0.00 | 0.00 | 0.00 | 30 | 1010.6 |
| 20260905095613 | 33 | 45 | 3.2 | 19.3 | 0.00 | 0.00 | 0.00 | 30 | 1010.6 |
| 20260905095513 | 33 | 44 | 4.8 | 19.3 | 0.00 | 0.00 | 0.00 | 31 | 1010.6 |
| 20260905095413 | 34 | 47 | 12.9 | 19.3 | 0.00 | 0.00 | 0.00 | 31 | 1010.5 |
| 20260905095313 | 34 | 45 | 12.9 | 19.3 | 0.00 | 0.00 | 0.00 | 31 | 1010.5 |
| 20260905095213 | 34 | 43 | 6.4 | 19.3 | 0.00 | 0.00 | 0.00 | 31 | 1010.7 |
| 20260905095113 | 35 | 40 | 9.7 | 19.3 | 0.00 | 0.00 | 0.00 | 31 | 1010.5 |
| 20260905095013 | 35 | 42 | 9.7 | 19.3 | 0.00 | 0.00 | 0.00 | 31 | 1010.5 |
| 20260905094913 | 35 | 34 | 12.9 | 19.3 | 0.00 | 0.00 | 0.00 | 31 | 1010.7 |
| 20260905094813 | 35 | 10 | 12.9 | 19.3 | 0.00 | 0.00 | 0.00 | 31 | 1010.5 |
| 20260905094713 | 35 | 7 | 6.4 | 16.1 | 0.00 | 0.00 | 0.00 | 31 | 1010.7 |
| 20260905094614 | 34 | 12 | 3.2 | 16.1 | 0.00 | 0.00 | 0.00 | 30 | 1010.8 |
| 20260905094513 | 34 | 19 | 3.2 | 16.1 | 0.00 | 0.00 | 0.00 | 31 | 1010.8 |
| 20260905094413 | 34 | 22 | 3.2 | 16.1 | 0.00 | 0.00 | 0.00 | 31 | 1010.7 |
| 20260905094313 | 34 | 24 | 3.2 | 16.1 | 0.00 | 0.00 | 0.00 | 30 | 1010.6 |
| 20260905094213 | 34 | 29 | 1.6 | 16.1 | 0.00 | 0.00 | 0.00 | 30 | 1010.4 |
| 20260905094113 | 34 | 30 | 3.2 | 16.1 | 0.00 | 0.00 | 0.00 | 31 | 1010.9 |
| 20260905094013 | 34 | 28 | 3.2 | 16.1 | 0.00 | 0.00 | 0.00 | 30 | 1010.7 |
| 20260905093913 | 34 | 36 | 3.2 | 17.7 | 0.00 | 0.00 | 0.00 | 31 | 1010.8 |
| 20260905093813 | 34 | 44 | 11.3 | 17.7 | 0.00 | 0.00 | 0.00 | 31 | 1010.6 |
| 20260905093714 | 34 | 42 | 11.3 | 17.7 | 0.00 | 0.00 | 0.00 | 31 | 1010.7 |
| 20260905093613 | 34 | 41 | 11.3 | 17.7 | 0.00 | 0.00 | 0.00 | 31 | 1010.6 |
| 20260905093513 | 34 | 44 | 4.8 | 17.7 | 0.00 | 0.00 | 0.00 | 31 | 1010.5 |
| 20260905093413 | 34 | 44 | 4.8 | 17.7 | 0.00 | 0.00 | 0.00 | 31 | 1010.8 |
| 20260905093313 | 34 | 42 | 3.2 | 17.7 | 0.00 | 0.00 | 0.00 | 31 | 1010.7 |
| 20260905093213 | 35 | 37 | 3.2 | 17.7 | 0.00 | 0.00 | 0.00 | 31 | 1010.6 |
| 20260905093113 | 35 | 33 | 3.2 | 24.1 | 0.00 | 0.00 | 0.00 | 31 | 1010.9 |
| 20260905093013 | 35 | 25 | 6.4 | 24.1 | 0.00 | 0.00 | 0.00 | 32 | 1010.7 |
| 20260905092913 | 35 | 18 | 9.7 | 24.1 | 0.00 | 0.00 | 0.00 | 31 | 1010.8 |
| 20260905092813 | 35 | 11 | 6.4 | 24.1 | 0.00 | 0.00 | 0.00 | 31 | 1010.6 |
| 20260905092713 | 34 | 8 | 4.8 | 24.1 | 0.00 | 0.00 | 0.00 | 30 | 1010.7 |
| 20260905092613 | 34 | 8 | 1.6 | 24.1 | 0.00 | 0.00 | 0.00 | 31 | 1010.8 |
| 20260905092513 | 34 | 7 | 3.2 | 24.1 | 0.00 | 0.00 | 0.00 | 31 | 1010.6 |
| 20260905092413 | 34 | 11 | 3.2 | 24.1 | 0.00 | 0.00 | 0.00 | 32 | 1010.7 |
| 20260905092313 | 34 | 16 | 3.2 | 24.1 | 0.00 | 0.00 | 0.00 | 32 | 1010.7 |
| 20260905092213 | 34 | 17 | 3.2 | 24.1 | 0.00 | 0.00 | 0.00 | 32 | 1010.8 |
| 20260905092113 | 34 | 18 | 6.4 | 24.1 | 0.00 | 0.00 | 0.00 | 32 | 1010.9 |
| 20260905092013 | 34 | 27 | 6.4 | 19.3 | 0.00 | 0.00 | 0.00 | 32 | 1010.8 |
| 20260905091913 | 34 | 33 | 6.4 | 19.3 | 0.00 | 0.00 | 0.00 | 32 | 1010.6 |
| 20260905091813 | 33 | 38 | 4.8 | 19.3 | 0.00 | 0.00 | 0.00 | 32 | 1010.7 |
| 20260905091713 | 33 | 41 | 3.2 | 19.3 | 0.00 | 0.00 | 0.00 | 32 | 1010.7 |
| 20260905091613 | 33 | 44 | 6.4 | 19.3 | 0.00 | 0.00 | 0.00 | 33 | 1010.5 |
| 20260905091513 | 33 | 45 | 4.8 | 19.3 | 0.00 | 0.00 | 0.00 | 33 | 1010.7 |
| 20260905091413 | 33 | 45 | 8.0 | 19.3 | 0.00 | 0.00 | 0.00 | 33 | 1010.7 |
| 20260905091313 | 33 | 44 | 4.8 | 19.3 | 0.00 | 0.00 | 0.00 | 32 | 1010.8 |
| 20260905091213 | 33 | 47 | 6.4 | 19.3 | 0.00 | 0.00 | 0.00 | 33 | 1010.7 |
| 20260905091113 | 33 | 51 | 6.4 | 19.3 | 0.00 | 0.00 | 0.00 | 33 | 1010.6 |
| 20260905091013 | 33 | 49 | 8.0 | 19.3 | 0.00 | 0.00 | 0.00 | 33 | 1010.6 |
| 20260905090913 | 33 | 39 | 4.8 | 14.5 | 0.00 | 0.00 | 0.00 | 33 | 1010.7 |
| 20260905090813 | 33 | 30 | 3.2 | 16.1 | 0.00 | 0.00 | 0.00 | 33 | 1010.6 |
| 20260905090713 | 33 | 24 | 1.6 | 16.1 | 0.00 | 0.00 | 0.00 | 33 | 1010.8 |
| 20260905090613 | 33 | 28 | 1.6 | 16.1 | 0.00 | 0.00 | 0.00 | 33 | 1010.7 |
| 20260905090513 | 33 | 29 | 4.8 | 16.1 | 0.00 | 0.00 | 0.00 | 32 | 1010.9 |
| 20260905090413 | 33 | 16 | 3.2 | 16.1 | 0.00 | 0.00 | 0.00 | 33 | 1010.8 |
| 20260905090313 | 33 | 10 | 6.4 | 17.7 | 0.00 | 0.00 | 0.00 | 32 | 1010.7 |
| 20260905090213 | 33 | 16 | 6.4 | 17.7 | 0.00 | 0.00 | 0.00 | 33 | 1010.7 |
| 20260905090113 | 33 | 16 | 4.8 | 17.7 | 0.00 | 0.00 | 0.00 | 33 | 1010.8 |
| 20260905090013 | 33 | 20 | 4.8 | 17.7 | 0.00 | 0.00 | 0.00 | 33 | 1010.7 |
| 20260905085913 | 33 | 20 | 9.7 | 17.7 | 0.00 | 0.00 | 0.00 | 33 | 1010.7 |
| 20260905085813 | 33 | 15 | 3.2 | 17.7 | 0.00 | 0.00 | 0.00 | 32 | 1010.7 |
| 20260905085713 | 33 | 15 | 3.2 | 17.7 | 0.00 | 0.00 | 0.00 | 32 | 1010.7 |
| 20260905085613 | 33 | 11 | 3.2 | 17.7 | 0.00 | 0.00 | 0.00 | 32 | 1010.7 |
| 20260905085513 | 33 | 1 | 4.8 | 17.7 | 0.00 | 0.00 | 0.00 | 32 | 1010.7 |
| 20260905085413 | 33 | 359 | 6.4 | 17.7 | 0.00 | 0.00 | 0.00 | 33 | 1010.8 |
| 20260905085313 | 33 | 348 | 6.4 | 14.5 | 0.00 | 0.00 | 0.00 | 32 | 1010.7 |
| 20260905085213 | 33 | 346 | 4.8 | 14.5 | 0.00 | 0.00 | 0.00 | 32 | 1010.8 |
| 20260905085113 | 33 | 342 | 3.2 | 14.5 | 0.00 | 0.00 | 0.00 | 33 | 1010.6 |
| 20260905085013 | 33 | 341 | 4.8 | 14.5 | 0.00 | 0.00 | 0.00 | 33 | 1010.9 |
| 20260905084913 | 33 | 340 | 4.8 | 17.7 | 0.00 | 0.00 | 0.00 | 33 | 1010.8 |
| 20260905084813 | 33 | 340 | 4.8 | 17.7 | 0.00 | 0.00 | 0.00 | 33 | 1010.9 |
| 20260905084713 | 33 | 339 | 4.8 | 17.7 | 0.00 | 0.00 | 0.00 | 33 | 1010.9 |
| 20260905084613 | 33 | 338 | 6.4 | 17.7 | 0.00 | 0.00 | 0.00 | 33 | 1010.8 |
| 20260905084513 | 33 | 352 | 6.4 | 17.7 | 0.00 | 0.00 | 0.00 | 33 | 1010.8 |
| 20260905084413 | 33 | 360 | 6.4 | 17.7 | 0.00 | 0.00 | 0.00 | 33 | 1010.8 |
| 20260905084313 | 33 | 15 | 8.0 | 17.7 | 0.00 | 0.00 | 0.00 | 33 | 1010.8 |
| 20260905084213 | 33 | 11 | 1.6 | 17.7 | 0.00 | 0.00 | 0.00 | 33 | 1010.8 |
| 20260905084113 | 33 | 11 | 4.8 | 17.7 | 0.00 | 0.00 | 0.00 | 33 | 1010.7 |
| 20260905084013 | 33 | 10 | 3.2 | 17.7 | 0.00 | 0.00 | 0.00 | 33 | 1010.9 |
| 20260905083913 | 32 | 23 | 6.4 | 20.9 | 0.00 | 0.00 | 0.00 | 34 | 1010.6 |
| 20260905083813 | 32 | 21 | 3.2 | 20.9 | 0.00 | 0.00 | 0.00 | 34 | 1010.8 |
| 20260905083714 | 32 | 19 | 1.6 | 20.9 | 0.00 | 0.00 | 0.00 | 35 | 1010.8 |
| 20260905083613 | 32 | 16 | 4.8 | 20.9 | 0.00 | 0.00 | 0.00 | 35 | 1010.8 |
| 20260905083513 | 32 | 16 | 3.2 | 20.9 | 0.00 | 0.00 | 0.00 | 35 | 1010.7 |
| 20260905083413 | 32 | 16 | 3.2 | 20.9 | 0.00 | 0.00 | 0.00 | 36 | 1010.7 |
| 20260905083313 | 32 | 15 | 3.2 | 20.9 | 0.00 | 0.00 | 0.00 | 36 | 1010.9 |
| 20260905083213 | 32 | 12 | 3.2 | 20.9 | 0.00 | 0.00 | 0.00 | 36 | 1011.0 |
| 20260905083113 | 32 | 11 | 9.7 | 20.9 | 0.00 | 0.00 | 0.00 | 36 | 1010.9 |
| 20260905083013 | 32 | 8 | 6.4 | 20.9 | 0.00 | 0.00 | 0.00 | 35 | 1010.9 |
| 20260905082913 | 32 | 4 | 9.7 | 17.7 | 0.00 | 0.00 | 0.00 | 37 | 1010.9 |
| 20260905082813 | 32 | 10 | 9.7 | 17.7 | 0.00 | 0.00 | 0.00 | 37 | 1010.8 |
| 20260905082713 | 32 | 10 | 9.7 | 17.7 | 0.00 | 0.00 | 0.00 | 37 | 1011.0 |
| 20260905082613 | 32 | 10 | 4.8 | 17.7 | 0.00 | 0.00 | 0.00 | 37 | 1010.7 |
| 20260905082513 | 32 | 10 | 6.4 | 17.7 | 0.00 | 0.00 | 0.00 | 37 | 1010.9 |
| 20260905082413 | 32 | 15 | 8.0 | 19.3 | 0.00 | 0.00 | 0.00 | 36 | 1010.7 |
| 20260905082313 | 32 | 17 | 6.4 | 19.3 | 0.00 | 0.00 | 0.00 | 37 | 1010.9 |
| 20260905082213 | 31 | 20 | 8.0 | 19.3 | 0.00 | 0.00 | 0.00 | 37 | 1010.8 |
| 20260905082113 | 31 | 21 | 8.0 | 19.3 | 0.00 | 0.00 | 0.00 | 37 | 1010.7 |
| 20260905082013 | 31 | 24 | 4.8 | 19.3 | 0.00 | 0.00 | 0.00 | 37 | 1010.7 |
| 20260905081913 | 31 | 21 | 6.4 | 19.3 | 0.00 | 0.00 | 0.00 | 38 | 1010.7 |
| 20260905081813 | 31 | 17 | 4.8 | 19.3 | 0.00 | 0.00 | 0.00 | 38 | 1010.7 |
| 20260905081713 | 31 | 21 | 12.9 | 19.3 | 0.00 | 0.00 | 0.00 | 37 | 1010.6 |
| 20260905081613 | 31 | 27 | 6.4 | 19.3 | 0.00 | 0.00 | 0.00 | 37 | 1010.8 |
| 20260905081513 | 31 | 29 | 11.3 | 19.3 | 0.00 | 0.00 | 0.00 | 38 | 1010.8 |
| 20260905081413 | 31 | 26 | 11.3 | 19.3 | 0.00 | 0.00 | 0.00 | 38 | 1010.8 |
| 20260905081313 | 31 | 23 | 8.0 | 14.5 | 0.00 | 0.00 | 0.00 | 38 | 1010.7 |
| 20260905081213 | 31 | 16 | 6.4 | 14.5 | 0.00 | 0.00 | 0.00 | 38 | 1010.8 |
| 20260905081113 | 31 | 19 | 4.8 | 14.5 | 0.00 | 0.00 | 0.00 | 38 | 1010.9 |
| 20260905081013 | 31 | 20 | 6.4 | 14.5 | 0.00 | 0.00 | 0.00 | 38 | 1010.6 |
| 20260905080913 | 31 | 20 | 4.8 | 12.9 | 0.00 | 0.00 | 0.00 | 38 | 1010.8 |
| 20260905080813 | 31 | 17 | 6.4 | 12.9 | 0.00 | 0.00 | 0.00 | 37 | 1010.6 |
| 20260905080713 | 31 | 10 | 3.2 | 12.9 | 0.00 | 0.00 | 0.00 | 37 | 1010.7 |
| 20260905080613 | 31 | 2 | 4.8 | 12.9 | 0.00 | 0.00 | 0.00 | 38 | 1010.5 |
| 20260905080513 | 32 | 1 | 4.8 | 12.9 | 0.00 | 0.00 | 0.00 | 37 | 1010.7 |
| 20260905080413 | 32 | 352 | 4.8 | 12.9 | 0.00 | 0.00 | 0.00 | 37 | 1010.7 |
| 20260905080313 | 32 | 347 | 1.6 | 12.9 | 0.00 | 0.00 | 0.00 | 37 | 1010.8 |
| 20260905080213 | 32 | 359 | 3.2 | 12.9 | 0.00 | 0.00 | 0.00 | 37 | 1010.5 |
| 20260905080113 | 32 | 357 | 6.4 | 12.9 | 0.00 | 0.00 | 0.00 | 37 | 1010.4 |
| 20260905080013 | 32 | 2 | 4.8 | 11.3 | 0.00 | 0.00 | 0.00 | 37 | 1010.6 |
| 20260905075913 | 32 | 3 | 6.4 | 11.3 | 0.00 | 0.00 | 0.00 | 37 | 1010.7 |
| 20260905075813 | 32 | 5 | 4.8 | 11.3 | 0.00 | 0.00 | 0.00 | 36 | 1010.4 |
| 20260905075713 | 32 | 2 | 4.8 | 11.3 | 0.00 | 0.00 | 0.00 | 36 | 1010.6 |
| 20260905075613 | 32 | 353 | 1.6 | 6.4 | 0.00 | 0.00 | 0.00 | 36 | 1010.4 |
| 20260905075513 | 32 | 353 | 1.6 | 6.4 | 0.00 | 0.00 | 0.00 | 36 | 1010.6 |
| 20260905075413 | 32 | 358 | 1.6 | 6.4 | 0.00 | 0.00 | 0.00 | 37 | 1010.4 |
| 20260905075313 | 32 | 358 | 1.6 | 6.4 | 0.00 | 0.00 | 0.00 | 37 | 1010.4 |
| 20260905075213 | 32 | 358 | 3.2 | 6.4 | 0.00 | 0.00 | 0.00 | 37 | 1010.5 |
| 20260905075113 | 32 | 358 | 3.2 | 6.4 | 0.00 | 0.00 | 0.00 | 37 | 1010.5 |
| 20260905075013 | 32 | 359 | 1.6 | 6.4 | 0.00 | 0.00 | 0.00 | 37 | 1010.3 |
| 20260905074913 | 32 | 5 | 1.6 | 6.4 | 0.00 | 0.00 | 0.00 | 37 | 1010.4 |
| 20260905074813 | 32 | 11 | 1.6 | 9.7 | 0.00 | 0.00 | 0.00 | 38 | 1010.4 |
| 20260905074713 | 32 | 14 | 3.2 | 9.7 | 0.00 | 0.00 | 0.00 | 38 | 1010.3 |
| 20260905074613 | 32 | 20 | 1.6 | 9.7 | 0.00 | 0.00 | 0.00 | 38 | 1010.4 |
| 20260905074513 | 31 | 20 | 1.6 | 9.7 | 0.00 | 0.00 | 0.00 | 38 | 1010.5 |
| 20260905074413 | 31 | 19 | 1.6 | 9.7 | 0.00 | 0.00 | 0.00 | 38 | 1010.5 |
| 20260905074313 | 31 | 19 | 1.6 | 9.7 | 0.00 | 0.00 | 0.00 | 38 | 1010.4 |
| 20260905074213 | 31 | 16 | 0.0 | 9.7 | 0.00 | 0.00 | 0.00 | 38 | 1010.3 |
| 20260905074113 | 31 | 12 | 0.0 | 9.7 | 0.00 | 0.00 | 0.00 | 38 | 1010.2 |
| 20260905074013 | 31 | 7 | 3.2 | 9.7 | 0.00 | 0.00 | 0.00 | 39 | 1010.4 |
| 20260905073913 | 31 | 353 | 3.2 | 9.7 | 0.00 | 0.00 | 0.00 | 39 | 1010.4 |
| 20260905073813 | 31 | 334 | 0.0 | 6.4 | 0.00 | 0.00 | 0.00 | 39 | 1010.4 |
| 20260905073713 | 31 | 326 | 0.0 | 8.0 | 0.00 | 0.00 | 0.00 | 39 | 1010.3 |
| 20260905073613 | 31 | 321 | 0.0 | 8.0 | 0.00 | 0.00 | 0.00 | 39 | 1010.3 |
| 20260905073513 | 31 | 316 | 1.6 | 12.9 | 0.00 | 0.00 | 0.00 | 39 | 1010.5 |
| 20260905073413 | 31 | 313 | 3.2 | 12.9 | 0.00 | 0.00 | 0.00 | 39 | 1010.3 |
| 20260905073313 | 31 | 310 | 3.2 | 12.9 | 0.00 | 0.00 | 0.00 | 40 | 1010.4 |
| 20260905073213 | 31 | 309 | 1.6 | 12.9 | 0.00 | 0.00 | 0.00 | 40 | 1010.3 |
| 20260905073113 | 31 | 313 | 1.6 | 12.9 | 0.00 | 0.00 | 0.00 | 40 | 1010.4 |
| 20260905073013 | 31 | 313 | 3.2 | 12.9 | 0.00 | 0.00 | 0.00 | 40 | 1010.3 |
| 20260905072913 | 31 | 320 | 3.2 | 12.9 | 0.00 | 0.00 | 0.00 | 40 | 1010.3 |
| 20260905072813 | 31 | 326 | 3.2 | 12.9 | 0.00 | 0.00 | 0.00 | 40 | 1010.1 |
| 20260905072713 | 31 | 333 | 4.8 | 12.9 | 0.00 | 0.00 | 0.00 | 40 | 1010.3 |
| 20260905072613 | 32 | 343 | 6.4 | 12.9 | 0.00 | 0.00 | 0.00 | 40 | 1010.4 |
| 20260905072513 | 32 | 356 | 6.4 | 12.9 | 0.00 | 0.00 | 0.00 | 40 | 1010.2 |
| 20260905072412 | 32 | 5 | 3.2 | 8.0 | 0.00 | 0.00 | 0.00 | 39 | 1010.1 |
| 20260905072312 | 32 | 23 | 3.2 | 8.0 | 0.00 | 0.00 | 0.00 | 39 | 1010.2 |
| 20260905072213 | 33 | 43 | 3.2 | 8.0 | 0.00 | 0.00 | 0.00 | 38 | 1010.1 |
| 20260905072112 | 33 | 64 | 0.0 | 9.7 | 0.00 | 0.00 | 0.00 | 37 | 1010.3 |
| 20260905072013 | 33 | 83 | 3.2 | 12.9 | 0.00 | 0.00 | 0.00 | 38 | 1010.2 |
| 20260905071912 | 33 | 97 | 1.6 | 12.9 | 0.00 | 0.00 | 0.00 | 35 | 1010.3 |
| 20260905071812 | 33 | 107 | 1.6 | 12.9 | 0.00 | 0.00 | 0.00 | 36 | 1010.3 |
| 20260905071712 | 33 | 115 | 3.2 | 12.9 | 0.00 | 0.00 | 0.00 | 34 | 1010.3 |
| 20260905071612 | 33 | 121 | 3.2 | 12.9 | 0.00 | 0.00 | 0.00 | 33 | 1010.3 |
| 20260905071512 | 32 | 125 | 3.2 | 12.9 | 0.00 | 0.00 | 0.00 | 34 | 1010.3 |
| 20260905071412 | 32 | 128 | 3.2 | 12.9 | 0.00 | 0.00 | 0.00 | 34 | 1010.1 |
| 20260905071312 | 32 | 131 | 3.2 | 12.9 | 0.00 | 0.00 | 0.00 | 33 | 1010.3 |
| 20260905071212 | 32 | 134 | 3.2 | 12.9 | 0.00 | 0.00 | 0.00 | 34 | 1010.3 |
| 20260905071112 | 32 | 135 | 6.4 | 12.9 | 0.00 | 0.00 | 0.00 | 34 | 1010.2 |
| 20260905071012 | 32 | 135 | 6.4 | 11.3 | 0.00 | 0.00 | 0.00 | 34 | 1010.2 |
| 20260905070912 | 32 | 135 | 4.8 | 11.3 | 0.00 | 0.00 | 0.00 | 34 | 1010.2 |
| 20260905070811 | 32 | 135 | 4.8 | 12.9 | 0.00 | 0.00 | 0.00 | 34 | 1010.2 |
| 20260905070711 | 32 | 135 | 6.4 | 12.9 | 0.00 | 0.00 | 0.00 | 34 | 1010.1 |
| 20260905070611 | 32 | 135 | 4.8 | 12.9 | 0.00 | 0.00 | 0.00 | 35 | 1010.0 |
| 20260905070510 | 32 | 135 | 6.4 | 12.9 | 0.00 | 0.00 | 0.00 | 35 | 1010.2 |
| 20260905070410 | 32 | 135 | 6.4 | 12.9 | 0.00 | 0.00 | 0.00 | 35 | 1010.0 |
| 20260905070310 | 32 | 135 | 6.4 | 12.9 | 0.00 | 0.00 | 0.00 | 35 | 1010.2 |
| 20260905070209 | 32 | 135 | 6.4 | 12.9 | 0.00 | 0.00 | 0.00 | 35 | 1010.2 |
| 20260905070110 | 32 | 138 | 4.8 | 12.9 | 0.00 | 0.00 | 0.00 | 35 | 1010.1 |
| 20260905070009 | 32 | 143 | 4.8 | 12.9 | 0.00 | 0.00 | 0.00 | 35 | 1010.2 |
| 20260905065909 | 32 | 147 | 6.4 | 12.9 | 0.00 | 0.00 | 0.00 | 35 | 1010.2 |
| 20260905065809 | 31 | 146 | 8.0 | 12.9 | 0.00 | 0.00 | 0.00 | 36 | 1010.0 |
| 20260905065709 | 31 | 147 | 4.8 | 12.9 | 0.00 | 0.00 | 0.00 | 36 | 1010.2 |
| 20260905065609 | 31 | 152 | 6.4 | 14.5 | 0.00 | 0.00 | 0.00 | 35 | 1010.0 |
| 20260905065509 | 31 | 157 | 6.4 | 14.5 | 0.00 | 0.00 | 0.00 | 36 | 1010.3 |
| 20260905065409 | 31 | 158 | 4.8 | 14.5 | 0.00 | 0.00 | 0.00 | 35 | 1010.3 |
| 20260905065309 | 31 | 162 | 6.4 | 14.5 | 0.00 | 0.00 | 0.00 | 35 | 1010.2 |
| 20260905065209 | 31 | 166 | 6.4 | 14.5 | 0.00 | 0.00 | 0.00 | 35 | 1010.2 |
| 20260905065109 | 31 | 168 | 6.4 | 16.1 | 0.00 | 0.00 | 0.00 | 36 | 1010.2 |
| 20260905065009 | 31 | 169 | 9.7 | 16.1 | 0.00 | 0.00 | 0.00 | 35 | 1010.2 |
| 20260905064909 | 31 | 170 | 6.4 | 16.1 | 0.00 | 0.00 | 0.00 | 36 | 1010.0 |
| 20260905064809 | 30 | 170 | 8.0 | 16.1 | 0.00 | 0.00 | 0.00 | 37 | 1010.3 |
| 20260905064709 | 30 | 169 | 8.0 | 16.1 | 0.00 | 0.00 | 0.00 | 36 | 1010.2 |
| 20260905064609 | 30 | 167 | 8.0 | 17.7 | 0.00 | 0.00 | 0.00 | 37 | 1010.1 |
| 20260905064508 | 30 | 167 | 8.0 | 17.7 | 0.00 | 0.00 | 0.00 | 37 | 1010.3 |
| 20260905064408 | 30 | 172 | 8.0 | 17.7 | 0.00 | 0.00 | 0.00 | 38 | 1010.2 |
| 20260905064308 | 30 | 173 | 8.0 | 17.7 | 0.00 | 0.00 | 0.00 | 38 | 1010.2 |
| 20260905064209 | 30 | 168 | 9.7 | 17.7 | 0.00 | 0.00 | 0.00 | 38 | 1010.0 |
| 20260905064108 | 30 | 168 | 8.0 | 17.7 | 0.00 | 0.00 | 0.00 | 38 | 1010.2 |
| 20260905064009 | 30 | 168 | 8.0 | 20.9 | 0.00 | 0.00 | 0.00 | 38 | 1010.1 |
| 20260905063911 | 30 | 169 | 8.0 | 20.9 | 0.00 | 0.00 | 0.00 | 38 | 1010.1 |
| 20260905063808 | 30 | 169 | 8.0 | 20.9 | 0.00 | 0.00 | 0.00 | 39 | 1010.4 |
| 20260905063708 | 30 | 169 | 8.0 | 20.9 | 0.00 | 0.00 | 0.00 | 39 | 1010.3 |
| 20260905063608 | 30 | 172 | 9.7 | 20.9 | 0.00 | 0.00 | 0.00 | 39 | 1010.1 |
| 20260905063510 | 30 | 171 | 9.7 | 20.9 | 0.00 | 0.00 | 0.00 | 39 | 1010.2 |
| 20260905063408 | 30 | 167 | 11.3 | 20.9 | 0.00 | 0.00 | 0.00 | 39 | 1010.2 |
| 20260905063309 | 30 | 164 | 11.3 | 20.9 | 0.00 | 0.00 | 0.00 | 40 | 1010.2 |
| 20260905063209 | 30 | 168 | 9.7 | 20.9 | 0.00 | 0.00 | 0.00 | 39 | 1010.2 |
| 20260905063108 | 29 | 170 | 11.3 | 20.9 | 0.00 | 0.00 | 0.00 | 40 | 1010.2 |
| 20260905063008 | 29 | 169 | 12.9 | 20.9 | 0.00 | 0.00 | 0.00 | 40 | 1010.3 |
| 20260905062908 | 29 | 173 | 12.9 | 22.5 | 0.00 | 0.00 | 0.00 | 40 | 1010.2 |
| 20260905062807 | 29 | 177 | 9.7 | 22.5 | 0.00 | 0.00 | 0.00 | 40 | 1010.2 |
| 20260905062708 | 29 | 180 | 12.9 | 22.5 | 0.00 | 0.00 | 0.00 | 40 | 1010.1 |
| 20260905062608 | 29 | 178 | 12.9 | 22.5 | 0.00 | 0.00 | 0.00 | 40 | 1010.2 |
| 20260905062507 | 29 | 175 | 9.7 | 22.5 | 0.00 | 0.00 | 0.00 | 40 | 1010.2 |
| 20260905062407 | 29 | 175 | 11.3 | 22.5 | 0.00 | 0.00 | 0.00 | 40 | 1010.1 |
| 20260905062307 | 29 | 179 | 12.9 | 22.5 | 0.00 | 0.00 | 0.00 | 40 | 1010.0 |
| 20260905062207 | 28 | 179 | 11.3 | 22.5 | 0.00 | 0.00 | 0.00 | 40 | 1010.2 |
| 20260905062107 | 28 | 179 | 12.9 | 22.5 | 0.00 | 0.00 | 0.00 | 40 | 1010.2 |
| 20260905062007 | 28 | 179 | 12.9 | 22.5 | 0.00 | 0.00 | 0.00 | 40 | 1010.3 |
| 20260905061907 | 28 | 175 | 12.9 | 22.5 | 0.00 | 0.00 | 0.00 | 40 | 1010.1 |
| 20260905061807 | 28 | 174 | 11.3 | 24.1 | 0.00 | 0.00 | 0.00 | 41 | 1010.2 |
| 20260905061707 | 28 | 174 | 11.3 | 24.1 | 0.00 | 0.00 | 0.00 | 41 | 1010.4 |
| 20260905061607 | 28 | 176 | 12.9 | 24.1 | 0.00 | 0.00 | 0.00 | 41 | 1010.2 |
| 20260905061406 | 28 | 180 | 12.9 | 24.1 | 0.00 | 0.00 | 0.00 | 41 | 1010.1 |
| 20260905061307 | 28 | 173 | 12.9 | 24.1 | 0.00 | 0.00 | 0.00 | 40 | 1010.2 |
| 20260905061206 | 28 | 168 | 12.9 | 24.1 | 0.00 | 0.00 | 0.00 | 40 | 1010.0 |
| 20260905061106 | 28 | 163 | 12.9 | 24.1 | 0.00 | 0.00 | 0.00 | 41 | 1010.2 |
| 20260905061006 | 28 | 158 | 12.9 | 24.1 | 0.00 | 0.00 | 0.00 | 41 | 1010.1 |
| 20260905060906 | 28 | 154 | 11.3 | 24.1 | 0.00 | 0.00 | 0.00 | 41 | 1010.2 |
| 20260905060806 | 28 | 149 | 16.1 | 24.1 | 0.00 | 0.00 | 0.00 | 41 | 1010.1 |
| 20260905060706 | 28 | 145 | 14.5 | 24.1 | 0.00 | 0.00 | 0.00 | 41 | 1010.1 |
| 20260905060606 | 28 | 141 | 17.7 | 30.6 | 0.00 | 0.00 | 0.00 | 41 | 1010.2 |
| 20260905060506 | 28 | 138 | 16.1 | 30.6 | 0.00 | 0.00 | 0.00 | 41 | 1010.1 |
| 20260905060406 | 28 | 136 | 12.9 | 30.6 | 0.00 | 0.00 | 0.00 | 41 | 1010.2 |
| 20260905060306 | 28 | 140 | 17.7 | 30.6 | 0.00 | 0.00 | 0.00 | 41 | 1010.1 |
| 20260905060206 | 28 | 144 | 16.1 | 30.6 | 0.00 | 0.00 | 0.00 | 41 | 1010.3 |
| 20260905060105 | 28 | 145 | 17.7 | 30.6 | 0.00 | 0.00 | 0.00 | 41 | 1010.4 |
| 20260905060005 | 27 | 145 | 16.1 | 30.6 | 0.00 | 0.00 | 0.00 | 41 | 1010.2 |
| 20260905055905 | 27 | 145 | 17.7 | 30.6 | 0.00 | 0.00 | 0.00 | 41 | 1010.4 |
| 20260905055805 | 27 | 148 | 16.1 | 30.6 | 0.00 | 0.00 | 0.00 | 41 | 1010.2 |
| 20260905055705 | 27 | 148 | 16.1 | 30.6 | 0.00 | 0.00 | 0.00 | 41 | 1010.1 |
| 20260905055605 | 27 | 153 | 17.7 | 30.6 | 0.00 | 0.00 | 0.00 | 42 | 1010.2 |
| 20260905055505 | 27 | 155 | 16.1 | 29.0 | 0.00 | 0.00 | 0.00 | 41 | 1010.2 |
| 20260905055405 | 27 | 158 | 16.1 | 29.0 | 0.00 | 0.00 | 0.00 | 41 | 1010.3 |
| 20260905055306 | 27 | 154 | 17.7 | 29.0 | 0.00 | 0.00 | 0.00 | 41 | 1010.1 |
| 20260905055205 | 27 | 150 | 17.7 | 29.0 | 0.00 | 0.00 | 0.00 | 41 | 1010.2 |
| 20260905055104 | 27 | 149 | 19.3 | 29.0 | 0.00 | 0.00 | 0.00 | 41 | 1010.1 |
| 20260905055004 | 27 | 150 | 19.3 | 29.0 | 0.00 | 0.00 | 0.00 | 41 | 1010.2 |
| 20260905054904 | 27 | 150 | 19.3 | 29.0 | 0.00 | 0.00 | 0.00 | 41 | 1009.9 |
| 20260905054804 | 27 | 152 | 17.7 | 29.0 | 0.00 | 0.00 | 0.00 | 41 | 1010.2 |
| 20260905054704 | 27 | 156 | 17.7 | 27.4 | 0.00 | 0.00 | 0.00 | 41 | 1010.2 |
| 20260905054604 | 27 | 151 | 17.7 | 27.4 | 0.00 | 0.00 | 0.00 | 41 | 1010.2 |
| 20260905054504 | 27 | 149 | 17.7 | 27.4 | 0.00 | 0.00 | 0.00 | 41 | 1010.0 |
| 20260905054404 | 27 | 146 | 16.1 | 27.4 | 0.00 | 0.00 | 0.00 | 41 | 1010.2 |
| 20260905054304 | 27 | 148 | 17.7 | 27.4 | 0.00 | 0.00 | 0.00 | 41 | 1010.2 |
| 20260905054204 | 27 | 148 | 19.3 | 27.4 | 0.00 | 0.00 | 0.00 | 41 | 1009.9 |
| 20260905054104 | 27 | 152 | 17.7 | 27.4 | 0.00 | 0.00 | 0.00 | 42 | 1010.2 |
| 20260905054004 | 27 | 156 | 17.7 | 27.4 | 0.00 | 0.00 | 0.00 | 41 | 1010.2 |
| 20260905053904 | 27 | 156 | 19.3 | 27.4 | 0.00 | 0.00 | 0.00 | 42 | 1010.2 |
| 20260905053803 | 27 | 152 | 17.7 | 27.4 | 0.00 | 0.00 | 0.00 | 42 | 1010.1 |
| 20260905053704 | 27 | 147 | 17.7 | 27.4 | 0.00 | 0.00 | 0.00 | 41 | 1010.2 |
| 20260905053603 | 27 | 151 | 19.3 | 27.4 | 0.00 | 0.00 | 0.00 | 42 | 1009.9 |
| 20260905053504 | 27 | 156 | 17.7 | 27.4 | 0.00 | 0.00 | 0.00 | 42 | 1010.2 |
| 20260905053404 | 27 | 156 | 19.3 | 27.4 | 0.00 | 0.00 | 0.00 | 42 | 1010.1 |
| 20260905053303 | 27 | 158 | 17.7 | 29.0 | 0.00 | 0.00 | 0.00 | 41 | 1010.2 |